ECMWFFLT1_sfc_temp_057.txt.gz
Temp
87 86 86 86 86 86 86 85 85 85 84 84 84 85 86 85 84 84 83 82 81 81 81 81 81 82 81 82 82 82 83 83 83 82 82 83 83 83 82 83 83 83 85 85 84 84 85 85 85 85 85 85 84 85 84 82 82 82 81 81 81 81 81
86 87 87 87 86 86 86 86 85 86 86 86 85 85 86 85 84 84 83 82 82 82 82 82 81 82 82 82 82 82 82 82 83 83 83 83 83 83 84 83 83 83 83 85 85 85 85 85 85 84 84 84 84 84 84 82 82 81 82 81 81 80 81
87 87 87 87 87 87 86 87 86 87 87 87 87 86 85 84 84 84 83 83 82 82 83 82 82 82 82 82 82 82 82 83 83 83 82 83 83 85 84 84 84 84 85 85 85 85 85 85 85 84 85 84 85 84 83 82 82 82 81 81 81 81 80
86 87 87 87 87 87 87 87 87 88 89 89 88 88 86 84 85 85 84 84 83 82 81 82 82 82 82 82 82 82 82 82 83 83 84 84 84 84 84 84 83 85 84 84 86 86 86 85 84 84 83 84 84 84 84 83 83 82 82 81 81 81 80
87 88 88 87 87 86 87 88 88 87 89 91 89 87 86 86 87 86 86 86 86 83 84 84 85 84 83 83 83 83 82 83 83 84 84 84 84 84 83 84 84 84 84 85 85 84 84 84 84 84 83 83 84 84 83 83 83 82 81 81 80 81 81
87 86 86 87 88 88 88 89 90 90 90 90 90 89 89 90 89 89 88 86 86 86 85 84 83 83 82 83 84 83 83 83 83 83 83 84 83 83 84 84 85 85 85 84 86 85 85 84 84 84 84 85 85 85 85 83 83 83 81 80 80 81 81
88 87 86 87 88 89 89 90 91 92 91 92 92 91 91 92 90 90 89 88 88 85 85 85 84 84 83 84 83 83 82 83 83 83 84 84 84 83 83 84 84 85 86 85 84 85 85 84 84 84 84 85 84 85 84 82 82 82 81 80 79 80 80
89 87 87 88 89 91 91 90 91 92 92 91 92 92 92 92 91 91 90 90 89 89 87 87 85 83 83 83 84 83 83 84 84 84 84 84 84 83 84 84 84 84 84 84 84 85 86 84 85 84 84 85 84 83 84 82 82 83 82 80 79 80 81
91 88 88 90 90 92 92 91 90 90 89 88 89 89 91 91 91 91 91 90 90 89 88 90 88 86 83 83 83 83 84 84 84 84 83 84 84 85 86 85 84 85 84 84 86 85 85 85 85 83 83 83 83 83 83 82 82 82 81 80 79 79 80
87 86 87 89 90 92 91 91 89 87 87 86 86 87 88 90 90 91 91 91 91 90 90 90 90 88 84 84 84 84 83 83 84 84 85 85 85 86 87 87 86 85 84 85 86 85 84 85 84 84 83 83 82 82 82 82 82 82 82 81 80 80 79
85 85 85 87 87 88 89 90 87 84 85 84 85 88 87 88 88 90 90 91 91 91 92 90 90 88 86 85 85 85 83 83 84 84 84 86 87 87 88 88 88 87 86 85 86 86 85 84 84 83 83 82 82 82 82 82 82 81 82 81 81 81 81
82 83 83 84 85 86 86 85 85 84 84 84 86 87 85 86 88 90 90 90 92 92 91 90 91 90 87 87 86 84 83 83 83 83 85 86 87 88 88 88 87 88 87 87 86 86 87 84 84 83 82 83 83 83 83 83 82 81 81 82 82 81 82
83 82 82 84 84 85 84 83 84 84 83 85 87 87 87 88 88 90 87 88 91 91 91 89 89 87 87 87 87 84 83 83 83 83 86 85 85 86 87 88 89 88 88 87 87 87 87 87 84 84 83 83 83 83 83 83 83 82 81 81 81 81 81
79 82 83 83 83 83 82 82 83 83 83 84 86 86 87 88 89 88 87 88 90 91 92 91 88 87 86 86 85 83 83 83 83 84 84 85 84 85 86 87 87 86 86 87 86 87 87 88 86 85 84 84 83 83 83 83 82 82 81 81 81 81 80
83 85 84 83 81 82 82 83 82 83 84 84 86 86 86 87 88 87 87 89 88 91 90 88 87 86 86 85 83 83 83 83 84 84 84 84 83 83 84 85 85 85 86 85 86 87 88 88 88 85 83 84 83 83 84 83 82 82 82 81 80 81 81
83 85 86 85 83 83 82 83 83 82 83 83 84 84 86 86 85 87 88 88 90 88 90 88 85 84 85 84 83 83 84 83 83 83 83 83 83 83 84 85 85 86 85 85 86 85 85 86 86 86 84 83 83 83 83 82 83 76 68 71 80 81 81
88 87 86 85 84 83 83 83 83 83 83 83 83 84 84 85 85 87 91 90 91 88 89 89 85 85 84 83 84 84 84 83 83 83 82 82 83 83 83 83 84 84 83 83 84 84 84 84 85 85 85 84 84 83 82 82 82 68 65 66 69 78 81
86 85 85 84 84 84 82 83 83 83 83 85 85 84 85 84 86 87 88 90 90 91 91 89 87 85 83 84 84 84 83 83 83 82 82 82 82 83 83 84 83 83 83 83 83 83 84 83 83 83 85 85 85 84 83 83 72 65 64 65 65 69 80
83 82 81 79 80 81 83 85 85 84 85 87 86 86 87 87 87 85 86 87 88 89 90 89 88 85 84 84 84 83 83 83 83 82 82 82 82 83 83 82 82 82 83 83 83 83 82 82 83 83 83 84 83 83 84 84 70 64 63 63 64 64 73
79 79 80 81 81 83 84 84 85 87 87 86 88 91 90 88 87 87 88 90 89 87 87 86 86 85 84 84 84 84 83 83 83 82 82 82 82 82 82 82 82 83 85 84 83 82 82 83 82 83 82 83 83 82 84 83 69 63 61 62 62 63 68
75 76 76 77 78 80 81 82 83 84 85 88 91 90 90 88 89 89 89 88 87 87 85 85 85 84 84 84 84 84 84 83 83 82 82 83 82 82 82 82 82 83 84 85 84 82 81 82 82 82 83 84 84 83 83 84 65 61 60 60 60 61 65
76 75 76 76 75 74 75 79 82 85 85 88 89 91 91 90 91 91 89 89 88 87 86 85 84 84 84 84 84 84 84 84 83 82 83 83 82 82 82 82 81 81 82 83 85 84 84 83 84 83 83 83 85 84 83 86 64 60 59 59 59 60 72
74 74 73 73 75 75 76 77 77 83 85 86 88 90 90 91 91 89 89 89 89 86 87 86 84 84 83 84 84 85 85 84 83 83 83 83 82 82 82 81 81 82 83 82 83 84 83 83 84 84 84 84 84 83 82 85 68 58 57 58 57 62 75
74 73 73 72 73 75 77 78 79 80 85 86 87 89 90 91 89 88 86 87 88 88 87 86 84 84 84 84 85 85 85 83 83 82 82 82 82 82 83 83 83 83 83 83 83 84 84 85 84 84 84 85 84 84 83 86 70 56 56 57 56 64 75
74 73 72 72 72 74 76 77 78 83 83 85 86 87 88 89 89 88 86 86 88 87 85 84 84 84 84 85 86 85 85 85 83 83 83 83 83 84 83 83 83 84 84 84 84 84 84 84 84 84 84 85 86 75 81 86 73 55 57 56 55 65 77
71 71 72 73 74 75 75 77 79 80 82 82 81 85 87 89 88 87 85 85 87 86 84 84 84 85 85 86 85 85 84 84 83 83 83 83 83 84 84 84 85 85 84 84 84 84 85 84 84 83 84 86 86 85 84 84 82 64 56 55 55 60 76
71 71 71 73 72 74 75 75 74 74 74 76 77 81 86 88 86 84 84 84 84 83 85 86 86 86 86 86 86 86 85 85 85 84 85 85 83 83 84 84 85 84 83 83 83 82 82 82 83 83 84 86 86 86 86 85 83 68 55 54 55 57 66
71 72 72 72 71 72 73 73 72 73 73 74 76 79 83 84 83 83 83 83 83 84 86 86 86 85 85 84 85 86 86 86 85 85 85 85 84 83 83 84 84 84 83 84 83 82 81 82 82 83 84 84 85 85 84 81 73 75 57 55 54 56 60
70 70 71 72 71 72 72 70 70 70 71 73 75 78 81 83 82 81 81 80 77 80 84 85 86 85 85 84 84 84 85 85 85 85 86 85 84 84 83 84 83 83 83 82 82 81 81 81 82 81 82 83 82 83 83 83 77 64 64 55 54 54 57
70 71 72 74 74 73 73 71 70 70 71 72 73 75 78 80 78 77 75 72 75 78 81 83 84 84 84 84 84 84 85 86 86 86 85 85 84 84 83 83 83 83 83 82 82 81 81 81 81 80 80 80 81 81 81 81 80 63 60 60 54 54 55
71 72 72 72 72 72 72 71 70 71 71 72 72 73 74 77 75 74 72 72 76 78 80 81 82 83 83 83 84 83 85 85 85 86 86 86 85 83 83 83 83 82 82 82 82 81 81 81 81 80 80 80 80 81 81 81 76 69 61 58 55 55 54
70 71 72 73 73 73 72 72 72 71 70 71 73 73 73 73 74 71 71 75 76 78 79 81 81 81 82 83 84 84 85 84 85 85 85 85 85 84 84 83 83 82 82 82 81 81 81 80 81 81 80 80 81 80 81 80 75 70 66 60 57 57 55
68 69 70 70 71 71 72 71 70 69 70 70 72 73 73 73 73 73 73 74 76 78 79 80 80 80 80 80 82 82 83 83 85 86 85 84 85 85 85 84 84 83 81 82 82 82 81 81 80 80 81 80 80 80 80 77 74 71 68 65 64 64 62
67 68 69 70 71 72 72 71 70 69 69 69 71 72 73 73 73 73 73 74 75 77 77 76 77 78 78 79 80 82 82 82 80 80 83 84 85 84 84 85 85 84 83 83 83 82 81 81 81 81 81 81 81 79 77 73 71 68 67 66 67 66 67
69 69 69 69 70 71 71 70 69 68 68 69 71 72 72 72 73 73 73 74 76 76 75 74 75 76 76 77 78 76 77 79 79 81 82 82 81 83 83 84 85 84 84 87 86 85 84 83 84 84 86 85 83 80 76 73 70 70 64 67 62 65 69
70 69 69 70 71 70 70 70 70 69 69 69 71 71 71 71 72 73 74 75 76 76 76 75 74 74 74 75 75 75 75 76 76 76 76 78 78 78 79 73 63 69 78 79 70 65 64 65 80 85 86 85 83 82 78 74 73 64 56 55 55 56 58
68 68 69 70 69 68 69 70 70 70 70 70 71 71 72 72 73 73 74 74 75 75 75 75 73 73 73 72 71 70 72 71 72 72 73 73 73 74 74 76 77 58 54 57 60 60 56 53 54 59 66 77 79 76 68 68 62 54 53 52 52 53 53
68 68 67 68 68 68 68 68 68 68 68 70 70 71 71 72 73 73 74 74 74 74 74 74 73 71 71 72 71 70 71 72 71 72 72 72 73 73 72 73 72 73 61 55 56 55 52 51 50 50 51 55 64 72 72 60 52 51 52 51 51 52 51

ECMWFFLT1_sfc_temp_060.txt.gz
Temp
97 96 95 95 93 94 93 92 91 91 91 90 90 91 91 91 90 89 88 87 86 85 86 86 86 86 86 86 86 87 87 87 87 87 88 88 89 88 88 89 89 89 91 91 90 91 91 91 92 92 91 90 90 90 89 89 88 88 88 87 87 87 87
97 97 96 96 95 94 93 93 92 92 92 91 91 90 91 90 89 89 88 87 86 86 86 86 86 86 86 86 87 87 86 87 87 87 88 88 88 89 89 89 89 89 89 91 92 91 91 91 91 91 91 90 90 90 90 89 88 88 88 87 87 87 87
98 98 97 96 95 95 93 94 92 93 92 93 92 92 91 89 89 88 88 88 86 86 87 86 86 86 87 87 86 86 87 87 87 88 87 89 89 91 90 89 90 90 91 91 91 92 92 91 90 90 91 90 91 90 90 89 88 88 88 87 87 87 86
96 97 97 97 95 95 94 94 93 95 95 95 93 93 91 89 90 90 90 89 87 87 86 87 87 87 87 86 86 86 86 87 87 88 89 89 89 89 89 89 89 91 90 91 92 92 93 91 91 90 89 90 90 91 90 90 90 88 88 87 87 88 86
97 98 98 97 97 95 95 95 95 93 95 97 95 92 92 92 92 92 91 91 91 88 89 89 90 88 88 88 88 88 87 87 87 88 89 89 89 89 89 90 90 90 91 92 91 90 90 90 91 90 89 89 90 90 90 89 90 88 87 87 87 88 87
98 96 96 97 97 97 96 96 97 97 97 97 96 94 95 95 95 95 93 91 91 92 90 89 88 88 87 88 88 88 88 88 88 88 88 89 88 89 89 89 91 91 92 90 92 92 91 90 91 91 91 91 91 92 91 90 90 90 88 87 87 88 88
99 97 96 97 98 98 97 97 99 99 99 99 99 97 97 97 96 96 95 94 94 91 91 91 90 89 88 88 88 88 87 88 88 88 89 89 89 89 89 89 90 91 92 91 91 92 91 90 90 90 91 91 90 91 90 89 89 89 88 86 86 87 87
101 98 97 98 99 100 100 98 99 101 99 99 99 99 98 99 98 97 96 96 95 95 94 94 91 89 88 88 89 88 88 89 90 89 89 89 89 88 89 90 89 90 90 91 90 91 92 90 91 90 91 91 90 89 90 89 88 91 89 86 86 86 88
103 99 98 99 100 102 101 99 98 99 97 96 97 97 98 98 98 97 97 97 97 96 95 97 95 92 89 89 88 88 89 89 89 89 89 89 90 91 92 91 90 90 90 91 93 91 91 91 91 89 89 89 89 89 89 88 88 89 88 87 86 86 87
101 97 96 99 99 102 100 101 98 95 95 94 94 94 96 97 97 98 98 99 99 97 97 97 96 94 90 89 89 89 88 88 89 90 92 91 91 92 93 94 92 91 90 91 93 92 90 91 91 90 88 89 88 89 88 88 89 88 89 87 87 86 86
95 93 93 96 96 97 97 98 95 92 93 91 92 95 95 95 96 98 97 98 99 98 99 97 96 95 93 91 91 91 88 89 90 90 90 92 93 94 95 95 95 93 92 92 92 94 91 90 90 89 89 88 88 88 88 88 88 88 89 88 88 87 87
91 92 91 93 94 94 94 93 94 92 92 91 93 94 92 93 96 97 97 97 100 99 98 98 98 97 94 94 92 89 89 88 89 89 91 92 94 95 95 96 94 95 94 93 92 93 94 91 90 90 88 88 89 89 88 88 88 88 88 90 89 88 88
92 92 91 93 92 93 92 91 92 92 91 93 94 94 94 95 95 97 95 96 99 99 98 96 96 94 94 94 93 90 89 88 88 89 92 91 91 94 95 96 97 97 96 95 94 94 94 95 91 90 89 89 89 89 89 88 89 88 87 88 88 87 87
88 93 93 92 92 91 90 90 91 91 90 92 93 93 94 96 96 95 94 95 97 99 100 99 95 94 93 93 91 89 88 89 89 89 90 91 90 91 93 94 94 93 94 94 93 94 95 95 93 92 91 90 90 89 89 89 88 88 87 87 88 88 87
94 95 94 93 90 90 90 90 89 90 91 91 93 93 93 94 95 94 94 96 95 99 99 96 94 93 93 91 90 89 89 89 89 89 89 90 90 89 90 92 92 92 93 92 94 94 96 95 96 92 90 90 89 89 90 89 88 89 88 87 87 88 87
97 98 98 96 94 93 91 91 91 90 90 90 91 91 93 92 92 94 94 95 97 96 98 96 93 91 91 91 89 89 89 88 88 88 88 89 88 88 89 91 92 93 92 92 93 92 92 93 93 95 92 90 89 89 89 89 89 81 72 75 87 87 87
97 98 99 97 95 94 94 93 92 91 89 89 90 91 91 91 92 94 97 96 97 95 97 97 92 91 91 90 90 89 88 88 88 88 87 87 88 88 88 89 90 90 90 90 90 90 90 91 92 93 93 92 91 89 89 89 88 71 67 69 72 85 87
96 96 97 97 96 95 93 93 92 91 90 92 92 91 91 90 92 93 94 96 96 98 98 96 94 91 89 90 89 89 88 88 88 87 87 87 87 88 88 89 89 88 88 89 89 89 91 90 90 90 92 93 92 91 89 89 77 67 66 67 68 73 86
97 99 98 93 92 91 94 96 96 92 93 94 94 93 93 93 93 91 92 93 94 96 97 96 95 90 89 89 89 88 88 88 87 87 87 87 87 87 87 87 87 88 88 89 89 89 88 88 89 89 90 91 90 91 91 91 73 65 64 66 66 67 77
99 101 101 100 96 95 94 93 94 96 96 94 95 99 97 95 94 93 95 96 96 94 93 92 93 91 89 88 88 88 88 88 87 87 87 87 87 87 87 87 86 88 90 90 88 87 88 88 88 88 88 89 89 89 91 91 72 63 62 63 63 65 72
96 97 95 94 92 94 91 89 89 90 91 95 98 97 98 96 96 95 95 95 95 94 92 92 91 90 89 88 88 89 88 88 87 87 87 87 87 86 86 86 87 87 89 91 89 87 86 87 87 88 88 90 91 90 90 91 68 61 61 61 61 63 67
98 98 96 94 89 86 85 88 88 90 91 94 96 98 98 97 98 98 95 96 95 94 92 91 90 90 89 88 88 89 88 88 87 87 87 87 87 86 86 86 86 86 87 89 90 90 90 89 89 89 88 89 90 90 89 92 65 60 60 60 60 61 76
97 93 91 88 88 87 85 84 85 87 88 89 94 96 97 99 98 97 96 95 96 93 93 92 89 89 88 89 90 90 90 89 88 87 87 87 87 86 86 86 86 87 88 87 89 90 89 89 90 89 90 89 89 88 88 91 71 58 58 59 58 63 80
92 88 88 86 84 84 84 85 86 87 88 90 91 95 97 99 97 95 93 94 95 95 94 92 90 89 89 89 91 90 90 89 89 87 87 87 87 87 87 88 88 88 88 88 88 90 91 91 89 90 89 90 89 90 89 91 75 56 57 57 56 66 80
91 89 85 83 83 85 85 85 85 87 88 88 91 93 95 96 97 96 93 93 95 94 92 90 90 90 90 90 91 91 91 90 89 89 89 87 88 89 88 88 88 89 89 90 90 90 90 90 90 90 89 91 91 78 86 91 78 55 58 56 56 67 81
84 83 83 82 84 84 82 83 85 87 90 90 90 93 94 96 96 93 92 92 95 93 91 90 90 91 91 91 91 90 90 90 89 88 89 88 88 89 89 89 90 90 90 90 90 90 91 90 90 89 90 92 92 91 90 89 91 70 56 56 55 60 79
82 81 81 83 83 81 83 84 84 85 86 85 86 91 94 95 92 90 90 90 90 90 91 92 91 91 90 90 92 92 91 91 90 89 90 91 90 90 90 91 90 90 89 90 90 89 88 87 88 89 89 91 92 92 91 92 89 78 54 55 55 56 67
82 82 81 79 78 80 82 85 82 84 86 85 86 88 91 91 89 89 89 89 88 90 93 92 91 90 90 90 91 92 92 91 90 89 90 90 89 88 88 89 89 89 89 89 88 86 86 87 87 89 90 90 91 90 89 86 76 89 58 56 54 56 59
80 81 81 79 79 80 82 82 82 83 83 85 87 88 89 90 88 88 88 88 88 91 92 91 91 90 90 89 89 90 90 90 89 89 91 90 89 88 87 87 87 87 88 87 87 86 86 86 86 86 88 89 89 91 90 89 85 70 70 56 55 54 56
79 81 82 85 83 81 82 81 80 80 81 83 85 87 89 88 86 85 84 82 85 88 89 89 90 89 89 88 89 89 90 91 91 90 90 89 89 88 87 87 87 87 87 87 86 86 85 86 86 86 87 87 88 89 91 90 91 73 65 64 54 54 55
81 82 81 80 80 80 80 80 78 78 79 81 82 84 85 85 83 82 81 82 85 86 88 88 88 88 88 88 89 88 90 91 90 91 90 90 89 87 87 87 87 86 86 86 86 85 85 86 87 86 85 85 86 88 89 90 90 90 72 59 56 54 54
80 81 81 80 79 80 80 79 79 79 78 79 80 81 81 82 83 80 81 84 85 86 87 87 87 87 87 89 89 89 91 90 91 91 90 90 90 88 88 88 88 87 87 87 86 85 85 85 86 86 85 85 87 87 87 87 90 89 84 64 60 58 55
77 79 79 77 77 78 79 79 78 77 77 77 79 80 80 80 81 81 82 83 85 86 86 86 85 85 86 87 89 89 89 88 91 91 90 89 90 90 90 89 89 87 85 86 87 86 85 85 85 85 86 86 87 87 87 87 88 89 88 77 72 69 66
75 76 76 77 78 78 78 78 77 76 76 76 77 78 79 79 79 80 81 82 84 85 85 84 85 85 85 87 88 88 88 88 86 87 90 90 90 90 90 90 89 88 86 86 86 85 85 85 84 84 86 86 88 87 87 86 88 87 87 82 78 75 73
75 76 76 76 77 77 76 76 76 75 75 75 77 78 78 78 79 80 80 81 83 84 84 83 83 84 84 84 84 83 85 86 86 88 89 90 88 88 88 87 88 86 88 91 91 88 87 86 86 87 90 89 86 84 85 87 87 88 74 83 68 75 76
75 75 75 76 76 76 76 76 76 76 76 76 77 77 76 77 78 79 82 82 83 83 81 81 82 81 81 83 83 84 85 86 86 86 85 87 85 85 85 76 63 71 82 85 74 63 56 56 74 78 78 79 80 82 81 83 85 65 58 58 58 58 61
73 73 74 75 75 75 75 75 75 75 75 76 77 76 76 76 77 78 79 81 82 82 82 80 80 79 79 79 79 78 80 81 81 81 82 83 83 84 83 85 82 58 52 57 56 52 47 46 46 47 50 63 72 71 61 58 55 54 55 52 52 54 55
73 73 74 75 74 74 74 74 74 74 74 76 76 76 76 77 77 77 78 79 80 80 81 80 80 79 79 79 78 77 79 80 80 81 81 81 81 81 80 82 81 82 64 54 58 55 48 47 47 46 46 47 51 59 70 63 56 53 52 53 52 52 52

ECMWFFLT1_sfc_temp_063.txt.gz
Temp
101 101 99 98 97 98 97 95 95 95 94 93 92 94 94 94 92 91 90 88 87 86 87 87 88 88 87 88 88 88 89 89 89 89 89 90 90 90 90 91 90 90 92 92 91 91 92 92 93 93 92 91 91 91 90 90 89 90 89 89 88 89 88
98 102 101 99 99 98 97 96 95 96 95 94 93 93 94 93 92 91 90 89 88 87 87 87 87 88 88 88 88 88 88 89 89 89 90 89 90 90 91 90 90 90 91 92 93 92 92 93 93 93 93 91 91 91 91 90 89 89 90 89 88 88 88
100 101 101 99 99 99 96 97 96 96 96 96 95 94 94 92 92 91 90 90 88 88 88 88 88 88 89 88 88 88 89 89 89 90 89 91 91 93 92 91 91 92 93 93 93 94 93 93 92 92 93 92 92 91 91 90 89 90 90 89 88 88 87
98 99 101 100 99 98 98 97 96 98 98 98 96 95 94 92 93 93 92 91 89 88 87 88 89 89 89 88 88 88 88 89 89 90 91 92 91 91 91 91 91 92 92 92 94 95 95 93 93 92 91 92 91 92 91 91 91 90 90 89 89 88 87
99 101 102 100 100 99 98 98 97 96 98 99 97 94 95 95 95 95 94 93 93 90 91 90 92 90 90 90 90 90 89 89 89 90 91 91 91 91 91 92 92 92 93 94 93 92 92 92 93 92 91 91 92 91 91 91 91 90 89 88 88 89 89
102 99 100 101 100 101 99 100 100 100 99 100 98 96 97 98 97 97 96 93 93 94 92 91 90 90 89 90 90 90 90 89 89 89 90 90 90 91 91 91 93 93 94 93 95 95 94 93 93 93 92 93 93 93 93 92 91 91 89 88 88 89 89
102 101 101 102 102 102 101 100 102 101 101 101 101 99 99 99 98 98 98 96 96 92 93 93 92 91 90 90 90 90 89 90 89 90 91 92 91 91 91 91 92 94 94 93 93 94 94 93 92 93 93 93 92 93 92 90 90 91 89 88 87 88 88
102 101 102 103 104 105 104 102 102 103 101 101 101 100 99 100 99 99 98 98 97 97 96 96 93 91 90 91 91 90 90 90 91 91 91 91 91 91 92 92 92 92 93 94 93 93 95 93 94 93 93 93 92 91 92 91 90 92 90 88 87 88 89
104 103 102 104 105 106 105 103 102 102 99 99 99 98 99 99 100 99 99 99 98 98 97 98 97 94 91 91 90 90 91 91 91 91 91 91 92 94 94 94 93 93 92 93 95 93 93 94 94 92 92 92 92 91 91 91 91 91 90 89 88 87 89
103 102 103 105 104 104 101 102 102 99 97 96 97 97 97 99 99 99 100 100 100 99 99 99 98 96 92 91 91 91 91 90 91 92 93 93 94 94 95 96 95 94 93 93 95 94 92 93 93 92 91 91 91 91 90 91 91 91 91 89 89 88 87
103 101 101 103 103 103 104 104 99 96 96 94 95 99 97 98 98 100 99 100 101 100 101 100 99 97 94 93 94 93 90 91 93 93 93 94 95 96 97 97 98 96 95 94 95 96 94 92 93 91 91 91 91 91 90 91 91 90 91 91 90 89 89
95 96 96 99 99 100 101 98 97 95 95 95 97 98 96 96 99 100 100 100 102 102 101 100 101 99 96 96 94 91 91 90 91 92 94 95 96 97 98 98 97 98 96 96 95 95 97 93 93 92 91 91 91 91 90 90 90 90 90 92 91 90 90
97 95 95 98 97 98 97 97 96 95 95 98 99 98 99 99 99 100 98 99 102 102 101 99 99 97 96 96 96 92 91 91 91 92 95 94 95 97 97 98 99 99 99 97 96 96 97 97 93 92 92 91 91 92 91 90 91 90 89 90 90 90 89
95 99 98 97 96 96 95 96 96 95 95 97 98 98 99 100 100 99 98 99 100 103 103 102 99 97 96 95 93 91 91 91 91 92 93 94 93 94 96 98 97 96 97 97 95 97 97 98 96 94 94 92 92 91 91 90 90 90 89 90 90 90 89
99 101 98 96 94 93 93 94 93 94 95 95 98 97 98 99 99 97 97 99 99 103 102 100 98 96 96 94 92 91 91 91 91 92 92 93 92 93 94 95 95 96 96 96 97 97 98 98 99 95 92 92 91 92 92 91 90 91 90 89 89 90 90
101 101 100 98 96 95 93 94 93 93 94 93 95 95 98 97 96 98 98 99 101 99 102 100 96 95 95 94 92 92 91 91 91 90 91 92 91 91 93 95 95 97 96 96 97 96 95 95 96 98 95 92 91 91 92 91 91 84 75 77 89 89 90
100 102 101 101 97 97 96 95 95 93 93 92 93 94 95 95 96 98 101 100 101 99 101 102 96 95 95 93 92 92 91 90 90 90 90 90 91 92 92 93 94 94 93 94 94 94 93 94 95 96 97 94 93 92 91 91 91 74 69 71 74 87 89
100 99 101 102 101 99 97 96 96 94 94 95 95 94 95 93 96 97 98 100 100 102 102 100 98 96 93 93 92 92 91 90 90 89 89 90 90 91 91 92 92 92 92 93 93 92 95 94 93 93 96 96 95 93 92 92 79 69 68 69 69 74 89
99 101 100 99 99 98 100 102 101 97 97 98 97 96 97 97 97 95 96 96 98 99 100 100 100 95 92 93 92 91 90 90 90 89 89 89 90 90 90 90 91 91 92 93 93 93 91 91 93 92 93 95 93 93 94 93 76 67 66 68 68 69 79
99 101 102 103 103 103 101 100 100 102 101 98 99 102 100 98 97 97 98 100 99 98 96 96 97 95 93 92 92 91 90 90 90 89 89 90 89 90 90 90 89 92 94 94 92 91 91 92 91 92 91 92 92 92 94 93 75 65 64 65 65 67 73
97 98 99 100 100 103 100 97 96 97 97 101 103 101 101 99 100 99 98 98 98 97 95 96 95 93 92 91 91 91 90 90 90 89 89 90 89 89 89 89 89 90 92 94 93 91 89 90 90 91 91 93 94 93 94 94 71 63 62 63 63 65 69
101 103 101 101 96 94 93 96 95 97 97 99 101 103 103 101 101 101 98 99 99 97 96 94 93 93 92 91 91 91 91 91 89 89 89 89 89 89 88 89 88 88 90 92 94 93 93 92 92 92 91 92 93 93 92 96 68 61 62 61 62 63 77
103 102 103 98 98 96 92 92 92 94 93 94 97 101 102 104 102 100 99 99 99 96 97 95 93 93 91 91 92 92 92 91 90 89 89 89 89 88 89 88 88 89 90 90 92 93 92 91 92 91 92 92 91 90 91 94 73 59 60 60 60 65 81
105 104 104 100 94 94 93 92 93 93 93 94 94 97 100 103 102 98 96 96 98 98 97 96 93 92 91 91 92 92 92 91 91 90 89 89 89 89 90 91 90 90 90 90 91 93 94 93 92 92 92 93 92 93 91 94 76 56 59 59 58 67 81
105 105 99 94 93 93 93 91 89 91 92 92 93 95 97 100 101 100 96 96 98 98 95 93 92 92 92 92 93 93 93 92 91 91 91 90 90 91 90 90 90 91 91 92 92 92 92 93 92 92 92 94 94 82 89 93 81 56 59 57 57 68 82
98 95 93 92 93 92 89 87 88 89 92 93 92 94 96 100 100 97 95 95 98 96 94 93 93 93 93 94 93 93 92 92 91 90 91 90 90 91 91 91 92 92 92 92 92 92 93 93 92 92 93 95 94 94 93 92 93 71 57 56 56 60 80
92 91 91 93 90 86 89 89 89 91 92 92 92 95 97 99 97 94 93 93 93 93 94 94 94 93 93 93 94 94 93 93 92 91 93 93 92 92 92 93 92 92 91 92 92 92 91 91 92 93 92 94 95 95 94 95 92 79 55 56 56 57 67
91 91 91 87 84 86 88 91 88 89 92 90 90 93 96 95 93 92 92 92 92 94 97 95 94 93 93 92 93 94 94 94 92 92 93 92 92 90 90 91 92 91 91 92 91 89 89 89 90 91 92 93 94 94 92 90 78 92 59 57 54 56 58
87 88 87 86 86 86 89 88 88 89 88 90 92 92 93 94 92 92 91 90 92 95 96 96 95 93 92 91 92 92 93 93 93 92 94 92 91 90 89 90 90 90 90 89 89 89 88 88 89 89 89 91 92 93 92 91 87 72 74 56 55 54 55
87 87 88 92 90 87 88 85 86 85 86 89 90 91 92 92 90 90 90 90 93 94 95 94 93 92 91 91 91 92 93 93 94 93 92 92 91 90 89 89 89 90 89 89 88 88 88 88 88 88 88 89 89 91 93 92 92 76 67 65 53 54 54
86 87 87 86 86 86 86 86 83 84 85 87 89 90 91 92 90 89 88 89 92 92 92 92 91 91 90 91 91 91 93 93 93 93 92 92 91 89 89 89 89 88 88 88 88 88 87 87 88 87 87 88 87 88 90 93 93 95 77 62 57 54 54
86 87 87 86 85 85 85 85 84 84 83 85 87 88 89 90 89 86 87 89 90 91 91 91 90 89 90 91 91 92 93 92 93 93 92 92 92 90 90 89 89 88 88 87 87 87 86 87 88 88 87 87 88 88 89 88 91 90 90 70 62 57 55
84 85 85 82 82 82 82 83 83 83 83 83 84 85 86 87 88 87 88 88 90 90 90 89 89 88 89 90 91 91 91 91 93 93 92 91 91 91 91 90 90 88 87 88 89 88 87 87 87 87 88 88 89 90 89 89 90 90 91 90 80 75 68
82 81 81 81 81 82 82 82 81 81 81 81 83 85 85 86 87 88 88 89 90 90 89 88 88 89 89 91 91 91 91 91 91 91 92 92 93 92 91 91 90 90 87 88 88 88 88 89 88 87 88 87 89 89 90 90 91 91 88 81 78 81 81
80 80 80 80 81 82 80 80 79 79 79 80 81 82 83 84 85 86 87 88 89 89 88 87 86 88 89 90 90 89 90 91 90 92 93 92 92 90 86 88 92 88 91 82 78 82 84 87 87 86 88 87 83 81 81 82 83 84 63 66 58 64 73
79 79 79 81 81 81 80 80 79 78 78 78 80 81 82 83 84 85 87 87 87 87 86 86 87 87 87 87 88 88 89 89 90 92 92 94 92 87 80 66 57 71 83 75 61 52 53 60 75 73 77 81 81 81 79 80 82 60 50 49 48 47 48
78 78 78 79 79 78 78 78 78 78 78 79 79 79 80 81 83 84 87 87 86 86 85 86 86 86 86 87 88 85 88 88 87 89 88 88 86 86 84 83 73 49 52 63 59 51 45 45 46 48 53 66 75 73 64 60 54 49 49 48 48 48 47
79 79 79 79 78 77 77 77 78 78 77 79 79 79 80 82 83 83 85 86 86 85 84 84 83 83 84 84 82 82 84 85 85 85 85 85 86 85 85 85 82 80 57 50 56 54 47 45 45 45 46 49 55 64 74 64 57 52 49 49 48 48 48

ECMWFFLT1_sfc_temp_069.txt.gz
Temp
87 87 86 87 86 86 85 85 86 86 86 85 86 86 86 86 85 83 82 82 81 80 81 81 81 81 81 81 81 81 81 81 81 81 81 81 81 81 81 81 81 80 81 81 81 82 82 83 83 83 82 82 82 81 82 81 81 82 81 80 80 79 79
86 86 86 87 86 86 85 85 85 87 86 85 86 86 87 86 84 83 82 82 82 81 81 81 81 81 81 81 81 81 81 81 81 81 81 81 81 81 82 82 82 80 80 81 81 82 82 83 84 82 82 82 83 82 82 81 81 81 81 79 79 78 79
86 86 86 86 85 85 85 85 85 87 86 86 86 86 86 85 85 83 82 82 81 81 81 81 81 82 82 81 81 81 81 81 81 81 81 81 82 82 82 82 82 82 82 82 81 82 83 83 83 83 83 82 83 82 81 81 81 81 81 80 79 79 78
85 86 86 86 86 85 86 85 85 87 87 87 87 87 87 85 86 85 84 83 82 81 80 81 82 82 82 81 81 81 81 81 82 82 82 82 82 83 82 82 82 83 82 82 83 83 84 83 83 82 83 82 82 83 82 82 82 81 81 80 79 79 79
85 86 86 85 85 84 85 85 85 86 86 88 88 87 87 86 87 85 85 84 84 82 82 82 83 83 82 82 82 81 81 81 82 82 82 83 83 83 82 83 83 83 83 84 83 83 82 82 83 82 82 82 82 82 82 82 82 81 80 80 79 79 79
85 85 85 85 85 85 86 87 87 87 87 87 87 87 88 88 88 87 86 84 84 84 83 83 82 82 81 82 82 82 82 82 82 82 82 82 82 83 83 83 83 83 83 84 84 83 83 83 83 83 83 83 83 83 83 82 83 82 81 80 80 80 79
86 86 86 86 86 86 87 87 88 89 89 89 89 88 89 89 88 88 87 85 85 83 83 83 83 83 82 82 82 82 81 81 82 82 83 83 83 83 83 83 83 84 85 84 84 84 83 84 84 84 84 83 83 83 83 82 82 82 82 80 80 80 80
87 87 87 87 88 88 88 88 88 90 90 90 90 89 89 90 89 89 87 87 86 85 84 84 83 83 82 82 82 82 82 82 83 83 83 83 83 83 83 83 83 84 84 84 84 85 84 83 85 84 84 84 83 83 83 82 82 83 82 81 80 80 81
89 88 88 89 89 89 89 88 88 89 88 89 89 88 89 89 89 89 88 88 87 86 85 85 85 84 83 82 82 82 82 82 82 82 82 83 83 83 84 84 84 84 84 84 85 85 85 84 84 83 84 84 83 82 83 82 82 82 82 81 80 80 80
88 87 87 89 90 91 89 89 88 87 86 87 87 87 88 89 90 90 89 89 88 86 86 86 86 85 84 83 82 83 82 82 82 82 83 83 84 84 84 85 85 84 84 85 85 84 85 85 84 83 83 83 83 82 82 82 82 82 82 81 81 80 80
89 87 87 88 89 88 88 88 86 85 86 86 87 88 88 89 89 90 89 89 88 87 87 87 87 86 85 84 83 83 82 82 83 82 83 83 84 84 85 86 86 85 85 85 85 86 84 84 85 83 82 83 83 83 83 82 82 82 83 82 82 81 81
88 87 86 88 88 87 87 87 86 85 85 86 87 88 88 88 90 90 90 90 90 88 88 87 87 87 85 85 83 82 82 82 82 82 83 84 84 85 86 86 86 86 86 86 86 86 86 85 84 84 83 83 83 83 83 83 83 82 83 83 83 82 82
88 85 87 88 87 88 87 85 85 85 85 87 89 89 89 89 90 91 89 90 91 90 88 88 87 86 86 85 84 83 82 82 82 83 84 84 84 85 86 86 87 87 87 87 87 87 86 86 85 84 84 84 84 84 83 83 83 82 82 83 83 82 81
88 86 88 89 88 87 86 85 85 85 85 87 89 89 89 90 91 90 89 90 91 91 90 89 87 87 86 85 84 83 83 83 83 84 84 85 84 85 86 86 87 86 86 86 87 87 87 87 85 85 85 85 84 84 84 83 83 83 82 82 83 82 81
88 88 87 87 86 87 86 84 83 84 85 87 89 89 89 89 90 90 90 91 90 92 91 90 88 87 86 85 84 83 83 83 84 84 84 84 84 84 85 85 86 86 86 86 87 87 88 88 87 85 84 84 84 84 84 84 83 83 83 82 82 83 82
89 89 88 86 86 86 85 85 84 83 84 85 87 88 89 88 88 89 90 90 91 91 92 90 88 86 86 85 84 84 84 83 83 83 83 84 83 83 84 85 86 87 86 86 87 87 87 87 87 86 85 84 84 84 84 84 84 80 74 75 83 82 83
89 90 87 86 84 85 85 85 84 83 84 85 86 88 89 88 89 90 92 92 92 91 92 91 88 87 86 85 85 85 84 83 83 83 82 83 84 84 84 84 85 85 85 85 85 86 85 86 86 87 86 85 85 84 83 84 84 73 68 70 72 81 83
86 84 85 87 85 84 83 84 84 84 85 87 88 88 89 87 89 90 90 92 92 93 93 92 89 87 86 86 85 84 84 84 83 83 83 83 83 83 84 85 85 84 84 85 85 84 86 85 85 86 86 86 86 85 84 84 77 70 68 68 68 72 83
86 87 85 83 82 82 85 86 86 85 87 89 89 89 90 89 89 88 90 90 91 93 93 92 90 88 86 86 85 84 84 84 83 83 83 83 83 83 83 83 84 84 84 85 85 85 84 84 85 85 86 85 84 85 85 85 75 68 67 67 66 67 74
85 88 87 87 85 87 85 83 85 86 88 88 89 91 92 90 90 89 91 92 92 91 91 91 90 88 86 86 85 85 84 84 83 83 83 83 83 83 83 83 83 85 86 86 85 84 84 85 85 85 85 85 84 84 86 85 75 67 65 65 65 66 69
84 81 81 83 83 84 81 82 83 82 83 86 89 89 90 89 89 88 90 90 90 91 89 90 89 86 86 85 85 85 85 84 83 83 83 83 83 83 83 83 83 84 86 86 86 85 84 84 84 85 85 86 86 84 85 85 73 65 64 63 63 64 66
83 84 85 83 80 82 83 84 84 85 84 86 87 88 89 87 90 90 89 90 90 90 89 88 88 85 85 85 85 85 85 85 84 83 83 83 83 82 82 83 83 83 85 86 87 86 86 85 86 85 85 85 86 86 84 86 71 65 63 62 62 63 71
86 84 86 84 85 84 82 83 85 87 85 85 87 89 90 90 90 89 89 89 90 87 89 88 86 85 84 85 86 86 86 85 84 84 83 83 83 82 83 82 82 83 85 84 86 86 85 85 86 86 86 86 85 85 86 86 74 63 61 61 61 63 75
88 86 85 84 83 83 83 84 84 85 85 84 84 85 89 91 90 87 85 87 88 88 87 87 86 84 84 85 87 86 86 86 85 84 83 83 83 83 84 84 84 84 84 84 85 86 87 87 86 86 87 86 86 86 86 87 76 61 60 59 60 65 76
85 85 84 84 84 82 82 81 82 84 83 83 84 82 83 86 89 89 86 85 88 89 86 85 85 84 84 85 87 87 87 86 85 85 84 84 84 85 84 84 84 85 84 85 85 86 86 85 86 86 86 87 87 81 84 86 80 59 58 58 58 64 77
82 83 83 83 83 82 80 80 80 80 82 83 80 79 84 85 85 87 86 86 87 87 86 85 84 83 84 86 86 87 86 86 85 85 85 84 84 85 84 84 85 85 85 85 86 85 85 85 85 85 86 86 86 87 85 85 85 71 55 56 56 58 74
83 82 81 82 81 83 79 79 79 79 81 80 80 82 83 84 82 81 81 83 84 85 87 85 83 83 84 85 86 86 86 87 86 85 86 86 85 85 85 85 85 85 84 84 85 84 83 84 83 84 84 85 86 86 86 87 84 76 53 54 55 57 63
83 83 83 82 84 83 80 81 78 80 82 80 82 83 82 81 81 79 78 80 83 85 85 83 83 84 84 84 85 86 86 86 86 86 86 86 85 83 83 84 84 84 84 84 83 82 82 82 82 82 81 82 84 85 85 85 79 84 57 55 53 55 56
80 80 80 80 80 82 82 78 79 80 79 81 82 81 80 80 78 78 79 80 83 83 84 84 84 84 84 83 84 85 85 85 84 85 86 85 84 83 82 82 83 83 82 82 81 81 81 81 81 81 80 79 80 82 83 83 81 72 72 55 54 53 54
80 80 81 82 82 80 81 78 77 77 78 79 79 79 79 79 78 79 79 80 81 83 84 84 84 83 83 83 84 84 85 85 85 86 85 84 83 83 82 81 82 82 81 81 81 80 80 79 79 79 79 79 78 79 81 80 82 72 66 63 54 53 51
78 79 79 77 78 79 78 77 76 77 77 78 79 79 79 79 78 79 78 80 81 83 83 83 83 83 82 83 83 84 85 85 85 85 85 84 83 82 82 81 81 80 80 80 80 79 79 77 78 78 78 79 78 78 79 81 73 69 60 55 54 55 54
77 77 78 78 77 78 77 77 77 76 76 77 78 79 80 79 79 77 78 79 81 81 83 83 82 81 82 82 83 84 86 84 84 84 84 83 83 83 82 82 81 80 79 80 79 80 79 77 78 78 78 78 78 78 78 73 71 70 69 67 63 58 54
74 75 74 74 75 77 75 75 75 75 76 75 77 78 79 79 79 78 79 79 80 81 82 82 81 81 81 81 82 83 84 84 83 83 83 82 81 82 82 82 81 80 78 79 80 79 78 78 78 77 78 78 79 76 70 68 68 67 67 66 67 67 64
72 73 74 74 75 76 74 74 73 74 74 74 75 77 78 78 78 79 79 80 81 81 81 81 81 81 81 82 82 82 82 82 85 83 81 80 81 81 82 82 81 81 78 78 80 79 78 78 78 78 78 77 76 71 69 66 64 64 65 65 66 66 64
73 73 73 73 74 75 73 73 73 73 73 73 75 76 76 77 78 79 79 79 80 79 80 80 80 81 81 81 81 80 81 81 81 79 74 69 63 58 57 64 76 70 64 63 63 76 81 77 75 75 75 75 73 71 67 66 64 63 58 60 56 60 64
72 72 72 74 74 73 73 73 73 72 72 72 73 74 75 76 77 78 79 79 80 79 78 79 80 80 80 80 79 80 80 80 78 75 74 72 69 67 65 57 49 58 67 63 59 55 58 62 71 73 71 68 68 69 69 66 65 54 48 49 49 50 50
71 71 72 73 72 72 72 72 73 73 72 73 74 74 74 75 76 76 78 78 78 79 78 77 76 75 76 76 77 76 79 78 75 74 71 71 70 69 67 65 61 48 48 55 56 53 50 49 51 56 61 67 64 59 56 55 49 45 46 46 47 48 48
72 72 73 73 72 72 72 72 72 72 74 74 74 74 74 75 76 76 77 77 77 78 77 76 76 75 75 75 75 74 74 75 74 72 71 71 71 71 69 68 65 62 51 46 50 52 50 50 50 50 52 56 59 61 57 49 45 45 46 47 48 48 47

ECMWFFLT1_sfc_temp_072.txt.gz
Temp
84 84 84 84 84 84 84 84 84 84 83 83 83 83 84 83 82 81 81 80 79 79 79 79 79 79 79 79 80 80 80 79 79 78 78 78 78 79 78 78 78 77 78 78 78 79 80 80 80 80 80 80 80 79 79 79 78 79 78 77 77 76 76
83 83 83 84 84 84 84 84 84 84 84 84 84 83 84 83 82 81 81 80 80 79 79 79 79 79 79 79 80 79 79 79 79 79 79 78 78 78 79 79 79 77 77 79 79 79 79 80 80 80 80 80 80 80 80 79 78 78 78 77 77 76 76
83 83 83 83 83 83 83 84 84 85 84 85 85 84 84 82 82 82 81 80 80 80 80 79 79 79 80 80 79 79 79 79 79 79 78 79 79 79 79 79 79 79 79 79 79 79 80 80 80 80 80 80 80 79 80 79 79 79 78 77 77 77 75
83 83 84 84 84 84 84 84 84 86 86 85 85 85 84 83 83 83 82 82 80 80 79 80 80 80 79 79 79 79 79 79 80 80 80 80 79 80 79 79 79 80 78 78 80 81 81 80 80 79 81 79 80 80 80 80 80 79 79 78 77 77 76
83 84 84 83 83 83 83 83 84 85 86 86 86 85 85 84 84 83 83 83 82 81 81 81 82 81 80 80 80 79 79 79 79 80 80 80 80 80 79 79 80 80 80 80 79 79 79 80 80 79 79 79 80 79 79 80 80 79 79 78 77 77 77
82 82 83 83 83 83 84 84 85 86 86 86 86 85 86 85 85 84 83 82 82 82 82 81 81 81 80 80 80 80 79 79 80 80 80 80 80 80 80 80 80 80 80 80 80 80 80 80 80 80 80 80 80 80 80 80 80 80 79 78 78 77 76
83 83 83 84 84 84 84 84 85 86 87 88 87 87 86 86 85 85 84 83 83 81 81 81 81 81 80 80 80 79 79 79 79 79 80 80 80 80 80 80 80 81 82 81 79 80 80 80 80 80 80 80 80 80 80 79 79 79 79 78 78 77 77
84 84 84 84 85 85 85 84 85 86 87 87 87 86 86 86 86 85 84 84 83 83 82 82 81 81 81 81 80 80 80 80 80 80 80 80 80 80 80 80 80 81 81 81 81 80 81 80 81 81 81 81 80 80 80 80 79 80 79 78 78 78 78
85 85 85 85 85 86 86 85 85 85 85 85 85 85 86 86 86 85 84 84 84 83 82 83 82 82 81 81 80 80 80 80 80 80 80 80 80 80 81 81 81 81 81 81 82 81 81 81 81 81 81 80 80 79 80 80 80 80 79 79 78 78 78
84 84 84 86 86 87 86 85 84 84 83 83 83 83 85 85 86 86 85 84 84 83 83 83 83 83 81 81 80 80 80 79 80 80 80 80 80 80 81 82 82 81 81 82 82 82 82 82 82 81 80 80 80 79 80 80 80 80 80 79 79 78 78
84 83 83 84 84 84 84 84 82 82 82 82 83 84 84 85 85 86 85 85 84 84 84 84 84 83 82 81 81 80 80 79 80 80 80 80 81 81 82 82 83 82 81 82 82 82 82 81 81 81 80 80 80 80 80 80 80 80 80 80 80 79 79
82 82 81 83 83 82 82 82 82 81 81 82 83 84 83 84 85 86 86 85 86 85 84 84 84 83 82 82 81 80 79 79 79 79 80 80 81 81 82 82 82 82 82 82 82 82 83 82 81 81 81 81 81 81 80 80 80 80 80 80 80 80 80
82 81 81 83 82 83 82 80 80 81 81 83 84 84 84 85 86 86 85 85 86 86 85 84 84 83 82 82 81 80 79 79 79 80 80 80 81 82 82 82 83 83 83 83 83 83 83 83 82 81 81 81 81 81 81 80 81 80 80 80 80 80 79
82 82 83 83 82 81 80 80 81 81 81 82 83 84 85 86 86 86 85 85 86 86 86 86 84 83 82 82 81 80 79 80 80 80 80 81 81 81 82 82 82 82 83 83 83 83 83 83 82 82 82 82 81 82 82 81 80 80 80 80 80 80 79
82 82 82 82 81 81 81 80 80 80 81 82 84 84 84 85 86 86 86 86 86 87 86 85 84 83 82 81 80 80 80 80 80 81 80 81 80 80 81 82 82 82 82 82 83 84 84 84 84 82 81 82 81 81 82 81 80 81 81 80 80 80 80
83 83 83 82 82 82 81 81 81 81 81 81 83 83 84 84 84 85 86 86 87 86 87 85 83 82 82 81 81 81 80 80 80 80 80 80 80 80 81 81 82 82 82 82 83 83 83 83 83 83 82 81 81 81 81 81 81 78 72 73 81 80 81
84 84 83 83 82 82 82 81 82 81 81 81 82 83 84 84 85 86 87 87 87 86 87 86 83 83 82 81 81 81 81 80 80 80 79 80 80 80 80 81 81 81 81 81 82 82 82 82 83 83 83 82 82 81 81 81 81 72 68 68 70 79 80
84 83 84 84 84 83 81 81 80 80 81 82 83 84 84 84 85 85 86 87 87 88 88 86 84 83 82 82 82 81 81 80 80 79 79 80 80 80 80 81 81 81 81 81 81 81 83 82 82 82 83 83 83 82 81 81 75 69 67 67 67 69 80
84 85 84 84 83 82 82 83 82 82 83 84 85 85 86 86 86 85 86 86 87 88 88 86 85 83 82 82 82 82 81 81 80 80 80 80 80 80 80 80 80 80 80 81 82 82 81 81 82 82 82 83 82 82 82 82 73 68 66 65 66 65 72
84 85 85 86 85 84 84 83 83 83 84 85 86 88 88 88 87 87 88 89 88 88 87 86 85 84 83 82 82 82 82 81 81 80 80 80 80 80 80 80 80 81 82 82 81 81 81 81 81 82 81 82 82 82 83 82 74 67 64 64 64 64 67
81 81 83 83 82 83 82 82 82 82 82 84 86 87 88 87 88 88 88 88 87 88 86 86 85 84 83 82 82 82 82 81 81 80 80 80 80 80 80 80 80 80 82 82 82 81 81 81 81 81 82 83 83 83 82 83 72 65 63 62 62 63 64
79 81 82 82 82 81 80 82 82 83 83 84 85 86 88 87 88 87 87 88 88 87 87 86 85 84 83 82 83 83 82 82 81 81 81 80 80 80 80 80 80 80 81 82 83 83 83 82 82 82 82 82 83 83 82 84 70 64 63 61 61 62 69
82 81 80 79 83 81 81 83 83 84 83 82 84 86 87 87 87 87 87 87 88 87 87 86 85 84 83 83 83 83 83 83 82 81 81 81 80 80 80 80 80 81 81 81 82 82 82 82 83 83 83 83 82 82 83 84 73 63 61 60 60 61 72
78 78 78 78 78 79 79 79 81 82 84 82 83 85 86 86 86 85 84 86 87 87 86 86 85 84 83 83 84 84 84 83 83 81 81 81 80 80 81 82 82 82 82 81 81 82 83 83 83 83 83 83 82 83 83 83 76 61 59 58 59 64 74
79 79 78 78 78 77 77 77 79 80 79 80 80 80 81 85 86 85 84 84 86 86 85 85 85 84 83 84 85 85 85 84 83 82 82 81 81 82 81 81 81 82 82 82 83 83 83 83 83 83 83 84 83 79 81 84 77 59 59 57 57 63 74
77 78 79 79 79 77 77 78 79 78 77 75 74 76 78 80 83 84 84 83 85 85 84 85 85 85 84 84 85 85 84 84 83 83 83 82 82 83 82 82 82 82 82 82 83 83 83 83 82 82 82 83 83 83 82 82 82 66 58 57 57 59 73
78 78 78 78 78 80 78 77 77 76 76 75 76 76 76 77 79 79 79 79 81 82 84 85 84 82 82 83 84 84 84 85 84 84 84 84 83 83 83 83 82 82 82 82 82 82 81 82 81 81 82 82 82 83 82 82 81 71 56 56 56 57 63
78 78 79 79 80 79 77 78 77 77 78 76 77 76 75 75 75 74 75 75 77 81 83 80 80 80 81 82 83 84 85 85 84 85 84 84 83 82 81 82 82 82 81 82 81 80 80 80 80 81 81 80 80 82 81 81 78 78 58 57 55 56 57
74 75 75 76 76 78 78 75 75 75 75 76 76 76 74 74 75 75 75 74 77 79 79 79 79 79 80 81 82 83 84 84 84 84 84 84 83 82 81 81 81 81 81 80 80 79 79 79 79 79 78 77 77 79 80 79 79 71 70 57 55 55 55
75 75 75 76 76 76 76 74 74 73 74 74 75 75 75 74 74 75 75 75 76 76 79 79 79 79 79 80 81 82 83 83 84 84 84 84 83 82 81 80 81 81 80 80 80 79 78 78 78 78 77 77 75 77 78 78 75 67 63 63 54 53 53
73 73 74 73 74 75 74 72 72 72 73 74 74 75 75 75 72 73 74 73 75 75 78 79 79 79 79 79 80 81 83 83 83 84 84 83 83 81 81 80 80 80 79 79 79 79 78 77 77 77 77 75 75 74 71 69 68 66 59 57 54 55 52
72 73 73 73 73 73 72 72 72 72 72 73 73 74 75 75 74 73 74 75 76 77 78 79 78 78 79 79 79 80 82 82 82 83 83 82 82 82 82 81 80 80 79 79 79 79 78 77 76 76 76 75 76 73 68 67 67 66 66 64 61 57 52
70 70 70 70 72 73 71 71 71 71 71 71 72 73 74 75 75 75 75 75 75 76 77 78 78 79 78 78 79 80 81 81 81 81 81 80 81 81 81 81 81 80 78 79 79 78 77 77 75 75 75 75 74 69 66 66 65 64 65 64 65 64 61
69 70 70 70 71 72 70 70 69 69 69 70 71 72 74 74 75 75 75 76 76 75 77 77 77 78 78 79 79 79 80 80 83 81 78 77 77 78 79 80 80 79 78 78 78 77 77 76 76 76 76 75 69 67 66 65 64 63 64 64 64 64 64
68 68 69 70 70 71 69 68 69 68 69 70 70 72 74 74 74 74 75 75 75 74 76 76 77 77 77 78 78 78 79 79 79 76 70 62 58 53 53 56 64 69 69 65 69 78 80 77 77 77 76 74 70 68 66 65 64 64 58 60 57 63 64
67 67 67 69 69 69 70 70 68 68 68 69 70 71 72 73 74 74 75 74 75 74 75 75 76 76 77 77 77 77 77 76 75 72 69 66 62 61 59 55 48 51 62 65 60 53 61 66 73 74 72 69 67 68 70 68 67 54 48 47 46 47 48
66 67 67 68 68 68 68 67 69 67 69 69 69 70 70 71 72 73 73 74 73 74 73 74 75 75 75 76 76 76 75 74 71 69 67 67 66 65 64 63 60 48 47 52 54 52 49 49 52 58 63 69 66 59 57 57 51 46 46 46 46 46 45
68 67 68 68 67 67 67 67 67 67 68 68 69 69 70 70 71 71 73 73 73 73 72 72 73 72 72 72 72 72 72 71 69 68 68 67 68 68 66 65 64 63 51 46 49 49 47 48 49 50 52 55 59 60 57 50 46 45 46 47 46 46 44

ECMWFFLT1_sfc_temp_075.txt.gz
Temp
82 82 82 82 82 82 82 82 82 82 82 82 82 82 82 82 81 80 79 78 78 78 78 78 78 78 78 78 79 79 79 79 78 78 77 77 77 77 76 77 76 76 76 76 76 77 78 78 77 78 77 77 77 77 76 77 77 77 76 76 75 74 74
81 82 82 82 82 82 82 82 82 83 83 82 82 82 82 81 80 80 79 79 79 78 78 78 78 78 78 78 79 78 78 78 78 78 78 77 77 77 77 77 76 76 76 77 77 77 77 77 78 77 77 77 77 77 77 77 77 76 76 76 75 74 74
81 82 82 82 82 82 82 82 82 83 83 83 83 82 82 81 81 80 80 79 78 78 79 78 78 78 79 79 78 78 78 78 78 78 77 77 77 78 78 77 77 77 76 76 76 77 78 77 77 77 77 77 77 77 77 77 77 77 76 76 75 75 73
81 82 82 83 83 83 83 83 83 84 84 84 84 83 82 81 82 81 81 80 79 79 78 78 79 79 79 78 78 78 78 78 78 78 78 78 77 78 77 77 77 77 75 76 77 78 78 78 77 77 79 77 77 77 77 77 77 76 76 76 75 75 75
81 82 83 82 82 81 82 82 83 83 84 85 85 83 83 83 82 82 81 81 81 79 79 79 80 79 79 79 79 78 78 78 78 78 79 79 78 78 77 77 77 77 78 77 76 77 77 77 77 77 77 77 77 77 77 77 77 77 76 76 75 75 74
81 81 81 82 82 82 83 83 84 84 84 84 84 83 84 83 83 82 82 81 81 81 80 80 79 79 78 79 79 79 78 78 78 78 78 78 78 78 77 78 78 78 77 77 77 77 77 77 77 77 77 78 78 78 77 77 77 77 76 76 76 75 75
81 82 82 82 83 83 83 83 84 85 85 85 85 85 84 84 83 83 83 81 81 80 80 79 80 79 79 79 79 78 78 78 78 78 79 78 78 78 78 78 78 78 79 77 76 77 77 77 78 78 78 78 78 78 77 77 77 77 77 76 75 75 75
83 82 82 83 83 84 84 84 84 85 85 85 85 84 84 84 84 83 82 82 82 82 81 80 79 79 79 79 79 78 78 78 79 79 78 78 78 78 78 78 78 78 78 78 78 77 78 78 78 78 78 78 78 78 78 77 77 77 77 76 76 76 76
83 83 83 84 84 84 84 84 84 84 83 83 83 84 84 84 84 83 83 82 82 82 81 82 81 80 80 79 78 78 79 79 78 78 78 78 78 78 78 79 78 79 78 78 79 78 78 78 78 78 78 78 78 77 77 77 77 78 77 77 76 76 76
82 82 83 84 85 85 85 84 83 82 82 82 82 82 83 84 84 84 83 83 83 82 82 82 82 81 80 79 79 79 78 78 78 78 78 78 78 78 79 80 79 79 78 79 79 78 78 78 78 78 77 77 77 77 77 77 77 77 77 77 77 76 76
82 82 82 82 83 83 83 83 81 80 81 81 81 83 83 83 83 84 83 83 83 82 83 82 82 82 80 79 79 79 78 78 78 78 78 78 79 79 79 80 80 79 79 79 79 79 78 78 78 78 77 77 77 77 77 78 78 77 77 78 78 77 77
80 81 80 81 81 81 81 81 81 80 81 81 82 83 82 82 83 84 84 83 84 83 83 83 83 82 81 80 79 78 78 78 78 78 78 78 79 79 80 80 80 80 80 79 79 79 80 78 78 78 77 78 78 78 78 78 78 78 78 78 78 77 77
80 80 80 80 80 81 80 79 79 80 80 82 82 83 83 83 83 84 83 83 84 84 83 83 82 81 81 80 80 78 78 78 78 78 79 79 79 79 80 80 80 80 80 80 80 80 79 79 79 78 78 78 78 78 78 78 78 78 78 78 78 78 77
80 80 80 80 80 79 78 79 79 79 80 81 82 82 83 84 84 84 83 83 83 84 84 83 82 81 80 80 79 78 78 78 79 79 79 79 79 79 79 80 80 80 80 80 80 80 80 80 79 79 79 79 79 79 79 78 78 78 78 78 78 78 77
78 79 79 79 79 79 79 78 78 79 80 81 82 82 82 83 83 83 83 84 83 84 83 83 81 80 80 79 78 78 78 78 79 79 79 79 78 78 79 79 79 79 80 80 80 80 81 81 81 80 79 79 79 79 79 78 78 78 79 78 78 78 78
78 79 78 79 79 79 79 79 79 79 79 80 80 81 82 82 82 83 83 83 84 83 84 83 81 80 79 79 78 78 78 78 78 78 78 78 78 78 78 79 79 79 79 79 80 80 80 80 80 80 80 79 79 79 79 79 79 76 70 71 79 78 78
78 79 79 80 79 80 80 79 79 78 78 79 80 81 82 82 82 83 84 84 84 83 84 83 80 80 79 79 79 79 78 78 78 78 77 78 78 78 78 78 79 79 78 78 79 79 79 80 79 80 80 80 79 78 78 79 79 71 67 66 68 77 78
78 78 78 79 80 80 79 78 78 77 78 80 81 81 82 81 82 82 83 84 84 84 84 83 81 80 79 79 79 79 78 78 78 77 77 77 77 78 78 78 78 78 78 78 78 78 79 79 79 79 80 80 80 79 79 79 73 68 66 66 65 67 78
79 79 79 79 80 79 79 80 79 79 80 81 82 82 83 83 82 82 83 83 84 85 84 83 82 80 79 80 79 79 78 78 78 77 77 77 78 78 78 77 77 77 77 78 78 79 78 78 79 79 79 80 79 79 80 80 72 67 65 65 64 64 69
80 80 81 81 81 81 81 80 80 81 81 82 83 84 84 84 83 83 84 85 84 84 83 82 82 81 80 79 79 79 79 78 78 77 77 78 78 78 77 77 77 78 79 79 78 78 78 78 78 79 78 79 79 79 80 80 73 66 64 63 63 63 65
78 79 80 80 80 81 80 80 80 80 80 81 83 83 83 83 83 83 83 84 83 84 83 82 82 80 80 79 80 79 79 78 78 78 78 78 78 77 77 77 77 78 78 79 78 78 77 78 78 78 79 79 80 80 80 80 70 65 62 61 61 61 63
78 80 80 80 80 79 78 79 79 80 81 83 83 83 84 84 84 84 84 84 84 83 83 82 81 81 80 80 80 80 80 79 78 78 78 78 78 77 77 77 77 77 78 78 79 79 79 79 79 79 79 79 80 80 79 81 69 64 62 60 60 60 67
77 79 80 79 81 80 80 81 81 82 81 81 83 83 84 85 85 84 84 83 84 83 83 82 81 81 80 80 81 81 80 80 79 78 78 78 78 77 77 77 77 78 79 78 78 79 79 79 79 79 79 79 79 79 79 81 72 63 60 59 58 60 70
74 73 74 74 74 75 75 75 77 78 81 81 82 84 85 85 85 83 82 83 84 83 83 82 81 81 81 81 82 81 81 81 80 79 79 78 78 78 78 79 79 79 79 78 78 78 79 80 79 80 80 80 79 80 79 80 74 62 59 58 58 63 71
74 74 73 74 76 76 76 76 77 78 77 76 77 76 79 82 84 83 82 82 83 84 83 82 82 82 81 82 82 82 82 82 81 80 80 79 79 80 79 79 79 80 80 80 79 79 80 80 79 80 80 80 80 77 79 80 76 63 59 57 56 63 73
74 74 75 75 75 75 76 77 78 76 75 75 74 75 79 81 82 82 82 81 83 83 83 83 83 83 83 84 83 83 82 82 81 81 81 80 80 80 80 80 80 80 79 79 80 79 80 80 80 79 79 80 80 81 80 80 80 74 59 57 55 58 72
74 75 75 75 76 78 75 75 75 74 74 73 74 74 77 80 80 80 80 80 80 81 84 84 84 84 83 83 84 83 83 83 82 81 82 82 81 81 81 81 80 80 79 79 79 79 78 79 79 79 79 80 80 80 81 82 80 77 59 56 55 56 62
74 75 76 77 77 76 75 75 74 73 73 73 74 74 74 76 78 77 76 77 79 82 85 83 83 83 83 82 83 83 83 83 83 83 82 82 82 80 79 80 80 80 79 80 79 78 78 78 78 79 79 79 79 79 80 81 76 82 62 57 55 55 56
71 71 72 73 73 75 75 73 72 72 72 73 74 74 74 74 74 73 73 73 75 76 78 77 78 80 80 81 81 82 83 83 82 82 82 82 81 80 79 79 79 79 79 78 78 77 77 77 77 77 77 77 76 77 79 79 78 70 72 58 55 54 54
70 71 72 73 73 73 74 72 72 71 71 72 73 73 74 73 73 73 71 73 72 72 75 75 77 77 78 79 80 81 82 82 83 83 83 82 81 80 79 79 79 79 78 78 78 77 76 76 76 76 76 76 74 75 76 77 78 72 70 68 56 55 54
69 70 70 70 71 72 72 71 71 71 71 71 72 72 73 73 73 73 73 72 72 72 73 74 75 76 77 78 79 79 81 82 82 82 82 82 81 80 79 79 79 78 78 77 77 77 76 76 76 76 76 75 75 75 75 71 67 65 62 63 59 55 54
69 70 70 71 70 71 71 71 71 71 71 70 71 72 73 72 72 72 71 72 74 73 72 73 74 74 76 77 78 79 80 80 81 81 82 81 81 81 80 80 79 78 77 77 77 77 76 76 75 75 75 75 75 75 70 65 65 64 63 62 61 57 54
68 68 68 68 70 71 70 70 70 70 70 69 69 71 72 72 72 71 71 71 73 74 72 72 73 75 75 75 76 77 78 79 79 79 80 80 80 80 80 80 79 78 77 77 77 76 76 76 75 74 74 74 74 69 64 65 63 64 63 63 62 61 59
66 67 68 68 69 70 69 69 68 68 68 68 67 68 71 71 71 71 71 71 72 73 72 72 73 73 74 75 76 76 78 78 81 80 78 78 78 78 79 79 79 78 77 77 77 76 76 76 75 74 74 74 71 66 65 63 64 64 65 64 64 63 63
66 65 66 67 68 69 68 68 68 67 68 67 67 67 69 69 70 71 71 72 72 72 71 72 73 73 72 73 74 75 77 77 78 78 73 62 56 53 53 56 62 68 72 68 69 75 79 77 76 76 77 76 70 67 65 65 64 66 61 66 60 64 65
66 66 66 66 67 67 68 68 67 67 68 67 67 68 68 69 70 70 71 72 72 72 71 73 72 72 72 73 74 74 75 76 75 71 68 66 60 58 56 52 47 49 61 64 58 54 55 64 76 78 76 73 69 69 71 69 69 53 49 49 50 51 53
64 66 67 66 67 67 67 67 68 68 68 67 67 67 67 68 69 70 71 71 71 71 69 72 71 71 71 73 73 73 75 73 70 68 66 65 65 64 63 62 58 46 45 50 50 48 50 58 61 62 64 71 66 57 55 54 49 46 45 45 45 46 46
65 65 66 66 65 65 66 66 66 66 66 65 66 66 67 68 69 69 70 70 70 70 68 70 71 70 70 72 71 72 71 70 68 67 66 65 66 66 65 64 62 61 50 45 46 47 44 46 49 52 55 57 59 59 57 51 47 46 46 45 45 45 44

ECMWFFLT1_sfc_temp_078.txt.gz
Temp
79 79 79 80 79 80 79 79 79 80 80 80 79 80 80 80 79 78 78 77 77 76 77 77 77 77 77 77 78 78 78 78 78 77 77 77 77 77 76 76 76 75 76 76 76 76 77 78 78 78 78 78 78 77 77 78 78 78 78 78 78 77 76
79 79 80 80 79 79 80 80 80 81 81 81 80 80 80 80 79 78 78 78 77 77 77 77 77 77 77 77 78 78 77 78 78 78 78 77 77 76 77 76 76 75 75 77 77 77 77 78 78 78 78 78 78 78 78 78 78 78 78 77 77 76 76
79 80 80 80 80 80 79 80 80 81 81 82 81 81 80 79 79 79 78 78 77 77 78 78 78 78 78 78 77 77 78 78 78 78 77 78 77 78 78 77 77 76 77 77 77 77 78 78 78 78 78 78 78 77 77 77 78 78 78 77 77 77 76
79 79 80 81 81 81 81 80 80 82 83 83 82 82 81 79 80 80 79 79 78 78 77 78 78 78 78 78 77 77 77 78 78 78 79 79 78 78 77 77 76 77 76 76 78 78 78 78 78 77 78 77 78 78 78 78 78 78 78 77 77 77 77
79 80 81 80 81 80 80 80 81 81 82 84 83 82 82 81 81 81 80 80 80 79 79 79 80 79 79 79 79 78 78 78 78 78 79 79 78 78 77 77 77 77 77 78 77 77 77 77 77 77 77 78 78 78 78 78 78 78 78 77 77 77 77
79 78 79 80 81 81 81 82 82 83 83 83 83 82 83 83 83 82 81 80 80 81 80 79 79 79 78 79 79 79 78 78 78 78 78 78 78 77 77 78 78 78 78 77 78 78 78 78 78 78 78 78 78 78 78 78 78 78 78 77 77 77 77
80 79 80 81 81 82 82 82 83 84 84 85 84 84 84 84 83 82 82 81 81 79 79 79 80 79 79 79 78 78 78 78 78 78 79 78 78 78 77 78 78 78 79 78 77 78 78 78 78 78 78 79 78 78 78 77 77 78 77 77 77 77 77
80 80 80 81 82 83 83 83 83 84 84 84 84 83 83 84 83 83 82 82 81 81 80 80 79 79 79 79 79 78 78 78 79 79 78 78 78 78 78 78 78 78 78 77 77 78 78 78 79 78 78 79 78 78 78 78 78 78 78 77 76 77 77
81 81 81 82 83 84 84 83 83 83 82 82 83 82 83 83 83 83 82 82 82 81 81 81 81 80 79 79 78 78 79 79 78 78 78 78 78 79 79 79 78 78 78 78 79 78 78 78 78 78 78 78 78 78 78 78 78 78 78 77 77 77 77
80 79 80 83 83 84 83 83 82 81 80 80 80 80 81 82 83 83 83 83 82 81 81 82 82 81 79 79 79 79 78 78 78 79 79 78 79 79 79 80 79 79 78 79 79 78 78 78 78 78 77 77 77 78 78 78 78 78 78 78 78 77 77
80 80 80 81 81 81 81 81 79 79 80 79 80 81 81 82 82 83 82 83 82 82 83 82 82 81 80 79 79 79 78 78 79 78 78 79 79 79 80 80 80 79 79 79 79 79 78 78 78 78 77 77 78 78 78 78 78 78 78 78 78 78 78
77 78 78 79 80 80 79 79 79 79 79 79 81 81 80 80 82 83 82 82 83 83 82 82 83 82 80 80 79 78 78 78 78 78 78 79 79 80 80 80 80 80 80 80 79 79 79 78 78 78 77 78 78 78 78 78 78 78 78 79 79 78 78
77 77 78 79 78 79 78 77 78 78 78 80 81 81 81 82 82 83 81 82 83 83 83 82 81 80 80 80 80 78 78 78 78 78 79 79 79 80 80 80 81 81 80 80 80 80 79 79 78 78 79 78 79 79 79 78 79 78 78 78 79 78 78
78 78 79 78 78 77 77 77 78 78 78 80 81 81 82 83 83 82 81 81 82 83 83 83 81 80 80 79 78 77 77 78 78 78 78 79 78 79 79 80 80 79 80 80 79 80 80 80 79 79 79 79 79 79 79 78 78 78 78 78 79 79 78
75 78 78 78 77 77 77 77 76 77 78 79 80 80 81 82 82 81 81 82 82 83 83 82 80 80 80 79 78 77 78 78 78 78 78 79 78 78 78 79 79 79 79 79 80 81 81 81 81 79 78 79 79 79 79 79 78 79 79 78 78 79 79
76 78 78 77 77 78 77 78 77 77 78 78 79 79 81 80 80 81 81 82 82 82 83 81 80 79 79 79 78 78 78 78 78 77 77 77 77 77 78 79 79 80 79 79 80 80 79 80 80 80 79 78 78 79 79 79 79 75 69 71 79 78 79
76 77 77 78 77 78 78 77 78 77 77 77 78 79 80 80 81 82 83 83 83 82 82 82 79 79 79 78 78 78 78 77 77 77 76 77 77 77 77 78 78 78 78 78 78 79 78 79 79 80 80 79 79 78 78 79 79 70 65 65 67 77 79
75 76 77 78 78 78 77 77 77 77 78 79 80 80 80 79 80 81 82 82 83 83 83 82 80 79 78 78 78 78 77 77 77 76 76 77 77 77 77 78 78 77 77 78 78 78 79 79 79 79 80 80 80 80 79 79 72 66 65 65 64 67 78
76 77 77 77 77 77 78 79 79 78 79 80 81 81 82 81 81 80 81 81 82 83 82 82 81 79 78 78 78 77 77 77 77 77 77 77 77 77 77 77 77 77 77 78 78 78 77 77 78 78 79 79 79 79 80 80 71 65 64 64 63 63 70
76 77 78 79 79 79 79 79 79 80 81 81 82 84 84 83 82 82 83 83 82 82 81 80 80 79 78 78 78 78 77 77 77 77 77 77 77 77 77 77 76 78 79 79 78 77 77 78 78 78 78 78 78 78 80 79 71 65 63 62 62 62 65
72 74 76 77 77 79 78 78 78 79 79 81 83 82 83 81 82 81 82 82 81 81 79 80 79 78 78 78 78 78 78 77 77 77 77 77 77 77 77 77 77 77 78 79 78 77 77 77 77 78 78 79 80 79 79 80 69 64 61 60 60 60 63
72 74 76 77 77 77 77 79 78 79 79 81 82 83 83 82 83 83 82 83 82 81 80 79 78 78 78 78 78 78 78 78 77 77 77 77 77 77 76 76 76 76 77 78 79 79 79 78 79 78 78 79 79 79 79 81 68 63 61 59 59 60 68
74 75 76 76 79 79 78 80 79 80 79 80 82 82 83 83 83 83 82 82 82 81 81 80 78 78 78 78 79 79 79 79 78 77 77 77 77 76 77 76 76 77 78 77 78 78 78 78 79 79 79 79 79 78 78 80 71 62 59 58 58 60 71
74 75 76 76 74 74 74 75 76 78 80 79 80 82 82 83 83 81 80 81 81 81 81 80 79 78 78 78 79 80 79 79 78 78 77 77 77 77 78 78 78 78 78 78 78 78 79 79 79 79 79 79 79 80 79 79 73 61 58 57 57 63 72
71 74 76 76 76 75 75 75 77 78 77 78 78 78 80 82 82 81 80 80 81 81 80 79 79 79 79 79 80 80 80 80 79 79 79 78 78 79 78 78 78 79 79 79 79 79 79 79 79 79 79 81 80 75 78 80 75 61 58 57 56 63 74
70 71 72 74 76 76 76 77 78 77 77 78 77 78 80 81 81 80 79 80 81 80 79 79 80 80 81 81 81 80 80 80 79 79 79 78 79 79 79 79 80 79 79 79 79 79 80 79 79 78 79 80 80 81 80 80 80 72 57 57 55 58 73
72 72 72 74 75 78 76 77 78 78 79 77 76 79 81 81 80 78 78 78 78 79 80 81 81 80 80 81 81 81 81 81 80 80 80 80 80 80 80 80 80 80 79 79 79 79 78 79 79 79 79 80 80 81 81 82 80 76 58 56 55 56 63
73 74 75 75 76 75 74 74 73 73 74 74 77 79 80 79 78 78 77 77 78 79 82 81 80 81 81 80 81 82 82 81 81 81 81 81 80 79 78 79 80 79 79 79 78 77 77 77 77 78 79 79 80 80 80 81 75 82 62 57 55 55 56
70 70 71 72 73 75 74 72 72 72 72 74 75 77 78 78 77 77 77 77 78 79 80 81 81 81 80 80 81 81 81 81 81 81 82 81 80 79 78 79 79 79 78 78 77 77 77 76 77 77 77 78 78 79 80 79 78 69 73 58 55 54 54
70 71 71 73 74 73 73 72 72 72 72 73 74 75 76 77 76 76 76 75 74 74 78 79 80 80 80 80 80 81 81 82 82 82 82 81 80 80 79 78 79 78 78 78 77 77 76 76 77 76 77 77 77 78 79 79 79 71 69 67 55 54 53
68 69 70 70 71 72 72 71 71 71 72 73 73 74 75 76 76 76 74 73 74 74 76 77 78 79 79 80 80 80 82 82 82 82 82 82 81 79 79 79 79 77 78 77 77 77 76 76 76 76 76 76 76 77 78 78 77 79 71 66 59 55 54
68 69 70 71 70 71 71 71 71 71 70 71 72 73 74 74 75 74 73 73 75 75 74 75 77 78 78 79 80 80 82 81 82 82 82 82 81 81 80 80 79 78 77 77 77 77 77 76 76 76 76 76 77 77 77 75 76 74 73 69 67 61 56
66 67 67 67 69 70 69 70 70 70 70 69 70 72 72 72 73 73 73 73 73 74 74 74 75 76 76 77 79 80 80 81 81 81 81 80 81 81 81 80 79 78 77 77 77 77 77 77 76 76 76 76 77 77 75 73 72 72 71 70 72 72 67
65 67 67 68 69 69 68 68 68 69 69 68 69 70 71 71 71 72 72 73 73 73 73 73 74 75 75 76 77 78 79 80 81 81 80 80 81 80 79 80 80 79 78 77 77 78 77 77 77 76 77 76 77 76 73 71 71 71 72 71 71 71 68
65 66 67 67 67 68 67 68 68 68 68 67 68 69 69 70 70 71 72 72 72 72 73 73 74 74 74 74 75 76 77 78 79 80 80 76 68 62 62 69 77 79 79 78 79 80 79 78 79 78 79 79 78 74 72 72 70 71 65 72 63 69 69
65 66 67 67 68 67 68 68 68 68 67 67 68 69 69 69 69 70 71 72 72 73 75 74 73 73 73 73 75 75 76 76 77 77 75 71 66 63 58 50 44 49 69 74 62 62 64 66 78 80 80 79 77 77 75 73 75 62 56 54 54 54 57
63 64 66 67 67 67 67 68 69 68 67 67 68 68 69 69 69 70 70 71 71 72 72 73 72 72 72 73 74 74 76 76 75 73 71 69 67 66 63 62 58 46 43 48 51 52 55 54 56 62 66 75 75 63 54 58 52 50 50 49 49 49 48
64 65 66 67 66 66 66 67 66 65 65 66 68 68 69 69 69 69 70 70 70 70 71 73 73 72 72 73 73 73 74 74 72 71 69 68 69 69 68 66 66 63 48 43 46 45 42 46 53 54 56 60 64 62 60 51 48 47 47 46 46 46 45

ECMWFFLT1_sfc_temp_084.txt.gz
Temp
96 95 94 93 92 92 92 91 90 91 90 90 90 91 91 91 90 89 88 86 85 85 85 85 85 86 85 86 86 86 87 87 87 87 87 88 89 89 89 90 90 89 92 92 91 91 91 91 92 93 92 91 91 91 90 90 89 90 89 89 89 90 90
96 96 96 96 94 93 92 91 91 91 91 91 90 90 91 91 89 89 88 87 86 86 85 86 85 86 86 86 87 86 86 86 87 87 88 88 88 89 90 89 90 89 90 92 92 92 92 92 92 91 91 91 91 90 91 90 89 89 90 89 89 89 89
97 97 97 96 94 94 92 93 91 92 91 92 92 91 91 89 89 89 88 88 86 86 87 86 86 87 87 86 86 86 87 87 87 87 87 89 89 92 91 90 90 91 92 92 92 92 92 92 91 91 91 91 92 91 90 90 89 90 90 89 89 90 88
96 97 98 97 95 94 94 93 92 93 94 93 92 92 91 89 90 90 90 89 87 87 86 87 87 87 87 86 86 86 87 87 87 89 89 90 90 90 90 90 90 92 91 92 93 93 94 92 92 90 90 90 90 92 91 91 91 90 90 89 90 90 89
97 98 99 97 96 94 94 94 93 92 94 95 94 92 92 92 92 92 91 91 91 88 89 89 91 89 88 88 89 88 87 87 87 88 89 90 90 90 89 91 91 91 92 93 92 91 90 91 92 91 90 90 91 91 90 91 91 90 89 89 89 90 90
97 97 97 97 97 96 95 95 96 95 95 95 95 93 94 94 94 94 93 91 91 92 90 89 89 88 87 89 89 89 89 88 88 88 88 89 89 90 90 90 92 91 93 91 93 93 91 91 92 92 92 93 93 93 93 91 91 92 90 89 89 90 92
97 97 97 98 98 97 97 96 97 97 97 97 97 96 96 96 95 95 95 93 93 90 91 91 91 90 88 89 88 88 88 88 88 88 89 90 90 89 90 90 90 92 93 92 92 92 92 91 91 91 92 93 92 93 91 90 90 91 90 88 88 89 89
99 98 97 98 99 100 99 97 97 98 97 97 97 96 96 97 96 96 95 95 94 95 93 93 91 90 88 89 89 89 89 89 90 90 90 90 90 89 90 91 90 91 91 92 91 92 93 91 93 92 92 93 91 91 92 90 89 92 91 89 88 89 91
100 98 98 100 100 102 101 98 97 97 95 95 95 95 96 96 96 96 96 96 95 95 94 96 94 92 89 89 89 88 89 90 90 90 89 90 91 92 93 92 91 91 91 92 93 92 92 92 93 91 90 90 90 90 90 90 90 90 91 90 89 88 91
99 97 97 100 101 102 100 99 97 95 93 93 93 93 94 95 95 96 97 97 97 96 96 96 96 94 91 90 90 90 89 89 89 91 92 92 92 93 94 95 93 92 91 92 94 93 91 92 92 91 89 89 89 89 89 89 90 90 91 90 89 89 88
97 97 96 98 98 98 98 98 95 92 92 90 91 95 93 94 95 96 96 97 97 97 98 96 96 95 92 92 92 91 89 90 91 91 91 93 94 94 95 96 96 94 93 93 94 95 93 91 92 90 89 90 90 89 89 90 90 89 91 91 91 90 90
93 93 92 93 95 95 95 94 93 91 91 90 93 94 92 92 95 96 96 96 98 98 97 97 97 96 93 93 92 90 90 89 90 91 92 93 95 96 96 97 96 95 94 94 94 94 95 92 92 91 89 89 90 90 89 89 90 89 89 92 92 91 91
95 93 92 94 93 94 93 92 91 91 90 92 94 94 94 95 95 96 94 95 98 97 97 95 95 93 93 93 94 90 89 89 90 91 93 92 94 95 96 96 97 97 95 95 95 95 96 95 92 91 91 90 91 91 90 89 90 89 89 90 91 90 90
90 95 95 93 93 92 91 91 91 90 90 92 93 94 95 95 96 95 94 94 96 98 98 97 95 93 92 92 91 89 89 89 90 91 91 92 91 93 95 96 96 95 95 94 94 95 96 96 94 93 93 92 92 91 91 90 90 89 89 89 90 91 90
94 97 97 95 91 90 90 91 89 89 90 91 93 93 94 94 94 94 93 95 95 98 97 95 94 92 92 91 90 89 89 89 90 90 91 92 91 91 92 94 94 94 94 93 94 96 97 96 96 93 92 92 91 91 92 91 90 90 90 89 89 90 91
95 97 98 98 94 93 90 91 90 89 89 89 91 91 94 93 92 94 94 94 96 95 97 95 92 91 91 91 89 89 89 88 88 89 89 90 89 89 91 93 93 95 93 93 93 93 93 94 94 95 93 92 91 91 91 91 91 85 77 80 89 89 91
92 92 93 93 94 95 93 91 92 90 89 89 90 91 92 92 92 94 96 96 96 94 96 96 91 91 91 89 90 89 88 88 88 88 87 88 89 89 90 91 92 92 90 91 91 92 91 92 93 94 94 93 92 91 91 91 91 75 69 70 74 88 90
89 88 90 91 91 91 93 94 92 91 91 92 92 92 92 91 93 94 94 95 95 97 98 95 93 91 89 90 89 88 87 88 87 87 87 87 88 88 88 90 90 89 89 90 90 90 92 92 91 91 94 94 94 93 92 92 81 68 67 69 68 75 89
87 88 89 88 89 89 92 95 97 93 93 94 93 93 95 94 94 92 93 93 94 95 96 95 94 90 89 89 89 88 87 87 87 87 87 87 87 87 87 88 88 89 89 90 90 91 89 89 90 90 91 92 91 93 94 93 75 65 66 67 67 67 78
87 88 89 90 90 91 91 92 94 97 96 94 95 98 97 95 95 94 95 96 95 94 93 92 92 90 89 88 88 88 87 87 87 86 87 87 87 87 87 87 87 90 91 91 90 88 88 90 89 89 88 90 90 90 93 93 75 65 63 65 64 65 71
83 84 85 87 88 90 90 89 90 93 95 97 98 97 97 96 97 96 96 95 94 94 92 92 90 89 88 88 88 88 88 87 87 86 87 87 87 86 86 86 87 88 90 92 91 88 87 88 88 88 89 90 92 91 92 93 69 63 62 62 61 63 68
81 83 85 87 87 87 87 89 90 94 95 97 98 99 98 96 97 97 95 96 95 94 92 91 89 89 88 87 88 88 88 88 87 86 87 86 86 86 86 86 86 86 88 90 92 91 91 90 90 90 89 90 91 91 90 94 65 61 61 60 61 61 77
79 83 86 88 90 90 90 91 91 94 95 96 98 99 98 98 98 96 96 96 95 93 93 91 89 88 87 88 89 90 89 89 88 87 87 87 86 86 86 86 86 87 88 89 91 91 90 90 91 90 91 91 90 89 90 93 72 60 59 60 58 64 82
79 85 88 89 90 91 91 92 93 94 97 96 96 98 98 98 97 95 93 94 95 94 93 92 89 88 87 88 90 90 90 89 88 87 87 87 86 87 87 88 88 88 88 89 90 92 93 92 91 91 91 92 91 92 91 93 77 58 58 58 57 69 83
77 85 87 89 90 91 93 93 93 95 94 94 95 97 97 97 96 96 93 92 95 94 92 90 89 89 88 89 91 91 90 90 88 88 88 87 88 89 88 88 88 89 89 90 91 91 92 91 91 92 91 94 94 84 89 93 81 57 59 56 56 70 84
76 84 86 89 92 93 93 92 91 92 93 93 93 96 96 98 96 93 91 92 95 93 91 89 89 89 90 91 91 90 90 90 88 88 89 88 88 89 88 89 90 90 90 90 91 91 93 92 91 91 92 94 94 94 93 91 92 71 57 56 55 61 82
79 85 86 89 89 88 92 92 91 92 94 93 92 96 97 96 94 90 90 90 90 90 91 91 91 90 90 90 92 91 91 91 90 89 91 91 89 90 90 90 90 90 89 90 91 90 89 90 91 91 91 93 93 94 94 95 92 79 55 56 55 57 67
77 84 89 88 87 87 90 93 91 92 95 93 93 95 95 93 90 89 88 89 89 91 94 92 91 90 90 89 91 92 92 91 90 90 91 90 89 88 88 89 90 89 89 90 89 88 87 88 89 91 91 92 93 93 92 91 83 91 59 57 54 56 59
72 78 83 85 87 88 90 91 91 93 94 94 95 94 93 92 89 88 88 87 89 93 93 92 91 90 89 89 90 90 90 90 90 89 92 90 89 88 87 88 88 88 88 87 88 87 87 87 87 88 90 91 92 92 92 91 87 74 74 57 55 54 56
71 75 80 85 89 87 89 88 91 91 93 93 92 92 92 90 88 87 87 87 91 92 92 91 90 89 88 88 89 89 90 91 91 90 91 90 88 88 87 87 87 87 88 87 87 86 86 86 87 87 88 89 90 91 93 92 92 77 70 66 54 54 55
68 70 75 79 84 85 86 87 87 91 91 91 91 91 90 91 88 87 86 89 90 90 91 90 89 88 88 89 89 89 91 91 90 91 91 91 90 87 87 87 87 86 87 86 86 86 86 86 87 86 87 89 89 90 92 94 92 93 75 64 58 55 54
69 71 75 78 80 83 85 86 86 87 87 89 90 90 89 90 90 87 87 90 90 91 91 90 88 87 88 89 89 90 91 91 91 91 91 90 90 88 88 87 87 87 87 87 87 87 87 86 88 88 87 88 90 90 91 91 92 91 86 71 66 61 56
67 70 71 73 76 79 82 84 85 85 86 86 88 89 89 90 90 90 90 90 91 91 90 89 88 87 87 88 90 89 90 90 92 92 90 89 90 90 89 89 89 88 86 86 88 87 87 87 87 88 88 88 90 91 90 90 91 91 92 84 81 79 71
66 68 71 73 74 76 77 80 82 83 84 84 86 88 89 89 90 90 90 91 91 92 90 88 88 88 88 90 90 90 90 90 86 87 91 90 91 90 90 90 91 89 87 88 88 88 88 88 88 88 90 90 92 91 91 91 92 91 91 91 87 86 84
67 67 69 71 72 74 74 75 78 80 82 83 85 87 87 88 90 90 89 90 91 90 88 87 87 88 88 89 90 89 89 90 90 91 92 91 89 90 91 93 93 89 90 93 92 92 91 90 92 91 94 94 92 91 92 93 91 93 78 91 77 86 87
66 67 69 70 72 72 74 75 76 77 79 82 84 85 85 86 87 88 90 90 90 89 88 87 87 87 88 89 89 90 89 90 91 91 91 92 91 91 84 60 52 69 87 91 80 72 71 74 90 93 95 94 93 93 91 92 94 76 66 64 61 64 66
64 65 67 69 70 70 71 73 75 76 76 78 81 82 83 84 85 86 88 88 89 89 88 88 86 87 89 88 89 88 90 90 90 90 90 91 91 90 87 85 75 48 42 52 60 66 62 59 58 56 58 75 90 87 66 60 56 56 56 56 55 56 58
65 67 69 70 70 69 70 72 74 74 75 77 79 81 82 83 84 85 86 87 88 88 88 88 87 87 89 90 90 87 88 90 89 90 89 90 90 89 88 87 83 77 51 43 48 46 45 46 47 48 51 52 59 77 85 63 51 49 52 53 52 53 50

ECMWFFLT1_sfc_temp_087.txt.gz
Temp
99 100 98 95 96 97 96 95 95 95 94 93 93 94 95 95 93 92 91 88 87 86 87 87 87 87 87 88 88 88 89 89 89 89 89 90 91 90 90 91 91 90 93 93 91 92 92 93 93 94 93 92 92 91 91 91 91 91 91 90 90 91 91
96 98 98 98 96 96 96 95 94 95 95 94 93 93 95 94 93 92 90 89 88 87 87 87 87 87 87 88 88 88 88 88 89 89 90 90 90 91 92 91 91 90 91 93 93 92 93 93 93 92 93 92 92 91 92 91 90 90 91 90 90 90 90
98 98 98 96 95 93 96 96 95 96 95 96 95 94 94 92 92 91 91 90 88 88 88 88 87 88 88 88 88 88 88 89 89 90 90 91 91 94 93 92 92 93 94 94 94 94 94 93 92 92 93 92 93 91 91 91 90 91 91 90 90 90 89
96 97 97 96 96 96 97 97 96 97 97 97 96 95 94 92 94 93 92 91 89 88 87 88 89 89 89 88 88 87 88 88 89 90 91 92 92 92 92 92 91 93 93 93 95 95 96 93 93 92 92 92 91 92 92 91 92 91 91 90 90 91 90
98 99 100 99 99 95 96 97 97 95 97 99 97 95 95 95 96 95 94 93 93 90 91 91 92 91 90 90 91 90 89 89 89 90 91 92 91 92 92 93 93 94 94 95 94 93 92 92 93 92 92 91 92 92 91 92 92 91 90 90 90 91 91
100 99 99 99 99 99 99 99 99 99 98 99 98 97 97 98 97 97 96 94 93 93 92 91 91 90 89 91 91 91 90 89 89 89 90 91 91 92 92 93 94 94 96 94 95 95 94 93 93 93 92 93 93 94 94 92 92 93 91 90 90 91 92
100 100 100 100 100 100 101 100 101 100 100 101 101 99 99 99 98 97 97 96 95 92 92 92 92 92 90 91 90 90 89 90 89 90 91 92 92 92 92 92 93 95 96 94 94 94 94 93 92 93 92 93 92 94 92 91 91 91 90 89 89 89 90
101 101 102 102 103 103 100 99 101 102 100 101 100 100 99 99 99 98 97 97 96 96 95 94 93 91 90 91 91 91 90 91 92 91 91 92 92 92 93 93 93 94 94 95 94 94 95 93 94 94 93 94 92 92 93 92 90 93 91 89 89 89 92
103 102 103 103 104 104 102 101 101 101 98 98 99 98 99 99 99 98 98 98 97 96 95 97 96 94 91 91 91 90 91 91 91 91 91 93 93 95 95 95 94 94 93 95 96 94 95 94 95 92 92 92 92 91 92 91 92 92 91 90 89 89 91
102 101 101 104 103 105 103 103 101 99 97 96 96 96 97 98 98 99 99 99 99 97 97 97 97 96 92 92 92 92 91 91 91 93 94 94 94 95 96 97 95 95 94 95 97 95 94 95 94 93 91 92 92 91 91 91 92 92 92 91 90 90 89
102 100 100 103 102 102 103 103 98 95 96 93 95 98 97 97 98 99 98 99 99 98 99 98 97 97 94 94 94 93 91 92 93 93 93 94 96 96 97 98 98 95 95 96 97 97 94 93 94 92 91 92 92 91 91 92 92 91 92 92 92 91 91
97 97 98 99 100 101 101 99 97 96 95 94 96 98 95 95 98 99 99 99 100 100 99 99 100 98 95 95 94 92 92 91 92 93 94 95 97 97 98 99 98 97 96 97 96 97 97 94 94 93 91 91 92 92 91 91 91 90 91 94 93 92 92
99 97 97 99 97 99 98 98 96 96 95 97 98 98 98 98 98 99 97 98 100 100 99 98 98 96 95 95 95 92 91 91 92 93 95 95 96 97 98 98 99 99 97 97 97 97 98 96 94 94 93 92 93 93 92 91 92 90 90 92 92 92 91
93 98 97 97 97 97 96 97 96 95 95 96 97 98 98 99 99 98 97 98 99 101 101 100 98 96 94 94 93 91 91 91 92 94 94 95 93 95 97 98 98 97 97 96 96 97 98 98 96 95 95 93 93 93 93 91 91 91 90 91 92 93 92
96 99 98 98 95 95 95 96 95 94 95 95 97 97 98 98 98 97 97 98 98 101 100 98 97 95 95 93 92 91 91 91 92 93 93 94 93 94 95 96 97 97 96 95 96 98 99 99 98 95 94 94 92 93 94 93 91 92 91 90 90 92 93
96 97 99 99 97 97 94 95 95 94 94 93 95 95 98 97 96 97 97 98 99 98 100 99 96 94 94 93 92 91 91 91 91 91 92 92 92 92 94 96 96 98 97 96 96 95 95 95 97 97 95 94 93 93 94 93 93 87 79 82 90 91 94
92 93 94 94 94 94 95 95 96 95 93 92 93 95 96 96 96 98 100 99 100 98 100 100 95 95 94 92 92 91 91 90 90 91 90 91 92 92 93 94 95 95 94 94 94 94 93 95 96 97 96 95 95 93 93 93 94 78 71 73 77 89 91
91 90 92 93 93 93 93 94 95 95 94 96 96 95 96 94 97 97 98 99 99 101 102 100 97 95 92 92 92 91 90 90 90 89 90 90 90 91 91 94 94 93 93 94 94 92 96 95 95 94 97 97 96 95 94 94 84 70 70 71 71 78 90
90 92 91 88 90 91 94 95 93 94 98 98 97 97 98 98 98 95 96 97 98 99 100 100 99 94 92 92 91 90 90 90 89 89 89 90 90 90 90 91 92 93 93 94 94 94 92 92 94 94 95 96 93 95 95 95 78 67 68 69 69 69 81
86 86 87 88 89 91 92 91 91 94 97 98 100 101 100 99 99 98 99 100 99 98 97 96 96 94 92 91 91 90 90 89 89 89 89 90 90 90 90 90 90 94 96 95 93 91 92 94 92 93 92 93 94 92 95 95 75 66 65 67 66 68 73
82 82 82 83 85 88 88 89 90 92 93 96 99 101 101 100 101 100 99 99 98 98 95 96 95 92 92 91 91 90 90 89 89 88 89 89 90 89 89 90 90 92 94 95 94 91 90 92 92 92 93 94 95 94 95 96 68 64 63 64 64 65 70
80 81 81 82 82 83 86 90 91 93 93 96 97 100 103 101 102 101 99 100 99 98 96 95 93 93 91 90 91 90 90 90 89 88 89 89 89 89 88 89 89 89 92 93 95 93 93 93 94 93 93 93 94 95 93 95 62 64 62 63 63 63 80
80 80 81 81 84 85 87 90 91 93 94 95 96 98 101 103 103 101 100 99 100 97 97 96 93 92 90 90 92 91 91 91 90 89 89 89 89 88 89 88 89 90 92 92 94 93 92 92 94 92 94 93 93 93 91 95 68 61 60 61 61 67 84
79 79 80 81 81 84 87 91 93 94 96 96 96 97 99 103 102 99 97 97 99 98 97 96 93 92 90 91 92 92 91 91 90 89 89 89 89 89 90 91 91 91 91 92 93 95 94 94 93 94 93 94 93 94 93 96 73 58 59 60 58 71 84
77 77 78 79 80 82 87 90 91 92 93 95 96 97 98 101 102 101 97 96 99 98 95 94 92 92 91 91 93 92 92 92 90 90 90 89 90 91 90 90 90 92 92 93 94 94 95 94 93 94 93 96 96 86 92 96 80 57 59 58 57 71 85
72 73 76 78 81 84 86 88 89 90 93 95 94 97 98 102 101 97 95 96 99 97 95 93 92 92 92 93 92 92 92 92 90 90 91 90 90 91 90 91 92 92 92 93 94 94 96 95 93 93 94 96 97 96 95 94 91 68 58 57 56 63 84
72 73 75 77 79 78 83 89 90 92 94 95 95 98 100 101 99 95 93 93 94 93 95 94 94 92 92 92 93 94 93 93 92 91 92 92 91 92 92 93 93 93 91 93 94 93 92 94 94 94 93 96 96 97 97 97 94 75 57 56 56 59 70
70 72 76 76 77 79 83 90 91 92 95 95 96 97 98 96 94 92 92 92 92 94 97 95 93 92 92 91 92 94 94 93 92 92 93 92 91 90 90 91 92 92 91 93 92 90 90 90 92 94 94 95 96 96 95 93 86 87 59 57 55 57 62
66 68 70 71 76 81 84 87 90 93 94 97 99 97 96 96 93 92 91 91 92 96 96 95 94 92 91 91 92 92 92 92 92 91 95 93 91 90 89 90 90 90 90 90 90 89 89 89 90 91 92 93 94 95 95 94 89 74 70 57 55 55 57
65 67 69 71 77 80 83 84 89 91 93 96 96 95 95 94 92 91 91 91 94 96 96 94 93 91 91 90 91 92 92 93 93 92 93 92 90 90 89 89 90 90 90 89 89 89 88 89 89 90 91 92 93 94 96 94 95 75 68 64 55 54 56
63 64 65 67 72 77 81 84 86 88 91 94 94 94 94 95 92 91 90 92 93 93 94 93 92 90 90 91 91 91 93 93 92 93 94 93 91 89 89 89 89 88 89 88 88 88 88 88 89 88 89 90 91 93 94 95 95 89 71 62 57 55 54
64 65 66 69 72 75 78 82 86 87 87 91 94 93 93 94 93 90 90 93 93 94 94 92 90 89 89 91 91 92 94 93 93 93 94 93 92 90 90 89 90 89 88 88 88 89 88 88 89 89 88 89 92 92 93 93 94 92 81 68 63 60 56
62 62 63 65 68 71 75 80 83 87 88 90 92 92 93 93 93 92 92 92 94 94 93 91 90 88 89 90 92 92 93 92 93 93 92 92 92 92 91 91 91 89 87 88 90 89 89 88 88 89 89 89 91 92 92 92 93 94 89 80 77 75 69
61 62 65 65 67 70 73 78 81 84 85 87 90 92 92 92 93 93 92 94 94 95 92 89 89 90 90 92 92 92 93 92 88 89 93 92 93 91 91 92 92 91 88 89 90 90 89 90 89 89 91 91 92 92 93 92 94 93 93 87 85 83 81
61 63 64 64 67 69 70 74 79 80 84 84 86 89 90 91 92 92 91 92 93 92 90 89 88 89 90 91 92 91 91 92 92 93 93 92 91 92 93 94 94 90 91 94 94 93 92 91 92 92 95 95 92 92 92 92 91 94 81 90 74 83 86
61 63 63 65 67 68 69 73 77 78 78 82 86 86 88 90 91 92 93 92 92 92 89 88 88 89 89 91 91 91 92 92 93 92 92 93 92 92 83 58 53 70 89 92 80 73 73 73 87 89 96 94 94 94 92 92 92 76 68 61 62 62 65
61 62 63 65 65 66 68 72 75 77 78 79 83 84 84 85 87 89 91 91 92 91 90 89 88 89 90 90 91 90 91 91 92 92 91 92 91 91 87 86 76 49 43 54 65 66 50 44 46 50 57 77 93 74 55 62 58 57 56 57 59 57 57
62 62 64 64 64 65 68 71 72 73 74 78 79 81 83 85 86 87 89 90 91 91 89 89 89 89 91 91 91 89 89 91 91 90 91 92 92 90 88 87 82 76 52 44 48 46 43 44 44 46 49 49 60 80 81 59 51 51 52 52 54 55 54

ECMWFFLT1_sfc_temp_093.txt.gz
Temp
88 88 88 88 87 88 87 87 87 86 87 87 87 87 88 88 85 84 83 82 81 81 81 81 81 81 81 81 81 81 82 81 81 81 80 80 81 81 80 79 79 78 80 80 81 81 81 84 83 84 83 83 82 82 81 82 82 83 82 81 81 81 80
87 88 88 89 87 87 87 87 87 86 86 87 87 87 88 87 85 84 83 82 82 81 81 81 81 81 81 81 81 81 81 81 81 82 81 79 79 81 82 81 81 79 79 81 80 81 82 83 83 83 83 83 83 82 82 81 82 82 81 81 81 80 81
87 88 88 88 87 87 85 86 86 87 86 87 88 88 88 86 86 84 83 82 82 82 82 82 81 81 82 81 81 81 81 82 81 81 81 81 80 82 83 82 82 81 81 81 82 82 83 82 82 83 83 83 84 82 81 82 81 81 81 80 81 81 80
87 88 88 89 88 87 86 86 86 88 88 88 88 89 88 86 87 85 84 84 82 82 81 82 82 82 82 81 81 81 81 81 82 82 83 83 82 82 82 82 82 83 81 81 84 85 86 83 82 82 84 82 83 82 82 82 82 82 81 81 80 80 79
87 88 88 88 88 86 86 86 86 87 88 89 89 89 89 87 88 87 86 85 85 83 83 83 84 83 83 82 82 82 82 82 82 83 83 83 83 83 82 83 83 83 83 84 83 83 83 83 82 82 82 82 83 82 82 82 82 82 80 81 80 80 80
87 87 87 87 87 87 87 87 87 88 88 89 89 89 90 90 90 88 87 85 85 85 84 84 84 83 82 83 83 83 82 82 82 82 83 83 83 83 83 83 83 84 84 84 84 84 84 84 84 83 83 83 84 84 83 82 83 82 81 80 81 81 80
87 86 86 87 87 87 88 88 88 89 90 90 91 91 91 91 90 89 88 86 85 84 84 84 84 84 83 83 83 83 82 82 82 82 83 83 83 83 83 83 84 84 85 85 84 84 84 84 85 84 84 84 83 84 83 82 82 82 81 80 80 80 80
87 86 86 88 88 89 89 88 89 90 90 90 91 91 91 92 92 90 89 87 86 86 85 85 84 84 83 83 84 83 83 83 83 83 83 84 84 83 84 84 84 85 84 84 85 85 85 85 86 85 85 85 83 83 83 82 82 82 82 80 79 81 82
88 88 87 89 89 90 90 89 90 90 89 89 90 90 91 91 92 91 90 88 87 86 85 86 86 86 84 84 83 83 83 83 83 83 83 84 84 84 85 85 85 85 85 85 86 86 85 85 86 84 84 84 83 82 82 82 83 82 82 81 80 80 82
89 87 88 90 91 91 90 90 90 88 87 88 88 89 90 91 92 92 91 90 88 87 86 87 87 86 85 84 84 84 84 83 84 84 84 84 85 85 86 86 86 85 85 85 86 86 85 85 85 84 83 84 83 82 82 82 83 83 82 82 81 81 80
90 88 87 89 89 89 89 90 88 86 87 87 87 90 90 90 91 92 92 91 89 88 88 88 88 87 86 85 84 85 84 83 84 84 84 85 86 86 87 87 87 86 86 86 87 87 86 84 85 83 83 84 83 83 82 82 83 82 83 82 83 82 82
84 87 86 88 89 88 88 88 87 86 86 87 88 89 88 88 90 91 92 92 92 89 88 88 88 88 87 86 85 84 84 83 84 84 85 85 86 87 88 88 87 87 87 87 87 87 87 85 85 84 83 84 84 83 83 82 83 82 83 83 83 82 83
82 88 87 88 88 88 88 86 86 86 86 87 89 89 88 89 90 91 91 91 92 91 90 89 88 88 87 86 85 84 84 84 84 84 85 85 86 87 88 88 88 88 88 88 88 88 88 87 86 85 84 84 84 84 84 83 83 82 82 83 83 82 82
82 81 81 82 83 87 86 85 86 86 86 87 88 89 89 90 91 91 91 91 92 92 91 90 89 88 87 86 85 84 84 84 84 85 85 86 86 86 88 88 88 88 88 88 88 88 88 88 86 86 85 85 85 85 84 83 82 82 82 83 83 83 82
79 79 80 80 78 78 80 81 83 85 86 87 88 88 89 90 91 91 91 91 92 93 91 90 89 88 87 86 84 83 84 84 85 85 85 85 85 85 86 87 87 87 87 87 88 90 89 89 88 86 85 85 84 84 85 84 83 83 82 82 82 83 82
77 77 77 78 77 78 78 79 77 77 78 77 79 82 88 88 89 91 90 91 92 92 92 90 88 87 87 86 84 84 84 84 84 84 84 85 84 85 86 87 87 88 87 87 88 88 88 88 88 87 86 85 84 84 84 84 84 81 76 78 83 82 84
74 75 75 75 76 76 74 77 79 79 77 75 75 73 73 72 73 77 86 92 93 91 92 91 88 87 87 85 85 84 84 83 83 84 83 84 85 85 85 86 87 87 86 86 87 87 86 86 87 87 87 86 85 84 84 84 85 76 70 72 75 82 82
72 72 73 73 74 74 72 74 76 78 79 77 72 73 73 74 75 76 73 73 82 94 93 91 89 88 86 86 85 84 83 83 83 83 83 83 83 84 85 86 86 85 85 86 86 85 87 86 86 86 87 87 86 85 85 85 80 71 69 70 70 76 83
70 71 71 72 71 69 70 71 74 75 77 81 81 74 73 75 77 76 76 76 74 82 92 92 90 88 86 86 85 84 84 83 83 83 83 83 84 84 84 84 85 85 85 86 87 87 85 85 85 86 86 86 85 85 86 85 77 69 68 69 69 70 79
69 70 70 71 72 72 72 72 72 74 73 76 81 84 83 80 80 81 81 79 77 76 87 91 90 88 87 85 85 84 84 84 83 83 83 83 84 84 84 84 84 87 87 87 86 85 85 86 85 84 85 86 85 84 86 85 77 67 66 67 67 68 73
67 68 68 69 69 70 71 72 73 75 76 77 79 82 84 84 86 87 87 84 80 82 88 91 89 87 86 85 85 85 84 84 83 83 83 83 84 83 84 84 84 86 87 87 86 85 85 86 85 84 84 86 86 85 85 86 73 65 64 64 64 66 70
67 67 67 68 68 69 70 72 72 73 73 75 78 79 82 83 86 89 88 88 89 89 89 88 87 85 86 85 85 85 85 85 84 83 83 83 83 83 83 83 84 84 86 87 87 87 87 86 87 85 85 86 87 86 85 87 69 64 63 63 63 65 74
67 67 68 68 70 70 71 71 71 73 74 75 76 78 80 82 85 86 87 87 89 87 89 88 87 85 85 86 86 86 86 85 84 84 83 84 83 83 83 83 83 84 86 86 87 86 86 86 87 87 86 86 85 85 85 86 71 63 62 62 62 65 77
68 68 68 68 69 70 69 70 72 73 75 75 76 79 81 83 84 85 84 85 87 89 89 89 87 85 84 86 87 87 87 86 85 84 84 84 83 83 84 85 85 86 86 86 87 87 87 87 87 87 88 87 86 86 85 87 73 61 61 61 60 68 78
67 67 67 67 67 67 67 69 70 72 74 73 74 76 77 79 81 83 84 85 87 88 88 87 87 87 85 86 88 88 87 86 85 85 85 84 84 85 85 85 85 86 86 87 88 88 87 87 87 87 87 88 88 83 84 87 75 59 61 60 59 67 79
63 65 65 67 68 67 68 69 69 70 70 71 72 74 76 78 79 80 81 83 86 86 86 87 88 88 88 87 87 87 87 87 85 85 85 85 85 85 85 85 86 86 87 87 88 88 87 87 86 86 87 87 88 88 87 86 79 66 59 59 58 62 79
64 65 64 65 65 66 67 67 68 68 69 70 71 74 75 76 76 76 78 80 82 83 86 87 88 87 87 86 88 88 87 87 86 86 87 86 86 86 86 86 86 86 86 86 87 87 86 86 86 87 86 87 87 88 87 89 83 69 57 57 57 59 69
64 64 65 65 66 66 65 66 66 67 68 69 71 72 73 73 72 73 75 77 78 82 87 88 87 86 86 86 87 88 88 88 87 87 87 87 86 85 84 85 86 86 86 86 85 85 84 84 84 86 86 86 87 87 87 86 81 78 58 57 56 57 61
60 61 61 62 63 65 65 63 64 65 66 69 70 71 71 72 71 72 74 75 78 82 85 87 87 86 86 85 86 87 87 87 86 86 88 87 86 85 84 84 85 85 84 84 84 83 84 82 83 84 84 85 86 87 87 86 83 71 67 57 56 55 57
61 61 62 63 64 64 64 63 64 64 66 68 69 69 70 70 70 71 73 75 80 82 84 85 86 85 86 85 86 87 87 87 87 87 88 86 85 85 84 84 84 84 84 84 83 83 83 83 81 83 83 84 84 85 87 85 86 71 66 63 55 55 56
60 60 61 61 63 64 64 63 62 64 65 67 67 69 70 71 71 72 73 77 81 82 83 84 85 84 85 86 86 86 88 88 87 87 87 87 86 84 84 84 84 83 83 83 83 83 82 82 82 82 83 83 83 84 86 86 84 80 69 63 58 56 55
60 61 61 62 62 62 63 63 63 63 64 65 67 68 70 71 73 73 76 81 82 84 84 84 84 84 85 86 86 87 88 87 87 87 87 86 86 85 85 84 84 83 83 83 83 83 82 82 82 82 82 82 83 83 84 85 84 80 75 67 63 60 57
60 60 60 59 60 61 62 62 62 63 63 64 66 68 70 71 72 73 76 80 82 84 84 84 83 83 84 85 86 86 87 87 86 86 86 86 86 86 85 85 85 83 82 83 83 83 83 82 82 82 82 82 83 83 83 84 84 81 78 73 69 68 65
59 60 60 60 61 62 62 62 62 62 63 63 65 68 69 70 71 73 76 80 83 85 84 82 83 84 85 86 86 86 87 86 83 84 85 86 86 85 85 85 84 84 83 83 83 83 82 83 82 82 83 83 84 83 82 83 83 81 79 74 72 71 70
59 59 58 58 60 61 60 61 61 61 62 63 66 67 68 68 70 72 75 78 80 82 84 83 82 83 85 85 86 85 85 85 85 85 86 85 85 86 85 85 84 84 85 87 86 86 85 84 84 84 86 85 85 84 82 82 82 82 70 76 67 71 72
59 58 58 59 60 60 61 61 61 61 62 63 65 66 66 67 68 71 73 75 76 79 81 82 82 83 84 85 85 85 84 84 85 85 85 85 85 85 83 77 70 79 86 84 77 73 71 70 83 86 87 86 86 86 84 84 86 70 60 59 58 58 61
58 57 58 59 59 60 60 60 61 61 62 63 64 64 65 66 67 69 70 72 74 76 78 81 82 82 83 84 84 83 83 84 85 85 85 85 84 83 82 76 68 51 50 61 71 67 60 58 63 67 71 83 85 81 73 73 70 59 57 56 55 54 55
58 57 58 59 59 60 59 59 59 60 61 63 63 63 64 65 66 67 69 70 71 73 76 79 81 82 83 84 84 82 81 84 84 84 83 84 84 84 81 77 74 69 55 46 52 60 58 56 57 59 60 65 72 79 80 68 60 53 54 54 54 53 53

ECMWFFLT1_sfc_temp_096.txt.gz
Temp
84 84 84 85 85 85 85 85 85 85 85 84 83 84 84 84 82 81 80 79 79 78 78 79 79 79 79 79 79 79 79 79 78 78 79 79 78 77 75 75 78 78 79 79 79 79 80 81 81 81 80 80 80 79 78 78 78 79 79 78 78 78 77
82 84 85 86 85 85 85 85 85 86 85 85 84 84 85 84 82 81 80 80 80 79 79 79 79 79 79 79 80 79 79 79 79 79 78 78 78 77 77 75 77 78 79 79 79 79 79 80 81 80 80 80 80 79 79 78 78 78 78 78 77 76 77
82 84 84 85 85 85 85 85 85 86 86 86 85 84 85 83 83 82 81 80 80 80 80 79 79 79 80 79 79 79 79 79 79 79 78 79 79 80 78 76 77 78 79 80 79 79 80 80 80 80 81 80 80 79 79 78 78 78 78 78 78 78 76
83 84 85 86 86 86 86 86 85 86 87 87 86 85 85 84 84 83 82 82 80 80 79 79 80 80 80 79 79 79 79 79 79 80 80 80 80 80 78 76 76 78 78 79 80 81 81 80 79 79 82 80 80 79 79 79 80 79 78 78 78 78 77
83 84 85 85 85 85 85 86 86 86 87 88 88 86 86 85 85 84 83 83 83 81 81 81 81 81 81 81 80 80 80 79 79 80 80 81 80 80 79 79 78 78 79 80 79 79 79 79 79 78 80 80 80 79 79 79 79 79 78 78 78 78 78
83 84 84 85 86 86 86 86 87 87 87 87 87 86 87 86 86 84 84 83 83 83 82 82 81 81 80 81 81 81 80 80 80 79 80 80 79 80 80 80 80 79 79 79 80 80 80 80 80 79 79 80 81 81 80 79 79 80 79 78 78 78 77
84 84 85 85 86 86 86 87 87 87 88 88 89 88 87 87 85 85 85 83 84 82 82 82 82 81 81 81 81 80 79 80 79 79 80 80 80 80 80 80 81 81 81 80 80 81 81 80 80 80 80 81 80 81 80 79 79 79 78 78 77 78 78
85 85 85 86 87 87 87 87 87 87 87 88 88 87 87 87 86 85 84 84 84 84 83 83 82 82 81 81 81 81 80 80 81 80 80 80 80 80 80 80 80 81 81 80 80 80 82 81 82 81 80 81 80 80 81 80 79 80 79 78 77 78 79
85 86 86 87 87 87 87 87 87 87 86 86 86 87 87 87 86 85 85 85 84 84 83 84 83 83 82 81 81 80 81 81 81 80 80 80 81 81 81 81 81 81 81 81 82 81 82 82 82 81 80 81 80 80 80 80 80 80 79 79 78 78 79
84 84 85 87 88 88 87 87 86 85 84 84 85 85 86 87 87 86 86 85 85 84 84 84 84 84 82 82 81 81 81 80 81 81 81 80 81 81 82 82 82 81 81 82 82 81 81 82 82 81 80 80 80 80 80 80 80 80 80 79 79 79 78
79 84 85 85 86 86 86 85 84 83 84 83 84 86 86 87 87 87 86 86 85 85 85 85 85 84 83 82 82 82 81 81 81 81 81 81 82 82 83 83 83 82 82 82 82 83 82 81 82 81 80 81 80 80 80 80 80 80 80 80 80 80 79
74 74 75 82 86 85 84 83 84 83 83 83 85 86 85 86 87 87 87 86 86 85 85 85 85 85 83 83 82 81 81 81 81 81 81 82 82 83 83 84 83 83 83 83 83 83 83 82 81 82 81 81 81 81 81 80 80 80 80 81 80 80 80
72 72 73 73 74 77 78 79 82 83 82 84 86 86 86 87 88 88 87 86 87 86 86 85 85 84 83 83 82 81 81 81 81 81 82 82 82 83 84 84 84 84 84 84 84 83 83 83 82 82 82 82 82 82 81 80 81 80 80 80 80 80 79
72 71 71 71 72 72 73 72 73 75 77 82 85 86 87 88 88 88 87 87 87 87 86 86 85 84 83 83 82 81 81 81 82 82 82 83 82 83 83 84 84 84 84 84 84 84 84 84 83 82 82 82 82 82 82 81 80 80 80 80 81 80 79
68 68 69 69 69 70 70 70 71 73 73 74 77 80 85 86 88 87 88 88 87 87 86 86 85 84 83 83 81 81 81 81 82 82 82 82 82 82 82 83 83 84 84 84 84 85 85 85 85 83 82 82 82 82 82 81 81 81 81 80 80 80 80
66 66 67 68 68 69 69 70 70 70 71 72 73 73 80 82 81 85 87 87 87 87 87 86 84 83 83 83 82 82 82 81 82 82 81 82 81 81 82 83 84 84 84 84 84 84 84 84 85 84 83 82 81 82 82 81 82 79 74 75 81 80 81
64 64 66 67 67 68 68 69 69 69 69 69 71 73 73 73 78 84 87 88 88 86 87 86 84 83 83 82 82 82 82 81 81 81 80 81 82 82 82 82 83 83 83 83 83 83 83 84 84 84 84 83 82 81 81 82 82 74 69 70 73 80 80
62 63 64 65 66 66 67 68 68 68 69 70 71 71 73 73 73 75 77 78 79 81 84 86 85 84 83 83 83 82 81 81 81 81 80 81 81 81 82 83 83 82 82 83 83 82 84 83 83 83 84 84 83 82 82 82 77 70 68 69 69 74 81
62 63 63 64 64 65 65 66 67 67 68 71 71 71 72 74 74 73 73 74 74 76 80 81 83 84 83 83 83 82 82 81 81 81 81 80 81 81 81 81 82 82 82 83 83 83 82 82 83 83 84 84 82 82 83 82 75 68 66 67 68 68 76
62 62 63 63 64 64 64 65 66 66 68 69 71 74 74 74 74 75 74 73 75 76 77 81 82 82 83 83 83 82 82 81 81 81 81 81 81 81 81 81 81 83 84 84 83 82 82 83 83 83 82 83 83 82 83 82 76 68 65 65 65 67 71
59 60 61 62 63 63 62 64 65 66 67 70 72 73 73 73 74 74 75 73 74 78 77 78 79 79 81 82 83 83 82 81 81 81 81 81 81 81 81 81 81 82 84 84 83 82 82 83 83 83 83 84 84 83 83 83 73 66 64 63 63 64 68
61 61 60 62 63 63 61 62 63 65 66 71 71 72 72 72 73 74 75 79 79 78 78 78 77 78 80 81 83 83 83 82 81 81 81 81 81 80 80 81 81 81 83 84 84 84 84 83 84 83 83 84 84 84 82 85 71 66 64 63 62 64 71
61 62 61 62 64 64 65 65 65 66 68 69 71 70 71 72 73 73 74 76 81 81 80 79 78 79 80 82 83 84 84 83 82 81 81 81 81 80 81 80 81 82 83 83 84 84 83 83 84 84 84 84 83 83 83 84 74 64 62 61 61 64 74
64 64 64 63 63 65 65 65 66 67 67 68 69 69 69 71 71 72 72 73 77 80 81 81 80 80 81 83 84 85 84 84 83 82 81 81 81 81 82 82 83 83 83 83 83 84 84 85 84 85 85 84 83 84 84 84 76 62 61 60 60 66 75
63 63 63 63 63 63 64 65 65 66 67 67 66 67 70 70 70 70 70 72 74 76 76 77 80 81 83 84 86 86 86 85 84 83 83 82 82 83 82 82 82 83 84 84 85 85 85 84 84 85 85 85 85 82 83 84 78 61 61 59 59 65 77
60 61 62 63 64 64 64 65 64 65 64 65 65 68 69 70 69 69 69 70 72 72 73 75 77 80 81 83 85 86 86 85 84 83 83 83 83 83 83 83 84 84 84 84 85 85 85 85 84 84 84 85 85 85 84 84 84 72 59 59 58 60 76
62 62 61 62 63 64 63 63 63 63 64 65 66 68 69 69 67 67 68 69 69 69 72 75 77 78 80 81 83 85 85 86 85 84 85 85 84 84 84 84 84 84 83 83 84 84 83 84 84 84 84 85 85 85 85 86 84 77 59 58 57 58 66
62 62 63 63 64 63 62 62 63 63 65 65 66 67 67 66 65 66 67 67 67 70 73 74 76 77 79 80 81 84 85 86 85 86 85 85 84 83 82 84 84 84 83 84 83 82 82 82 82 83 84 85 85 85 85 84 79 84 62 58 57 57 58
59 59 60 61 61 62 63 61 61 62 63 65 66 66 66 66 65 66 67 66 68 71 73 74 75 76 78 79 80 81 83 85 85 85 86 85 84 83 82 83 83 83 83 82 82 81 81 81 81 82 82 83 84 85 85 85 82 73 72 58 56 56 56
60 60 60 62 62 61 62 61 61 61 63 64 65 65 65 65 65 65 66 66 69 71 72 73 75 77 78 79 79 81 83 84 86 86 86 85 84 83 82 82 82 82 82 82 81 81 81 81 81 81 81 82 82 83 85 85 85 72 67 67 57 56 55
58 59 59 59 60 61 61 60 60 61 62 63 64 65 65 66 65 65 64 67 69 70 71 73 75 76 77 78 80 81 83 85 85 86 86 86 85 83 82 82 82 81 81 81 81 81 80 81 81 80 81 81 81 82 83 84 84 83 70 64 60 57 55
58 59 59 59 59 60 60 60 61 60 60 62 64 64 65 65 65 63 65 68 69 70 72 73 73 73 75 77 79 81 83 84 85 85 86 85 85 84 83 83 82 81 81 81 81 81 80 80 81 80 80 81 82 82 83 83 83 82 78 68 64 59 56
58 58 57 57 58 59 59 59 59 59 60 60 63 64 64 64 65 65 66 67 68 70 70 70 70 71 72 74 77 80 82 83 84 84 84 84 85 84 84 84 83 82 80 81 81 81 81 81 80 80 80 80 82 82 82 82 82 82 80 74 71 68 64
57 58 58 57 58 60 59 58 58 59 59 59 61 63 64 64 64 65 66 67 68 69 69 68 68 69 70 72 75 79 82 82 81 82 84 84 84 83 83 83 83 82 81 81 81 81 80 81 80 80 81 81 81 81 81 81 82 82 82 78 74 72 70
56 57 58 58 58 59 57 58 58 58 59 59 61 63 63 63 64 65 65 66 67 67 67 66 67 68 69 72 75 78 80 82 83 83 83 83 83 84 84 84 83 83 83 85 85 84 83 82 82 82 84 83 82 81 80 81 81 82 73 81 68 73 73
55 56 57 58 58 57 57 58 58 57 58 59 61 62 62 63 64 65 66 66 66 66 65 66 66 67 69 73 75 78 80 80 82 82 82 83 83 83 82 78 72 78 83 82 76 73 70 69 82 84 84 84 84 84 83 82 84 72 63 61 58 58 61
55 55 56 58 57 57 57 57 58 58 58 59 61 61 61 62 63 64 65 65 65 65 64 64 65 67 70 73 75 76 79 80 81 82 82 83 83 82 80 78 70 59 63 71 72 66 59 58 62 66 70 81 83 80 71 70 69 66 58 56 55 55 55
55 55 57 57 57 57 57 57 57 56 57 59 60 60 60 61 63 63 64 64 64 64 64 64 65 66 69 72 74 74 75 79 81 81 81 81 82 81 80 78 76 70 55 50 60 62 55 55 56 57 59 63 71 78 81 67 60 58 54 55 54 54 53

ECMWFFLT1_sfc_temp_102.txt.gz
Temp
78 79 79 80 80 80 80 80 80 80 80 79 79 80 80 80 78 77 77 76 75 75 75 75 75 76 76 76 76 76 76 76 75 75 74 74 74 74 74 75 76 75 76 76 76 76 77 78 78 78 78 78 78 78 78 78 78 78 78 78 78 78 77
78 79 80 80 80 81 81 81 80 81 81 80 80 79 80 79 78 78 77 76 76 76 75 75 76 75 76 76 77 76 76 76 76 76 75 74 75 74 75 75 75 75 75 76 77 77 77 78 78 78 78 79 79 78 78 78 78 78 78 78 77 77 77
78 79 80 80 81 81 80 81 81 82 81 81 81 81 80 78 79 78 77 77 76 76 76 76 76 76 76 76 76 76 76 76 76 76 75 75 75 76 75 75 75 76 77 77 77 77 78 78 78 78 79 78 79 78 78 78 78 78 78 77 78 78 77
76 79 80 81 81 82 82 82 82 82 83 83 82 82 80 79 80 79 79 78 77 76 75 76 77 77 77 76 76 76 76 76 76 77 77 77 76 75 74 74 74 76 76 76 78 78 79 78 78 78 79 78 78 79 78 78 78 78 78 77 77 78 77
69 78 80 81 81 81 81 82 82 82 83 84 83 82 82 81 81 80 80 80 80 78 78 78 79 78 77 77 78 77 77 76 76 77 77 77 76 74 74 75 75 75 76 77 77 77 77 77 78 78 78 78 78 78 78 78 78 78 77 77 77 77 78
65 69 78 80 82 82 82 83 84 84 84 84 83 83 83 83 82 82 81 80 80 80 79 78 78 78 77 78 78 78 77 77 76 76 77 76 75 75 75 75 75 76 76 77 78 78 78 78 78 78 78 79 79 79 79 79 78 78 77 77 77 78 78
64 65 68 80 82 83 83 83 84 85 85 85 85 84 84 84 83 82 82 81 81 79 79 79 79 79 78 78 77 77 76 77 76 76 77 77 77 76 75 75 75 76 77 77 77 78 78 77 78 78 78 79 78 79 79 78 78 78 77 77 76 76 77
64 64 66 66 78 84 85 84 84 85 85 84 84 84 83 84 83 83 82 82 82 81 80 80 79 78 78 78 78 78 78 78 78 77 77 77 77 77 76 75 75 76 76 77 77 77 78 78 78 78 78 79 78 78 79 78 78 78 78 77 76 76 78
64 65 64 67 67 79 85 83 84 85 83 83 83 83 83 83 83 83 82 82 82 81 81 82 81 80 79 78 78 77 78 78 78 77 77 77 77 78 78 77 76 76 76 77 78 77 78 78 78 77 77 78 78 78 78 78 78 78 78 77 77 77 77
63 62 64 65 67 67 72 80 81 80 80 81 81 81 82 83 83 83 83 83 83 82 82 82 82 81 79 78 79 79 78 77 78 78 78 78 78 78 79 79 78 77 77 77 78 77 77 78 78 77 77 77 77 77 78 78 78 78 78 78 78 77 77
63 64 63 64 64 64 67 67 67 71 77 78 79 82 81 82 83 83 83 83 83 83 83 82 82 82 80 80 79 79 78 78 79 78 78 78 79 79 80 80 79 78 78 77 77 78 77 77 78 77 77 77 77 77 77 78 78 78 78 78 79 78 78
63 63 63 63 63 64 63 64 66 67 67 71 77 81 79 80 82 83 83 83 84 83 83 83 83 82 81 81 80 78 78 78 78 78 78 79 79 80 80 80 80 79 79 78 78 78 78 78 77 78 77 77 78 78 78 78 78 78 78 79 79 79 79
63 62 63 62 63 63 63 63 64 65 66 69 70 73 80 82 82 83 81 82 84 84 83 82 82 81 81 81 80 78 78 78 78 79 79 79 79 80 80 80 81 81 80 79 79 79 79 78 77 78 78 78 78 78 78 78 78 78 78 78 79 78 78
62 62 62 63 63 62 62 62 63 64 65 67 68 70 70 76 83 83 81 82 82 84 84 83 82 81 80 80 79 78 78 79 79 79 79 79 78 79 80 81 80 80 80 80 79 80 80 79 78 79 79 78 78 78 79 78 78 78 78 78 79 79 79
59 59 60 61 61 61 61 62 62 63 64 65 67 67 69 70 70 76 80 82 82 84 84 82 81 80 80 79 78 78 78 78 79 79 79 79 78 78 79 79 79 79 79 79 80 81 81 81 81 79 78 78 78 78 79 78 78 78 78 78 78 79 79
57 57 58 60 60 61 62 62 62 63 64 64 65 66 68 67 69 70 72 81 82 83 83 82 81 79 80 80 78 78 78 78 78 78 78 78 78 78 78 79 80 80 80 79 80 80 79 79 80 80 79 78 78 78 78 78 79 77 72 73 79 78 79
57 56 58 58 59 61 61 61 62 62 62 64 64 66 66 67 67 69 71 73 81 82 83 83 80 80 80 79 79 78 78 78 78 78 77 77 78 78 78 78 79 79 78 78 79 78 78 79 79 80 80 80 79 78 78 79 79 72 67 68 70 78 79
56 57 57 57 58 60 60 60 61 61 62 63 65 65 66 66 67 68 68 70 70 78 84 83 82 80 79 79 79 78 78 78 78 77 77 77 77 78 78 79 78 78 78 78 78 77 79 79 79 79 80 81 80 80 79 79 75 68 66 67 66 70 79
58 57 57 58 58 58 59 60 61 62 62 64 65 65 66 67 67 66 68 68 71 72 77 82 83 80 79 79 79 78 78 78 78 77 78 77 78 78 78 77 77 78 78 79 79 79 77 77 79 79 79 80 79 80 80 80 72 66 66 66 65 66 73
58 58 58 59 59 59 59 59 61 62 62 64 65 67 67 68 67 68 68 70 71 72 73 78 81 80 80 79 79 79 79 78 78 78 78 78 78 78 78 77 77 79 80 80 79 78 78 79 78 78 78 79 79 78 80 79 73 66 64 64 64 64 68
58 58 58 58 58 60 59 59 59 60 62 64 65 66 66 66 67 68 69 70 71 72 72 74 79 79 79 79 79 79 79 78 78 78 78 78 78 77 77 77 78 78 79 81 80 78 77 78 78 78 79 80 80 80 80 81 71 65 63 62 62 63 65
59 60 59 59 59 59 59 60 59 60 61 65 65 65 65 65 67 67 68 71 71 72 72 72 74 76 78 79 79 80 80 79 78 78 78 78 78 78 77 77 77 77 78 79 81 81 80 79 80 79 79 80 81 81 80 82 69 64 62 61 61 62 70
61 60 61 61 62 61 62 61 61 62 63 63 64 64 63 65 66 66 67 69 70 71 72 71 71 71 73 76 79 80 80 80 79 79 79 79 78 78 78 77 77 78 79 79 80 80 80 80 80 80 80 80 80 79 79 81 72 63 61 60 60 62 72
62 62 63 63 63 64 62 62 62 62 63 62 63 63 63 64 65 65 66 67 69 69 70 70 69 70 71 72 74 77 80 80 80 79 79 79 78 78 79 80 80 80 79 79 79 80 81 81 81 81 81 81 80 81 80 81 75 62 60 59 59 65 73
61 62 63 63 63 62 63 62 62 63 63 63 62 62 63 63 64 64 64 65 66 67 67 67 68 69 70 71 73 75 75 78 80 80 80 79 80 80 80 79 80 80 80 81 81 80 81 81 81 81 81 83 82 80 80 82 77 63 60 59 58 64 75
59 61 62 63 65 65 64 64 62 61 61 61 61 62 63 63 63 63 63 64 65 64 64 65 65 68 69 71 73 74 75 76 77 79 80 80 80 80 80 81 81 81 81 81 81 81 81 81 81 80 81 82 82 83 82 82 82 75 60 58 56 59 74
62 62 61 63 63 64 63 63 62 61 61 62 62 62 63 63 62 62 63 63 63 63 63 64 66 67 68 70 72 74 75 77 77 77 80 81 81 82 81 82 81 81 81 81 81 80 80 80 81 81 81 82 83 83 83 83 82 78 61 57 56 57 65
61 62 63 64 64 63 63 63 62 62 62 62 62 63 62 62 61 62 62 62 62 63 64 65 66 67 68 69 71 73 75 76 77 78 79 80 81 80 80 81 81 81 81 81 80 79 78 79 79 80 81 82 82 82 82 82 76 84 65 58 56 56 58
57 59 60 61 62 63 64 62 61 62 62 62 62 63 63 62 61 61 62 61 63 64 65 66 66 66 67 67 69 70 72 73 74 76 79 80 80 80 80 80 80 80 80 79 79 78 78 78 79 79 79 80 81 82 82 81 80 69 75 60 56 54 55
58 59 60 62 63 62 63 61 61 61 62 63 63 62 62 61 60 61 61 60 63 64 66 66 66 66 66 66 67 68 70 71 73 74 76 78 79 79 79 79 80 80 79 79 79 78 77 78 78 78 79 79 80 81 83 82 82 72 67 69 56 55 54
57 57 58 59 60 62 61 60 60 60 61 62 63 62 61 62 60 60 60 61 63 63 64 64 65 65 65 66 66 67 69 70 71 72 74 76 77 78 79 79 80 79 79 79 78 78 78 78 78 77 78 78 79 80 81 82 82 83 71 65 61 56 55
56 57 59 59 59 60 61 61 60 60 60 61 63 62 62 62 61 60 60 62 63 63 63 63 63 64 65 66 67 67 68 69 70 71 73 75 77 78 79 79 80 79 79 78 78 78 78 77 78 78 78 78 79 79 80 80 81 81 80 70 66 61 56
55 56 57 57 59 60 60 59 59 59 60 60 62 62 62 62 62 62 62 62 62 62 62 62 63 63 64 65 66 67 68 68 69 71 73 75 77 78 79 80 80 79 78 79 79 79 78 78 78 78 78 78 79 80 80 80 81 81 82 79 75 73 67
54 55 56 58 58 59 58 58 58 58 59 60 61 61 61 61 62 62 62 62 62 62 62 61 62 62 62 64 65 67 68 69 70 71 72 75 77 77 78 79 80 80 79 79 79 79 79 79 78 78 79 79 80 80 80 79 81 81 81 82 78 76 73
54 54 55 56 58 59 58 58 59 59 59 60 61 61 60 61 62 62 61 61 62 62 61 60 61 62 63 64 65 66 68 69 70 71 73 74 74 75 76 77 80 79 80 83 82 82 82 80 80 80 82 82 80 79 79 80 80 81 72 81 70 76 77
54 54 55 56 57 57 57 59 59 59 59 60 60 60 60 61 61 61 61 62 62 61 60 60 60 61 62 64 64 65 66 67 69 70 70 71 72 73 74 73 64 70 80 80 72 68 66 66 80 83 83 82 82 82 80 80 82 70 61 60 58 58 61
53 54 55 56 56 56 56 57 58 59 59 59 60 59 60 60 60 60 60 61 61 61 60 60 59 60 61 62 62 62 64 65 66 69 70 71 71 72 72 73 75 58 57 64 69 65 58 55 59 62 66 77 81 77 68 67 66 64 57 56 55 55 54
54 54 55 56 56 56 56 57 58 58 59 59 59 59 59 59 59 59 60 61 60 60 60 60 60 59 59 61 62 63 64 65 66 67 68 69 71 72 72 72 73 75 62 56 56 57 54 54 55 55 55 58 66 75 80 66 57 57 55 53 54 53 52

ECMWFFLT1_sfc_temp_105.txt.gz
Temp
87 86 85 85 84 84 85 86 86 87 86 85 85 86 86 86 84 83 83 81 80 80 80 80 81 81 81 82 82 83 83 83 83 83 83 84 84 84 84 85 85 84 86 86 85 85 85 86 86 86 86 86 86 85 85 85 85 85 85 85 85 85 85
75 79 84 87 86 85 85 86 86 87 87 86 86 85 86 86 84 84 83 82 81 81 81 81 81 81 82 82 83 83 82 83 83 83 84 83 83 83 85 84 84 84 84 85 86 85 85 85 86 85 85 85 86 85 86 85 85 85 86 85 85 85 85
71 74 76 79 86 86 85 86 86 87 87 88 87 87 86 84 84 83 83 83 81 82 82 81 81 82 82 82 82 82 83 83 83 83 83 85 84 86 85 85 85 86 87 86 85 86 86 86 85 85 86 86 87 85 85 85 85 85 86 85 85 86 85
68 69 72 77 81 87 87 87 87 88 89 89 88 88 87 84 86 84 84 84 82 82 81 82 82 83 83 82 82 82 82 83 83 85 85 86 85 85 84 84 84 86 85 86 87 87 88 86 85 85 85 85 86 87 87 86 87 86 86 85 86 86 85
69 70 71 74 77 80 87 87 87 86 88 90 90 88 88 87 87 87 86 86 87 84 84 84 86 84 83 83 84 84 83 83 83 84 85 86 85 85 84 86 86 86 86 87 86 85 85 85 86 85 85 85 86 86 86 86 87 86 85 85 85 86 86
69 69 70 72 74 77 80 87 89 89 88 89 89 89 90 90 89 89 88 86 86 87 85 84 84 84 83 84 85 84 84 83 83 83 84 84 84 85 85 85 86 86 87 86 88 87 86 86 87 86 87 88 88 88 88 87 87 87 86 85 85 86 88
68 69 70 72 73 74 78 82 90 91 90 90 91 91 91 91 90 90 90 88 88 85 86 86 86 85 83 84 83 83 83 84 83 83 85 85 85 85 85 85 85 87 88 87 86 87 87 86 86 86 87 88 87 88 87 86 86 86 86 84 84 85 85
69 69 70 72 73 74 75 76 83 92 90 90 90 90 90 91 91 91 90 90 89 89 88 87 86 84 83 84 84 84 84 85 85 85 85 85 85 84 85 85 85 86 86 86 86 86 88 86 88 87 87 88 87 86 87 86 85 87 86 85 84 85 87
71 70 70 72 73 74 74 74 75 78 84 87 88 88 90 90 91 90 90 90 90 89 88 90 88 87 84 84 83 83 85 85 85 84 84 85 86 87 87 87 86 86 85 87 88 87 87 87 88 86 86 86 86 85 86 85 86 87 86 85 85 85 87
68 69 70 72 72 73 73 74 73 74 75 75 79 85 88 89 90 90 91 90 91 90 90 90 89 88 85 84 85 85 85 84 85 86 86 86 87 87 88 89 88 86 86 87 89 87 86 87 87 86 84 85 85 85 85 85 86 86 87 85 86 85 85
67 67 69 70 70 70 71 71 69 69 71 73 76 79 83 89 89 90 90 90 90 90 91 90 89 89 87 86 86 86 84 85 86 86 85 86 88 88 89 89 89 88 87 88 88 89 87 86 86 85 84 86 86 85 85 86 86 86 87 87 87 86 87
66 66 66 68 68 69 68 68 68 67 69 72 75 77 77 79 87 91 90 90 91 90 88 90 91 90 87 88 87 84 85 84 85 85 86 86 88 88 89 89 89 89 88 88 88 88 89 87 87 86 85 85 86 86 86 86 86 85 86 88 88 87 87
67 65 64 65 66 66 67 67 67 67 68 71 74 76 77 78 78 81 87 89 90 90 87 88 88 87 87 88 88 85 84 84 84 85 87 86 87 88 89 89 90 90 89 89 88 88 89 89 87 86 86 85 86 87 86 86 87 85 85 86 87 86 86
67 68 66 64 64 64 64 66 66 67 68 69 72 74 76 77 78 78 78 83 89 91 90 88 87 86 86 86 85 84 84 84 85 86 85 86 85 86 88 89 89 88 88 88 87 88 89 90 89 88 88 87 87 87 87 86 86 85 85 86 87 87 86
66 67 66 65 62 62 63 64 65 65 67 69 71 71 74 74 75 76 78 79 81 89 90 87 85 84 85 85 84 83 83 84 85 85 85 85 84 84 85 87 87 87 87 86 87 90 90 90 91 88 87 87 86 87 87 87 86 86 86 85 85 86 87
65 66 66 65 63 63 62 63 64 64 65 66 67 69 71 72 73 75 77 77 80 80 87 89 85 83 84 85 83 83 83 83 83 84 84 84 83 83 84 86 86 87 87 86 87 87 86 87 88 89 88 86 86 86 87 86 87 82 75 77 85 86 88
64 65 66 65 64 64 63 63 63 64 64 65 66 67 69 70 72 74 76 77 78 79 82 85 86 85 85 84 84 83 83 83 83 83 82 83 83 84 84 84 85 85 84 85 85 85 84 85 86 88 89 88 87 86 87 87 87 75 69 69 71 84 86
63 63 65 65 65 64 63 64 63 63 63 65 66 66 67 68 70 71 72 75 76 79 81 82 84 86 84 85 84 83 83 83 83 82 82 82 82 83 83 84 84 83 83 84 85 83 86 86 85 85 87 89 88 88 87 87 79 69 67 67 67 72 85
64 64 64 65 65 64 64 64 65 64 64 65 65 66 67 68 69 69 71 72 75 78 78 80 83 84 84 84 84 84 83 83 83 82 82 82 82 83 83 82 83 83 84 85 85 86 83 83 85 85 86 87 86 87 89 88 76 68 66 66 65 65 75
65 65 65 66 66 65 64 65 64 65 65 65 67 68 68 68 67 69 71 73 75 76 76 78 80 83 84 84 84 83 84 83 83 82 82 83 83 83 82 82 82 85 86 86 85 83 83 85 84 84 84 85 85 85 87 87 77 67 65 64 64 64 69
64 64 65 65 65 65 65 64 64 64 65 66 67 67 67 67 68 68 69 71 73 75 74 76 76 77 80 84 84 84 84 83 83 82 83 83 83 82 82 82 82 84 85 87 86 84 82 84 84 84 84 86 87 86 87 88 73 65 64 63 62 62 66
65 66 65 65 65 65 65 65 65 64 64 67 67 68 67 66 67 68 68 71 72 72 72 73 73 75 75 76 82 85 84 84 83 83 83 83 83 82 82 82 82 82 84 85 88 87 86 85 86 85 85 86 87 87 86 89 70 65 63 62 61 62 74
67 67 67 67 69 68 68 68 67 67 67 66 67 66 66 67 67 67 68 68 69 70 71 70 70 71 72 74 76 78 83 86 85 83 83 83 83 82 83 82 82 83 84 84 86 87 86 85 86 85 86 86 86 85 85 88 75 63 61 60 60 64 78
68 69 70 69 69 70 70 69 69 69 69 68 66 66 66 67 67 67 66 66 67 69 69 69 67 67 69 71 73 75 77 80 84 84 84 83 83 83 84 85 85 85 85 84 85 86 88 87 87 87 87 87 86 88 86 87 78 62 60 59 59 67 79
67 69 69 70 69 69 70 69 68 68 69 69 67 67 66 65 65 66 66 66 66 67 66 65 65 66 66 68 71 73 74 78 80 84 86 84 85 85 85 84 84 85 86 86 86 86 86 86 87 87 87 89 89 81 84 88 82 63 59 58 58 66 79
65 66 67 70 71 71 69 69 68 68 69 68 67 67 67 66 65 65 66 65 66 65 64 64 64 66 67 67 68 70 72 74 77 80 84 85 85 85 85 86 86 86 86 86 87 86 87 87 86 86 87 89 89 90 88 87 88 79 58 58 56 59 78
66 67 67 68 69 67 69 70 69 68 69 69 67 68 68 67 65 64 65 65 64 64 64 65 65 66 66 67 67 69 70 72 74 77 83 86 87 87 87 87 87 87 86 87 87 86 85 86 87 87 87 88 89 89 90 90 88 83 59 57 56 57 65
65 66 67 68 67 67 69 70 69 69 70 70 70 70 69 67 65 65 65 65 64 65 66 66 66 66 66 67 68 69 70 71 72 73 76 82 84 84 84 86 87 86 86 87 86 84 84 84 85 86 87 88 89 88 88 87 79 90 65 58 56 56 57
62 62 63 64 66 68 69 68 68 69 68 69 70 70 69 67 65 65 65 64 65 66 66 67 66 66 66 66 67 68 68 69 70 71 74 76 79 81 82 84 85 85 85 84 84 83 83 83 84 84 85 86 87 88 88 87 85 71 80 60 56 54 55
62 63 64 66 67 67 68 66 67 68 68 69 69 68 68 67 65 65 65 65 66 66 67 66 66 66 66 66 66 67 68 69 69 70 70 71 73 74 77 80 81 82 84 83 83 83 82 83 83 84 85 85 86 88 89 88 88 75 69 71 55 56 54
60 61 62 63 64 65 65 66 65 66 67 68 68 68 67 67 65 65 64 65 66 65 65 65 66 66 66 67 67 67 69 68 69 69 70 70 71 72 73 77 79 81 83 83 83 83 82 83 84 83 83 84 84 87 89 91 88 89 75 66 62 55 54
61 61 62 63 63 64 64 65 65 65 65 66 67 67 66 66 66 64 64 66 66 66 66 65 65 66 66 67 67 69 69 69 70 70 70 72 72 72 72 74 76 77 81 81 82 83 82 82 82 83 83 84 85 85 87 88 89 87 86 73 68 62 56
60 60 60 60 61 62 62 63 63 64 65 66 67 67 67 66 67 66 65 64 65 65 64 65 66 66 66 65 66 67 68 69 69 69 70 71 72 73 73 73 75 78 78 80 81 82 82 82 82 82 83 83 85 86 86 87 88 88 88 87 83 81 73
58 59 60 61 61 61 61 61 62 63 64 64 66 67 66 65 66 66 66 66 65 64 63 63 65 66 66 65 65 65 67 68 68 67 67 69 71 72 73 74 76 76 77 80 81 81 82 83 82 83 84 85 87 87 87 87 88 87 87 89 87 85 83
58 59 59 59 60 61 60 61 61 62 63 64 66 67 65 64 65 66 65 64 65 65 64 62 63 65 65 65 65 64 66 67 67 67 67 67 69 72 75 76 77 76 77 82 82 81 83 84 85 86 89 89 87 86 86 86 86 87 75 87 73 83 86
57 58 59 60 60 60 60 61 61 61 62 64 66 65 64 64 64 65 65 64 64 64 62 62 62 62 64 66 65 66 66 65 65 65 66 68 68 70 73 72 63 69 77 77 71 65 61 60 78 86 90 89 89 89 87 87 89 74 63 60 60 59 63
56 57 58 59 59 59 60 60 62 62 62 64 65 65 64 63 65 64 64 63 63 62 62 62 61 61 62 63 63 63 63 63 63 65 65 66 67 68 68 70 73 57 55 59 63 60 56 55 55 56 62 79 86 83 69 68 67 64 58 55 56 55 55
57 58 58 59 59 59 60 60 61 61 61 64 65 65 64 65 65 63 63 63 62 62 61 61 61 61 61 61 62 62 62 62 63 63 64 64 64 65 66 67 68 71 63 58 57 55 52 50 51 52 53 56 64 75 86 68 57 58 54 53 53 54 53

ECMWFFLT1_sfc_temp_108.txt.gz
Temp
84 83 85 83 89 90 90 91 92 92 92 91 91 92 93 93 91 91 90 87 86 86 86 86 86 87 86 87 88 88 89 89 89 89 89 89 90 90 90 91 91 90 92 91 90 91 91 91 91 92 92 91 90 90 88 88 88 89 89 88 89 89 88
81 80 79 84 87 90 90 92 92 92 93 92 92 91 93 93 91 91 89 88 87 87 87 86 86 86 87 87 88 88 87 88 89 89 90 89 89 90 91 91 91 90 90 91 92 91 91 91 91 91 91 90 91 90 90 89 89 89 90 88 88 88 89
80 79 79 81 84 85 88 89 92 93 93 93 93 93 93 91 91 90 89 89 87 87 88 87 86 87 87 87 88 87 88 89 89 90 90 92 91 93 92 91 92 93 93 93 92 92 92 91 91 91 91 91 93 90 90 89 89 89 89 88 89 89 88
77 78 78 81 80 83 87 92 93 94 95 94 93 94 92 91 93 91 91 90 89 88 87 88 88 88 88 87 87 87 88 88 89 91 92 92 92 92 92 91 91 93 93 93 94 93 95 92 91 90 90 90 90 92 91 91 92 90 90 88 90 90 88
79 79 78 79 81 83 87 89 92 93 94 96 95 92 93 93 93 93 93 93 94 90 91 91 93 91 89 89 90 90 89 89 89 91 92 92 92 92 91 92 93 92 93 94 93 92 91 91 92 91 90 90 91 91 90 91 91 90 90 89 89 90 91
76 79 78 77 79 81 85 88 92 95 95 95 95 95 96 95 94 96 95 93 94 94 92 91 91 90 89 91 91 91 90 89 89 89 91 91 91 92 92 91 93 93 94 93 95 94 92 92 92 92 92 93 93 93 93 92 92 93 91 89 89 91 92
73 76 78 78 77 79 82 84 89 92 97 95 95 97 98 97 96 95 97 97 96 93 94 93 93 93 90 91 90 90 89 90 90 90 92 92 92 91 92 92 92 94 95 94 93 94 94 92 92 92 93 93 92 94 92 91 91 92 91 89 88 89 90
72 73 77 79 79 80 80 79 83 87 88 92 96 99 97 98 99 98 97 98 98 97 96 96 94 92 90 90 91 91 91 91 92 91 92 92 92 91 93 93 92 92 93 94 93 93 95 93 94 93 93 94 92 92 93 91 90 93 92 90 89 89 93
74 74 74 76 77 78 79 77 77 78 82 85 87 89 95 95 96 97 97 97 98 97 97 98 97 94 91 91 90 90 91 92 92 92 91 93 94 95 95 95 94 93 92 94 96 94 94 94 95 92 92 92 92 91 91 90 91 92 92 91 90 89 91
73 72 73 75 75 77 78 80 77 74 75 80 82 85 88 91 96 97 98 98 98 97 98 98 98 97 92 91 91 92 91 90 92 93 94 94 95 95 96 97 96 94 93 94 96 95 93 94 94 93 90 91 91 91 90 91 91 92 92 91 91 90 89
73 72 72 73 73 73 76 78 76 74 73 74 79 83 85 88 90 95 98 98 98 97 98 97 97 97 95 93 93 93 91 92 93 93 93 94 96 96 97 98 98 96 95 95 96 97 95 92 93 92 91 92 92 91 90 91 92 91 93 93 93 92 92
74 73 72 72 72 71 71 72 75 75 74 73 76 80 81 84 89 90 89 96 98 98 97 97 98 97 96 95 94 91 92 91 92 93 94 95 96 97 98 98 98 98 97 96 95 95 97 95 93 93 91 91 92 92 91 91 91 91 91 94 94 93 93
76 74 74 74 71 69 69 68 70 71 72 75 75 78 81 82 85 86 87 89 95 98 97 96 96 94 95 95 95 92 92 92 91 92 95 94 95 97 97 98 99 99 98 97 96 96 97 97 94 93 93 91 93 94 92 91 92 91 90 92 93 93 92
74 76 76 75 74 72 69 68 68 68 71 73 74 75 78 81 79 82 85 88 89 93 98 97 95 94 93 93 92 91 91 92 92 93 92 94 92 93 96 97 97 96 97 96 95 96 97 98 97 95 95 94 94 93 93 92 92 91 90 91 92 93 93
75 76 75 75 73 72 72 71 67 67 68 70 71 71 74 78 80 81 83 86 88 91 91 94 94 92 93 92 91 90 90 90 92 92 92 92 91 91 93 95 95 95 95 94 96 98 98 98 99 96 94 94 93 93 94 95 93 93 92 91 90 92 93
74 74 74 74 73 74 73 73 70 67 67 67 68 69 72 74 76 79 80 84 90 87 89 89 90 91 91 91 90 90 90 89 89 90 90 90 90 89 91 93 94 96 95 94 95 94 94 95 96 97 96 94 93 93 94 94 95 88 80 82 91 91 94
72 72 73 73 73 73 73 73 73 71 68 67 67 68 68 70 73 76 81 81 84 86 88 90 87 89 90 89 90 89 89 88 88 88 88 88 89 90 89 90 92 92 91 92 92 92 91 92 94 95 97 96 95 93 94 94 95 79 71 72 75 90 92
69 70 72 73 73 73 72 74 73 73 71 70 69 68 68 69 71 72 74 77 80 84 87 87 87 87 87 88 87 88 88 88 88 87 87 87 87 88 88 90 90 89 90 91 91 90 93 92 92 92 95 96 96 95 94 94 84 72 69 70 70 76 91
71 70 71 71 72 71 73 73 74 73 73 74 72 71 70 71 72 71 72 74 77 80 82 85 87 86 85 86 87 83 84 86 87 87 87 87 87 87 87 87 88 89 90 91 91 92 89 89 91 91 92 94 93 95 96 95 80 69 67 68 68 69 80
73 72 71 72 73 72 72 73 73 73 73 74 75 76 73 72 73 74 75 75 76 77 77 79 82 83 82 82 84 86 86 85 85 85 86 87 87 87 87 87 86 90 92 92 90 89 89 91 89 90 89 90 91 91 94 94 81 67 66 66 65 67 72
71 71 70 71 70 71 71 72 72 72 73 76 75 75 74 73 76 75 75 75 75 76 75 76 77 79 80 81 82 83 86 86 85 85 86 87 87 86 86 86 87 88 90 93 92 90 88 89 89 89 90 91 92 92 93 95 76 66 64 63 63 64 69
72 73 72 72 72 72 71 72 72 72 72 75 76 76 76 75 77 77 76 78 78 75 74 73 72 73 75 78 81 82 82 83 84 86 86 86 87 86 86 86 85 86 88 90 94 93 92 91 91 91 91 91 92 93 92 95 73 65 63 62 62 62 77
74 74 74 73 75 75 74 74 73 74 74 75 77 76 77 77 77 77 77 77 79 77 77 74 72 71 70 72 78 80 82 83 82 82 85 87 87 86 87 86 86 87 88 88 91 93 93 91 92 90 92 92 91 91 91 94 78 63 61 60 60 66 82
75 75 76 76 75 77 76 75 75 76 77 75 75 75 75 77 76 76 76 76 78 79 78 77 74 72 70 70 73 75 78 79 81 81 82 84 86 87 88 90 90 90 89 89 89 91 94 94 92 92 92 93 92 93 92 93 81 61 61 59 58 70 83
74 75 75 75 76 76 76 74 74 76 77 77 75 74 75 75 74 75 74 75 76 77 76 74 74 73 72 71 71 72 74 76 78 81 83 82 83 86 86 88 89 90 91 89 91 90 92 92 92 93 93 96 95 85 90 93 84 60 61 58 58 70 84
71 72 73 75 77 76 74 74 74 75 76 76 75 76 76 75 74 73 73 73 74 74 73 73 73 73 74 73 72 72 73 75 75 77 80 81 81 80 76 78 84 90 93 90 89 88 90 93 92 92 94 96 95 96 94 92 94 77 58 58 57 61 82
72 73 72 74 74 71 74 75 76 76 76 76 75 78 78 77 73 72 73 73 73 72 72 73 73 73 73 73 74 73 73 75 75 74 76 80 81 81 77 76 76 76 79 80 90 91 89 89 93 94 92 95 95 95 96 96 93 84 58 58 56 58 68
71 72 74 73 71 71 73 75 74 75 77 77 78 78 77 75 72 71 72 72 72 73 75 74 73 73 73 73 74 75 74 73 73 73 75 76 77 76 76 75 75 77 76 77 77 78 81 85 85 92 91 93 94 95 94 93 84 95 63 59 56 57 58
68 69 69 69 71 73 73 72 72 74 75 77 78 77 76 74 72 71 71 71 72 74 75 75 74 73 73 73 74 75 75 74 73 73 74 73 73 73 74 74 73 74 75 73 73 74 74 74 77 83 87 87 91 94 94 93 89 75 79 60 57 55 56
69 69 70 72 73 72 72 70 71 71 73 74 74 74 75 73 71 71 71 71 74 74 74 74 74 74 73 73 74 75 76 76 76 75 74 72 72 72 72 72 73 72 73 74 73 72 71 72 75 73 74 76 78 85 94 94 94 78 72 70 55 56 55
67 67 68 69 70 70 70 70 68 69 70 72 72 73 73 74 72 71 70 72 73 73 73 73 73 73 73 74 74 75 77 77 76 76 75 73 72 72 72 72 74 73 76 76 73 72 71 72 73 72 74 74 78 78 79 90 94 95 78 66 59 56 54
67 68 69 69 69 69 69 69 68 69 68 69 72 72 73 74 74 71 71 73 73 73 73 72 72 71 72 73 74 75 77 77 79 78 75 74 73 73 73 73 74 73 75 75 74 74 73 72 72 72 72 72 74 76 78 80 86 91 90 75 68 62 56
65 65 65 65 66 66 66 67 67 67 68 68 70 72 73 74 75 74 74 73 74 73 72 72 71 71 71 72 74 74 75 75 78 77 77 75 74 75 76 74 72 74 74 75 76 76 74 72 72 72 71 72 72 74 76 79 79 82 85 88 84 82 73
63 63 64 65 65 66 66 66 66 66 67 66 68 70 71 72 74 75 75 75 75 74 71 70 71 71 71 72 73 73 75 75 74 74 77 77 76 75 76 75 75 74 74 74 74 73 73 73 72 71 71 71 72 73 75 75 76 78 81 93 91 88 87
62 63 63 63 64 64 63 64 65 65 66 67 69 70 70 71 73 75 74 74 75 73 70 69 69 70 70 71 72 72 73 73 74 77 76 75 74 76 77 76 76 73 72 74 74 74 73 74 73 72 73 73 73 72 73 74 76 79 67 79 74 85 91
61 62 62 64 64 65 64 64 64 65 66 67 69 69 69 70 72 73 75 75 75 73 70 69 68 69 70 71 72 73 73 72 72 73 73 75 75 75 76 72 62 66 71 71 67 62 58 56 68 72 73 73 74 75 73 73 75 65 58 58 61 60 64
60 60 61 63 63 64 64 64 65 65 65 67 68 68 69 69 71 72 73 73 72 72 70 69 68 68 70 70 71 70 69 69 69 70 71 73 74 73 72 74 74 55 52 56 60 57 51 49 50 51 55 65 70 70 63 61 59 56 55 54 56 56 56
62 62 62 62 62 62 63 64 65 65 65 67 68 68 69 71 72 72 73 72 71 70 69 69 68 68 69 70 69 68 68 69 68 69 69 70 72 72 72 72 70 73 63 56 56 54 51 50 49 49 49 51 55 62 71 64 57 55 55 54 53 53 53

ECMWFFLT1_sfc_temp_111.txt.gz
Temp
82 81 77 79 77 80 79 78 77 91 92 92 93 96 96 96 94 93 92 89 88 87 88 89 89 89 89 89 90 90 91 90 90 91 90 91 91 91 91 92 91 91 92 92 91 91 92 93 93 94 92 92 91 90 89 89 89 90 89 90 90 89 89
84 82 82 81 76 80 81 78 80 90 91 93 93 93 96 95 94 94 92 90 89 89 89 89 89 89 89 89 90 90 89 90 90 90 91 90 91 92 92 92 92 91 91 92 92 92 93 93 93 92 92 92 92 90 90 90 89 89 90 89 89 89 89
85 85 85 85 85 83 79 76 80 90 89 90 90 92 94 93 94 94 92 90 89 89 90 90 89 90 90 90 90 90 90 91 91 91 91 93 92 95 94 93 93 94 94 94 93 94 94 93 92 92 92 92 94 91 90 90 89 90 90 89 89 90 88
83 84 85 84 84 88 83 81 86 89 91 91 89 91 94 93 95 94 94 92 91 90 89 91 91 91 91 90 90 90 89 90 91 92 94 94 94 94 93 93 93 94 93 94 95 95 97 93 93 91 91 91 91 92 92 91 90 91 90 89 90 90 89
83 85 84 84 83 83 89 88 85 86 87 85 90 92 87 87 94 94 95 95 95 93 93 94 95 94 92 92 93 92 91 91 91 93 93 94 93 93 93 95 94 94 94 95 94 93 92 92 93 92 91 91 92 92 92 92 92 91 90 89 89 91 89
80 82 84 84 82 80 84 85 85 86 86 82 82 85 84 85 88 90 91 95 96 97 94 94 94 93 92 93 93 94 92 91 91 91 93 93 93 94 94 94 96 95 96 95 96 95 94 94 93 93 93 94 94 95 94 93 93 92 91 89 90 91 92
77 79 81 84 84 82 80 83 88 90 87 83 83 84 89 89 88 91 94 93 97 94 95 94 96 95 92 93 92 93 91 93 92 93 94 95 94 94 94 94 94 96 97 95 95 96 95 94 93 93 94 95 93 95 93 92 92 92 91 90 89 90 89
75 77 79 82 84 84 80 80 84 85 88 85 79 85 89 92 95 96 96 92 87 96 93 96 94 93 91 93 94 94 93 93 94 93 94 95 95 94 95 95 94 95 95 96 95 95 96 94 95 94 94 95 93 93 95 93 91 94 93 90 90 90 94
76 76 77 78 80 82 82 79 80 81 80 84 81 87 90 88 90 95 94 97 98 97 95 94 95 95 91 93 93 93 94 94 94 94 94 95 96 97 97 97 96 95 95 96 97 96 96 96 96 93 93 93 92 92 92 92 93 93 93 92 90 90 92
76 75 75 76 75 79 82 81 79 78 78 80 84 85 85 85 85 85 83 86 94 98 90 93 96 94 93 94 94 95 94 94 94 96 96 96 97 97 98 99 97 96 96 97 99 97 95 96 96 95 92 93 92 92 91 92 93 93 93 92 92 91 90
77 76 75 76 75 74 76 78 78 77 77 77 80 84 83 81 80 84 85 82 79 84 98 97 97 94 93 93 94 95 94 95 96 96 96 97 98 99 99 99 100 98 97 97 98 99 97 94 95 94 93 94 93 92 91 92 92 92 93 93 93 92 92
76 76 75 75 75 74 72 73 76 77 77 78 78 80 82 82 79 81 81 85 88 85 81 87 92 92 90 96 94 94 95 94 96 96 97 97 99 100 100 100 100 100 98 98 97 98 100 96 95 95 93 93 93 93 92 92 92 91 92 94 94 93 93
80 76 75 75 75 75 73 72 73 75 75 78 80 80 82 83 83 80 78 81 83 81 85 82 82 84 91 90 91 91 93 95 94 96 98 97 98 100 100 100 101 101 100 99 98 98 99 100 96 95 95 93 94 95 94 92 93 91 91 92 93 93 92
78 79 78 77 76 76 75 74 74 74 74 75 77 79 80 80 79 82 83 78 80 84 83 87 87 85 88 95 92 89 92 92 93 96 95 97 95 96 99 100 100 99 99 99 97 98 99 100 99 98 97 95 95 94 94 93 93 92 91 92 93 94 93
79 79 78 78 76 75 75 75 74 75 75 75 75 75 78 77 76 77 82 83 82 80 80 86 86 85 87 89 87 88 87 90 94 95 95 95 95 95 96 98 98 98 98 98 99 101 100 100 101 98 96 96 94 94 96 96 94 94 93 91 91 93 94
78 79 78 77 76 77 76 76 76 76 76 75 75 74 77 77 75 74 76 80 84 82 81 84 84 83 82 80 82 84 92 92 92 93 93 93 93 93 94 96 97 99 98 98 98 97 96 96 98 100 98 96 94 95 96 96 97 89 82 83 92 92 95
76 77 77 77 76 76 76 76 76 76 76 76 76 75 75 75 76 75 75 77 81 83 82 82 83 85 85 83 80 83 91 91 91 91 90 91 92 93 93 93 95 95 94 95 96 94 94 96 97 98 99 99 97 95 96 96 97 82 74 74 78 91 92
73 75 76 76 76 76 76 77 76 76 76 78 78 76 75 74 75 75 74 75 77 82 85 85 82 80 78 77 79 79 79 86 90 89 89 90 90 91 91 93 92 92 93 94 96 93 96 96 95 95 98 99 99 98 96 96 86 74 72 73 72 78 92
76 74 75 75 75 74 76 77 77 76 77 78 80 79 78 78 78 76 77 76 76 78 80 83 84 80 78 77 76 77 78 79 86 88 88 88 89 89 90 90 91 91 92 94 95 96 93 91 94 94 95 96 95 98 98 97 83 71 69 70 70 71 82
76 76 75 75 76 76 75 76 76 76 77 77 80 83 82 80 80 79 80 81 80 78 77 79 80 79 78 78 77 76 77 79 79 84 87 87 88 89 89 89 89 92 94 94 93 92 93 94 92 93 92 93 94 93 97 96 84 70 67 68 68 69 74
75 74 74 74 74 75 74 74 75 75 77 80 80 81 81 80 82 81 81 82 82 82 79 80 79 77 76 76 77 78 78 78 77 76 80 85 88 86 86 88 88 90 91 94 94 92 91 92 92 92 93 95 95 94 97 99 78 67 66 65 65 67 71
76 77 75 75 75 75 74 75 74 75 76 79 81 82 81 81 81 82 82 84 83 83 82 79 78 78 76 75 76 76 77 78 78 78 80 78 80 85 86 87 85 87 88 89 93 93 93 94 93 92 93 94 95 95 94 98 76 65 65 63 64 66 79
78 78 78 77 79 78 77 77 76 77 77 79 81 80 80 81 81 81 81 82 83 82 82 80 78 78 76 76 76 76 76 77 79 79 79 79 79 79 78 77 77 80 81 81 82 82 82 83 90 90 93 93 94 93 93 96 81 64 62 61 62 68 84
79 79 79 79 78 80 78 77 78 79 80 79 78 78 79 81 80 80 78 79 82 82 81 80 77 77 77 77 79 77 77 77 78 78 79 80 80 77 74 75 76 75 74 76 77 75 80 77 76 77 78 83 87 95 94 94 84 61 60 60 60 71 84
78 79 79 78 78 78 77 76 77 79 80 80 79 78 79 79 78 78 77 78 79 80 78 77 77 76 76 78 79 79 79 77 77 76 77 77 78 78 74 74 77 78 78 77 77 77 78 79 78 78 81 82 80 77 81 91 88 59 60 58 58 70 85
75 76 77 79 80 77 76 76 77 78 79 79 78 79 80 80 78 76 75 75 77 77 76 76 76 77 78 78 78 79 79 80 78 77 77 76 77 77 77 77 77 78 79 79 79 78 78 79 80 80 79 80 79 85 83 79 81 75 56 58 57 62 83
76 76 76 77 77 74 77 78 77 77 78 79 78 81 82 81 77 75 75 75 75 75 75 76 76 77 77 78 79 80 80 82 81 79 79 79 76 75 76 76 75 75 75 75 78 79 78 79 79 80 80 81 83 82 80 82 79 77 59 55 55 58 68
75 76 77 76 74 75 76 77 76 77 79 78 79 80 80 77 75 75 75 74 74 76 78 77 77 77 77 77 78 79 80 80 80 81 82 79 77 75 73 74 75 76 77 78 78 77 78 79 79 80 81 82 83 82 81 81 75 78 64 57 55 55 59
72 72 72 73 74 76 76 74 75 76 76 77 78 77 77 76 74 74 74 74 75 78 78 78 77 76 76 76 78 78 79 79 80 81 83 81 78 75 73 74 75 75 76 76 76 76 77 78 79 80 80 81 81 82 82 82 79 67 74 58 55 55 54
72 72 73 75 76 74 74 73 73 73 74 76 75 75 75 74 73 73 73 73 77 77 77 77 77 76 76 76 76 77 79 80 81 81 81 80 78 77 75 73 73 73 73 74 75 76 76 76 77 77 78 79 79 81 82 81 80 71 69 68 55 54 54
70 70 71 71 72 72 72 71 70 71 72 74 73 74 74 74 73 73 72 75 77 76 76 76 76 75 75 76 77 77 79 79 79 79 80 81 79 77 76 76 76 73 73 72 74 75 76 76 77 76 77 78 79 79 79 81 79 79 70 64 62 55 53
70 70 71 71 71 71 70 70 70 70 70 71 73 73 74 73 73 72 73 76 77 77 77 76 75 73 73 75 77 78 79 79 81 82 81 80 80 79 78 77 77 75 74 73 74 75 75 75 76 76 77 76 78 78 78 79 79 78 78 70 66 61 56
67 68 68 67 68 68 68 69 68 68 69 69 71 72 73 73 74 74 74 75 77 78 77 76 75 73 73 73 76 77 78 78 79 79 79 80 81 82 81 81 78 76 74 73 74 73 73 75 75 74 74 75 76 77 77 77 77 77 77 78 76 72 68
66 66 67 67 67 68 68 68 67 68 68 67 69 71 72 73 74 75 75 77 78 79 77 75 75 74 73 73 75 76 78 78 76 76 78 80 80 79 80 81 82 80 75 73 73 72 71 71 71 71 72 73 75 76 76 76 76 77 76 77 77 77 75
66 66 66 66 66 67 66 66 67 67 68 69 70 71 71 72 74 74 74 75 76 76 75 75 75 74 73 73 74 75 76 77 77 79 78 77 77 78 78 79 80 78 77 77 75 74 73 72 70 70 71 71 71 72 73 75 76 78 71 74 64 70 73
64 65 66 66 67 67 66 66 66 66 67 68 70 70 70 71 72 73 75 75 75 75 74 74 73 73 72 73 74 75 76 75 75 76 76 77 77 76 77 74 64 69 77 76 71 64 57 57 68 72 72 70 71 73 71 73 76 65 58 55 54 53 54
63 64 64 65 65 65 64 65 66 66 66 67 68 69 70 70 72 72 74 75 75 75 74 73 72 72 73 73 74 73 73 73 74 74 74 74 75 75 73 74 75 58 54 62 64 60 54 50 49 50 53 61 68 69 61 60 58 54 52 52 51 51 50
65 64 64 65 65 64 64 64 65 64 64 65 67 68 69 71 73 72 74 75 75 75 73 73 72 71 73 74 74 72 71 73 72 73 73 73 74 73 72 73 72 74 59 49 55 57 51 50 49 48 48 49 54 62 69 62 55 52 52 51 50 49 49

ECMWFFLT1_sfc_temp_114.txt.gz
Temp
86 82 80 80 79 81 80 80 80 80 82 83 82 84 90 93 91 88 88 86 85 85 86 86 86 86 86 86 87 87 87 87 87 87 87 87 87 86 87 88 88 86 88 88 87 87 86 88 87 88 88 87 86 86 87 87 86 87 87 86 85 85 86
82 80 82 82 82 82 83 81 80 81 83 84 82 80 84 90 90 90 88 87 86 86 86 86 86 86 86 86 87 87 86 87 87 86 88 86 87 87 88 88 87 86 87 88 88 88 88 89 89 88 88 88 88 87 88 87 87 87 87 86 86 84 86
77 77 80 83 83 83 81 82 83 83 81 81 83 84 86 86 89 89 88 88 86 86 87 87 86 87 87 86 86 86 87 88 88 88 88 89 89 92 90 88 89 89 90 90 89 90 90 89 89 88 89 88 89 87 87 87 87 87 87 86 86 86 85
76 75 74 81 83 82 81 81 81 84 82 78 78 79 83 82 88 90 90 89 87 86 86 87 88 88 88 87 87 86 87 87 88 89 90 90 90 91 89 89 88 90 89 90 92 91 93 89 89 88 89 88 88 87 87 87 88 87 87 86 86 86 85
79 77 76 78 81 80 79 79 78 80 81 80 81 80 84 82 86 93 93 92 90 88 89 90 91 90 89 89 90 89 88 88 88 89 90 90 89 90 90 91 91 91 90 92 90 89 88 88 89 88 88 88 89 88 88 88 88 87 86 86 86 87 86
79 77 76 78 79 80 80 79 79 79 80 83 85 88 87 91 93 94 93 91 91 92 89 88 90 89 89 90 90 91 89 88 88 88 89 89 89 91 90 90 92 91 93 91 92 92 91 90 90 89 90 91 90 91 90 89 89 88 87 86 86 87 88
78 78 75 77 79 78 79 79 79 77 77 85 88 89 90 91 91 93 94 93 91 89 89 89 90 91 90 90 89 90 88 89 89 89 90 91 91 91 90 90 90 92 93 91 91 91 92 90 90 89 90 91 89 91 88 87 88 88 87 86 85 86 87
75 76 77 80 77 78 76 76 77 80 81 85 87 89 88 89 91 89 92 93 93 92 92 92 91 90 90 90 91 91 91 91 91 90 90 91 92 91 91 91 90 91 91 93 91 91 93 90 92 91 90 91 89 88 90 88 87 90 88 86 85 86 90
76 76 76 78 79 81 79 75 74 75 78 80 83 84 87 90 90 90 91 90 90 89 87 86 81 77 80 90 90 90 92 91 91 90 91 92 92 93 94 94 93 92 91 93 94 92 92 92 92 89 89 89 88 87 89 87 88 89 88 87 86 86 88
74 74 75 78 79 79 80 78 74 73 73 76 80 82 83 85 88 88 87 88 89 86 86 87 83 79 79 77 84 93 92 91 91 92 92 92 93 93 94 95 95 93 93 94 95 94 91 92 91 90 87 89 88 88 88 88 89 89 89 88 88 87 86
74 74 74 75 75 75 76 77 76 74 72 74 76 81 82 82 83 86 85 84 83 83 85 86 85 83 81 81 79 80 83 88 93 93 92 93 94 95 95 96 96 94 94 94 95 95 93 90 91 89 88 91 89 88 88 89 89 88 90 90 90 89 89
74 74 73 73 74 74 74 74 76 75 75 75 76 77 76 79 82 83 84 86 86 85 83 85 86 84 83 83 82 81 84 84 84 90 94 93 95 95 96 96 96 96 95 95 93 94 96 92 92 91 89 89 89 89 88 88 88 88 88 91 91 90 90
76 75 74 75 74 74 74 73 74 75 75 75 75 76 76 77 77 80 80 82 84 83 83 83 82 82 82 83 84 82 81 82 82 84 91 94 94 96 96 97 97 98 96 95 94 94 96 96 92 91 91 89 91 91 90 88 90 87 88 89 90 89 89
76 77 76 75 74 74 73 73 74 74 74 75 75 75 75 75 76 75 78 79 81 84 84 82 81 80 80 79 79 79 79 80 80 80 78 85 91 93 96 97 96 95 95 95 94 95 95 97 95 93 93 92 92 91 91 88 89 88 87 88 89 90 89
78 78 77 77 74 73 74 74 74 74 75 75 75 73 71 71 72 73 74 75 80 80 81 82 82 80 79 77 76 76 77 78 79 77 78 78 81 89 92 94 94 94 94 93 95 97 96 97 98 94 92 92 90 91 92 92 90 90 89 88 88 89 90
77 77 76 76 76 76 75 75 75 75 76 75 74 72 73 74 73 73 73 74 78 80 80 82 81 80 77 76 76 77 78 78 78 77 78 79 80 78 80 88 94 97 95 95 95 93 92 92 93 96 93 91 90 91 93 92 93 87 81 82 88 88 91
76 76 75 75 75 76 75 75 75 76 76 76 75 75 73 74 76 75 77 75 77 79 81 83 79 79 80 78 77 76 78 78 78 76 75 77 77 77 77 75 77 87 90 91 92 91 90 91 93 95 96 94 93 91 92 93 94 80 73 74 78 88 88
73 74 75 74 75 75 75 75 75 76 77 78 78 77 76 76 76 78 78 79 78 80 81 81 80 78 78 77 78 77 77 76 77 77 76 76 76 77 77 77 76 75 77 84 91 90 93 93 91 91 94 96 95 94 93 92 86 73 71 73 72 78 88
73 73 74 74 73 73 75 75 75 75 77 79 79 78 79 80 79 78 79 79 80 81 80 80 79 77 76 76 77 77 77 78 78 77 76 75 76 77 77 77 76 76 76 74 75 79 86 89 91 90 92 93 90 93 94 93 82 71 69 70 70 71 81
76 75 74 75 75 74 73 74 75 76 77 77 80 81 81 80 81 80 81 81 81 81 79 79 78 77 77 76 76 76 76 76 77 77 77 77 77 77 77 76 76 76 76 76 76 77 77 82 87 90 89 90 90 88 92 92 81 70 67 68 68 69 74
74 73 73 73 72 73 73 73 74 75 76 79 80 80 80 80 81 81 81 82 82 82 79 78 77 76 76 75 75 75 76 76 76 76 77 77 77 77 76 75 76 77 76 76 76 77 78 79 77 79 81 84 87 88 91 95 78 68 66 66 65 67 71
76 76 74 75 74 73 72 73 73 74 76 79 80 80 80 79 80 81 81 83 83 81 80 78 76 76 75 76 77 76 75 75 76 76 76 75 76 75 75 75 75 75 76 76 77 78 79 80 81 80 81 81 81 81 81 86 69 66 64 62 63 66 76
78 77 77 76 78 76 75 75 75 76 77 78 79 79 79 80 80 79 79 80 81 81 80 78 75 75 75 76 78 78 78 77 75 75 75 75 75 75 75 74 74 75 76 76 77 78 79 81 81 81 81 82 81 81 80 82 75 69 63 60 60 65 79
79 79 79 78 78 78 76 76 77 78 79 78 76 77 78 81 79 78 76 77 79 80 78 77 75 75 75 76 78 78 78 78 78 76 76 75 74 74 74 75 75 74 77 76 77 77 80 80 80 81 81 81 81 82 81 83 78 66 62 57 58 66 80
78 78 78 78 77 76 76 76 76 78 79 78 76 76 78 78 77 77 75 76 77 78 76 75 74 75 75 76 77 79 79 79 78 77 77 75 74 74 73 74 75 75 75 75 77 78 79 80 80 81 82 84 83 83 82 83 79 63 60 56 57 64 77
75 76 77 78 77 77 76 76 76 76 77 77 75 77 78 77 76 74 74 74 75 75 74 74 74 75 76 76 77 78 79 79 78 77 78 76 76 75 74 74 75 74 74 75 77 76 75 76 79 80 82 85 85 85 84 83 84 73 58 56 55 58 75
76 76 75 76 75 76 76 76 76 75 77 76 75 78 78 77 74 73 73 73 74 73 74 75 75 75 75 76 77 78 79 80 79 79 80 79 76 75 75 75 73 72 72 73 76 77 77 78 79 79 81 83 85 85 84 85 84 79 57 55 54 55 61
75 76 76 75 75 75 74 75 74 75 76 76 77 76 76 74 72 72 72 72 73 74 77 76 76 75 75 75 76 78 79 79 79 80 81 80 79 75 74 75 74 74 72 71 73 74 75 76 77 79 80 82 83 83 84 85 81 84 63 57 54 54 54
71 71 72 73 73 74 73 72 72 73 73 75 75 75 74 73 71 71 72 71 73 76 77 77 76 75 75 75 75 76 77 78 79 80 82 80 79 77 76 75 75 74 73 72 72 72 73 74 76 77 78 80 81 82 84 84 83 72 76 59 54 53 52
71 71 72 73 74 72 72 71 71 71 72 73 72 73 73 72 70 70 70 71 74 76 77 76 76 76 75 74 74 75 77 79 79 79 79 79 78 77 76 75 75 74 73 73 73 72 72 73 75 76 77 77 78 80 82 83 83 76 71 72 55 53 52
70 69 70 70 70 70 70 70 69 70 70 71 71 71 71 72 70 70 69 72 74 73 75 76 76 76 75 74 74 75 77 77 77 78 79 78 77 76 76 76 77 74 75 75 74 73 72 74 75 75 76 76 77 78 80 82 81 82 72 65 62 54 53
68 69 70 69 68 68 68 69 69 69 68 69 71 71 71 71 71 69 70 73 74 74 74 75 75 75 75 75 75 75 76 77 79 80 78 78 78 78 78 77 76 76 76 75 74 74 73 73 72 72 73 73 74 75 75 77 80 80 81 75 71 63 54
67 67 67 66 66 67 66 67 67 67 68 68 69 70 72 71 72 71 72 72 74 74 74 73 73 73 74 74 75 75 75 75 77 78 78 78 79 78 78 78 77 76 76 76 75 73 72 72 71 71 71 71 71 73 75 76 77 78 79 79 78 77 71
66 66 66 66 67 67 66 66 65 66 66 66 67 69 69 70 71 72 72 73 74 74 73 72 72 73 73 75 75 74 75 75 76 76 76 77 77 77 77 78 78 76 74 73 73 73 72 72 71 69 69 69 71 71 72 73 75 76 77 78 78 78 78
65 65 65 65 66 66 66 66 65 65 65 66 67 68 67 68 70 72 71 72 73 72 71 71 71 72 73 74 73 72 73 74 75 75 74 74 75 76 76 76 76 74 74 76 75 74 74 72 71 71 71 71 70 69 70 72 73 74 61 65 61 71 77
65 65 65 66 67 66 66 66 65 65 65 65 66 67 67 68 68 70 72 73 73 72 71 71 71 71 72 73 73 73 74 73 73 73 72 74 73 74 75 75 66 68 73 73 71 66 59 60 69 72 72 69 69 70 68 69 72 62 55 54 53 52 52
64 64 64 65 64 65 64 64 65 64 64 64 65 65 65 66 68 70 71 72 72 72 71 71 70 71 72 72 73 72 72 71 71 71 71 71 72 72 71 72 73 59 55 58 63 58 52 49 50 51 53 61 66 66 61 59 56 52 51 50 51 49 48
65 65 65 65 65 64 64 64 64 63 63 64 64 64 64 66 68 69 71 72 72 72 71 70 69 70 71 72 71 69 69 70 70 70 70 70 70 71 71 71 70 71 63 56 53 53 49 48 48 49 49 49 54 61 65 60 54 51 49 48 47 47 47

ECMWFFLT1_sfc_temp_117.txt.gz
Temp
80 76 76 76 76 77 75 76 76 76 78 80 80 85 87 86 83 82 81 81 80 79 79 79 80 80 80 79 79 80 80 79 80 79 80 80 81 81 80 81 81 80 80 79 80 80 80 82 82 82 82 82 81 81 81 81 81 83 81 80 80 81 80
75 77 78 78 77 77 77 76 77 78 78 79 79 80 83 83 83 83 81 81 81 80 80 80 80 80 81 80 80 79 79 80 80 81 81 80 81 81 81 81 81 80 81 81 80 81 82 82 82 81 82 82 82 81 82 81 81 80 81 80 79 79 80
72 72 75 78 78 77 76 76 77 78 78 79 80 80 81 79 83 82 82 82 81 81 81 80 80 81 81 80 79 80 80 80 80 81 81 81 82 84 83 82 81 83 83 83 83 82 83 82 82 82 82 82 83 81 81 81 81 81 80 80 80 79 79
69 71 72 77 77 77 77 77 78 80 79 78 79 80 80 79 82 82 83 83 82 81 81 81 81 81 81 80 80 79 80 80 81 82 82 82 82 82 82 82 82 83 83 82 85 85 87 82 83 81 83 81 81 83 82 82 82 81 80 80 80 80 79
69 71 73 76 77 75 75 75 77 77 77 79 77 77 78 80 82 84 85 84 84 83 83 83 84 83 82 82 83 82 81 81 81 81 82 82 82 82 81 83 83 83 83 84 82 84 81 82 82 82 82 82 81 82 82 81 81 81 80 80 80 80 80
68 69 71 75 76 76 76 76 77 77 77 79 78 78 79 82 82 84 86 85 85 85 84 82 83 83 82 83 83 84 81 81 80 80 82 81 81 83 82 82 83 84 83 84 83 85 82 83 83 82 83 83 83 83 82 82 82 83 81 81 81 80 81
71 72 72 74 75 74 73 73 75 77 76 79 80 82 82 83 83 85 85 86 86 84 84 83 82 83 83 84 83 82 81 82 81 81 82 83 82 82 83 82 82 85 84 84 83 85 83 83 84 83 83 84 82 83 82 81 81 82 81 80 80 80 80
71 71 74 75 75 74 73 73 73 75 77 78 78 77 79 82 84 85 86 84 87 86 85 83 81 80 81 84 84 83 83 84 83 83 82 83 83 81 83 83 82 83 84 84 84 84 85 84 85 84 84 84 82 81 82 82 81 83 81 80 80 81 84
73 73 73 74 75 74 74 72 72 72 73 74 76 77 80 81 80 77 76 76 80 81 79 80 81 81 81 80 81 82 84 84 84 84 83 84 83 84 84 84 85 83 84 84 85 84 85 84 85 82 83 83 82 82 81 81 82 82 82 81 80 80 82
72 71 72 74 74 74 73 73 73 70 70 71 72 74 75 75 74 74 73 73 73 74 76 80 79 79 78 77 78 80 81 82 84 85 85 85 85 85 86 86 86 85 84 84 85 85 83 84 85 82 81 82 81 81 82 81 82 82 82 81 81 81 80
71 71 71 72 72 72 72 71 71 70 69 69 71 73 74 74 73 74 74 75 75 75 75 75 76 76 78 78 78 77 77 80 83 84 84 86 87 86 87 87 87 86 87 86 86 86 85 83 84 83 82 84 82 81 81 81 82 82 82 82 82 82 82
70 71 70 70 70 70 70 70 70 69 70 70 70 70 70 72 72 73 72 75 77 76 75 75 77 78 78 80 78 77 78 79 78 79 79 79 81 84 86 87 88 86 88 88 87 85 86 85 84 84 82 83 83 82 81 81 81 81 82 83 83 82 83
71 70 70 70 69 70 70 70 70 69 69 70 70 70 70 69 71 71 71 74 75 75 76 78 78 75 74 77 80 77 77 76 76 76 78 78 78 80 81 82 85 88 88 89 88 89 87 87 85 84 84 83 84 84 82 82 82 80 81 82 83 83 82
71 70 70 70 71 71 71 70 70 68 69 70 69 70 69 70 70 71 72 72 73 74 74 76 77 77 76 75 75 75 75 76 76 76 76 78 78 78 79 80 80 80 82 85 88 89 89 88 87 85 85 85 85 84 84 82 82 81 80 81 82 83 82
71 71 70 70 69 69 71 71 69 69 69 69 69 68 69 69 70 70 72 73 72 72 72 73 74 75 74 74 74 74 75 75 76 75 75 77 76 76 76 77 77 78 78 78 80 84 86 90 89 87 85 85 84 84 85 84 83 83 83 82 81 82 81
72 72 72 71 71 71 72 72 72 71 71 70 69 68 69 69 70 70 71 71 72 72 73 73 74 74 74 74 73 74 75 75 74 73 74 74 74 74 76 76 76 78 77 77 79 78 78 79 83 86 87 85 84 84 86 85 85 83 80 80 83 82 85
70 70 71 72 71 72 72 72 73 72 71 71 69 68 70 72 73 72 72 72 72 72 73 73 73 73 73 73 74 74 75 75 74 74 73 73 73 73 74 74 75 75 75 75 76 76 77 78 80 82 86 87 86 84 86 87 88 79 72 73 76 84 82
68 69 69 69 69 70 71 72 73 73 73 73 72 71 71 71 73 73 72 73 73 73 73 73 72 72 72 72 73 73 73 73 74 74 73 74 73 73 74 74 73 73 75 75 75 75 79 80 80 79 82 87 87 87 86 86 83 74 70 72 71 77 84
68 68 68 68 67 67 69 70 71 71 73 74 74 73 74 76 76 75 75 74 75 75 74 73 72 72 72 72 72 72 72 73 74 74 74 74 75 75 75 74 74 74 75 75 75 75 76 78 80 80 79 81 81 86 87 87 78 72 70 70 70 70 79
69 69 68 68 68 67 65 67 68 69 70 71 74 76 76 75 76 76 77 75 74 74 73 73 73 73 73 73 72 72 73 73 73 73 73 73 74 75 75 74 74 75 76 75 74 74 75 78 79 79 78 78 78 77 80 82 79 70 67 67 68 69 73
67 66 66 65 64 65 64 65 66 67 70 73 73 73 73 74 75 75 75 76 75 74 73 73 73 72 72 72 71 72 72 72 72 72 73 73 72 73 74 73 73 74 75 75 75 74 74 75 75 76 77 79 79 79 80 81 68 69 67 65 63 64 68
70 69 67 66 65 64 64 66 65 67 69 72 73 74 73 72 74 74 74 77 76 74 73 72 71 72 72 71 72 72 72 72 71 72 72 72 72 73 72 73 72 73 74 74 75 75 75 75 77 77 77 77 78 78 78 80 68 70 66 65 65 65 70
71 71 69 68 70 68 67 67 67 69 69 69 71 71 72 73 73 72 73 74 75 73 73 71 70 70 70 71 73 73 74 74 73 72 72 72 72 72 72 72 72 72 74 74 74 75 75 76 77 76 77 77 78 77 76 78 71 66 66 64 61 65 72
73 72 72 70 69 70 68 68 69 71 71 69 68 69 70 72 72 71 69 71 73 73 71 70 68 69 69 70 72 73 73 74 74 73 72 72 71 71 71 72 72 72 74 73 73 73 75 76 76 77 77 77 77 78 78 79 77 68 62 61 60 67 73
72 72 71 70 70 69 69 68 69 71 70 70 68 68 69 68 68 69 68 69 70 71 69 68 68 68 69 70 71 72 73 73 73 73 74 72 72 72 71 71 72 72 71 70 71 72 74 75 75 76 77 79 79 81 79 79 78 69 66 63 57 63 72
68 69 70 70 71 69 68 68 68 69 69 68 67 70 69 68 67 67 67 67 67 68 67 67 67 68 69 69 70 71 72 73 73 73 74 72 72 72 72 72 71 70 70 70 71 70 71 73 74 74 76 78 79 81 80 79 79 77 65 60 57 58 72
70 69 69 70 69 70 68 68 67 67 68 66 67 69 69 68 66 65 66 66 65 66 67 68 68 68 68 69 70 71 72 73 73 73 74 74 72 73 73 73 71 70 70 69 69 70 71 72 73 74 75 77 79 79 80 81 79 78 65 59 58 57 62
69 70 71 70 70 69 67 68 66 67 67 67 68 68 67 66 65 65 65 64 65 66 69 68 68 68 68 67 69 70 72 72 72 74 75 74 74 72 71 72 72 72 70 69 69 69 70 72 72 72 73 76 77 78 79 81 81 78 68 59 57 56 54
65 65 65 66 66 67 68 65 65 66 65 66 67 66 66 65 64 64 64 62 65 67 68 69 68 69 68 68 68 69 70 70 72 73 76 75 72 71 71 71 72 72 72 71 70 70 70 70 71 72 72 74 75 77 78 79 75 67 71 65 57 55 53
65 65 65 67 66 65 66 63 64 64 64 65 64 64 64 63 62 64 63 62 66 66 68 67 68 68 69 68 68 68 68 71 72 72 72 71 71 71 71 70 71 72 72 71 70 70 70 70 70 70 70 70 71 73 75 75 72 72 69 69 61 55 53
63 63 63 62 63 63 63 62 61 62 63 64 64 64 64 63 62 63 62 64 66 66 66 67 68 68 68 68 68 68 69 69 69 69 69 70 71 70 70 70 71 70 71 72 71 71 70 69 70 68 68 68 69 69 70 71 72 73 71 66 64 58 55
61 62 63 62 61 62 62 61 61 61 61 61 63 63 64 63 63 62 62 65 65 67 66 66 66 67 67 67 68 68 69 68 70 71 70 70 70 70 70 70 70 69 69 69 69 69 69 68 68 68 68 67 68 68 68 69 71 72 74 74 72 68 60
59 59 59 58 60 61 60 60 60 60 60 60 61 62 63 63 64 64 64 64 66 66 65 65 66 66 66 66 67 68 67 66 68 68 69 69 70 70 70 70 69 69 68 68 67 66 67 69 68 67 67 67 67 68 68 69 69 70 71 71 71 71 69
57 57 58 60 60 61 59 59 58 59 59 59 59 61 62 62 63 64 64 65 66 66 64 64 65 65 64 66 67 67 68 67 73 69 66 68 68 68 68 69 69 68 67 66 66 65 65 66 66 65 65 66 67 67 67 67 67 68 70 68 66 65 64
57 57 58 59 60 62 57 58 58 58 59 59 59 60 60 61 63 64 63 64 65 64 64 64 65 65 65 65 66 66 68 67 66 66 65 65 66 66 67 67 68 67 66 68 67 68 68 66 65 66 67 66 65 65 65 66 66 68 63 63 56 57 59
56 57 58 58 59 58 59 59 58 58 58 57 58 59 60 60 61 63 65 65 65 65 63 64 64 63 63 65 65 66 66 65 65 64 64 64 63 65 66 70 63 63 64 65 68 64 58 56 64 67 67 65 65 66 64 65 68 61 52 48 46 46 46
56 56 56 57 58 59 59 59 60 58 57 57 58 58 59 59 61 62 64 64 64 64 63 63 63 63 64 65 65 65 66 64 63 63 63 62 63 63 63 64 65 55 54 57 60 56 50 48 48 49 51 58 62 64 60 58 56 51 47 45 45 44 44
57 57 58 59 58 57 57 59 59 58 57 57 57 57 58 60 62 61 63 63 63 63 63 62 62 61 62 63 63 64 64 63 63 64 64 63 62 63 62 61 62 63 58 56 56 55 53 52 51 49 49 50 53 59 62 58 53 50 45 44 44 43 43

ECMWFFLT1_sfc_temp_123.txt.gz
Temp
72 72 71 70 72 76 76 76 76 76 77 77 77 78 78 78 77 76 75 75 75 74 74 74 74 74 74 75 75 75 76 75 76 76 76 75 76 75 75 75 76 75 76 75 75 76 76 77 77 77 77 77 76 76 76 76 76 78 76 76 76 76 75
71 72 71 71 70 72 75 75 76 77 77 78 77 78 79 78 77 76 76 75 75 75 75 75 75 75 75 75 75 75 75 75 76 77 77 76 77 76 76 76 76 76 75 76 76 76 77 77 77 77 77 77 77 77 77 76 77 76 76 76 75 75 75
66 69 68 69 70 69 71 72 73 76 76 77 78 78 78 77 77 77 76 76 75 75 76 75 76 76 76 75 75 75 75 75 75 76 76 76 76 77 77 77 77 77 77 77 77 77 77 77 77 77 77 77 77 77 77 77 77 77 76 76 76 76 74
66 68 69 70 70 69 70 71 72 74 76 76 78 78 78 78 78 78 78 77 76 75 75 76 76 76 76 75 75 75 75 75 75 76 77 77 77 77 77 76 76 77 76 77 78 78 80 78 77 77 79 77 77 77 77 77 77 77 77 76 76 76 75
67 67 67 67 68 68 69 70 71 71 73 76 75 76 78 79 79 78 78 79 79 77 77 77 78 78 77 77 77 77 76 75 75 75 76 77 77 77 77 77 77 77 77 78 77 78 77 77 77 77 77 77 77 77 77 77 77 77 77 76 76 76 75
65 66 66 66 67 67 69 70 72 72 72 73 74 74 77 78 79 79 79 78 79 79 78 77 77 77 76 77 78 78 76 75 75 75 76 76 76 77 77 77 78 77 78 78 79 78 78 77 78 77 77 78 78 78 77 77 77 77 77 76 76 77 76
65 65 66 66 66 67 67 68 71 72 71 72 73 74 77 79 79 79 79 78 78 77 77 76 77 77 77 77 77 77 76 76 75 75 76 76 76 77 77 77 78 78 79 78 78 79 78 78 78 78 78 78 78 78 78 77 77 77 77 76 76 76 76
66 66 66 67 67 67 67 67 69 71 72 72 73 72 73 75 76 77 76 75 76 76 77 77 77 77 75 76 77 76 77 77 76 76 76 76 76 76 77 77 77 78 77 78 78 78 79 78 79 78 78 78 78 77 78 77 77 78 77 76 76 76 77
65 66 66 66 66 67 67 67 67 69 69 70 72 72 72 72 73 73 73 74 74 74 73 75 74 74 75 76 76 76 76 76 77 76 76 76 76 77 78 78 78 78 78 78 79 78 79 79 79 78 78 78 78 77 77 77 77 77 77 77 77 76 77
64 64 64 65 66 66 67 67 67 67 67 69 70 71 71 71 72 72 73 73 73 73 73 73 72 73 73 73 74 75 76 76 76 77 77 77 77 78 78 79 79 78 78 79 79 78 78 78 79 78 77 78 77 77 77 77 77 77 77 77 77 77 77
64 64 64 64 65 66 66 66 66 66 68 69 69 70 70 70 71 71 71 72 72 72 73 72 72 73 72 73 73 72 73 75 76 76 77 78 79 79 79 79 80 79 79 79 79 80 78 78 78 77 77 78 78 77 77 77 77 77 77 77 78 78 77
64 64 64 64 64 65 65 65 66 67 67 68 69 69 69 70 70 71 71 71 72 72 72 72 72 73 73 73 72 72 72 72 74 76 77 77 79 80 80 80 79 80 79 79 80 80 80 79 78 78 77 78 78 78 78 77 77 77 77 78 78 77 78
66 65 64 64 64 65 65 65 66 66 67 68 68 69 69 69 70 70 70 71 72 72 72 72 72 72 73 73 73 72 72 72 72 73 75 76 77 79 79 79 80 80 80 80 80 80 81 80 79 78 78 78 78 79 78 78 77 77 77 77 77 77 77
67 66 65 65 65 64 64 65 65 66 66 67 68 69 69 70 70 70 71 71 71 72 72 72 72 72 72 73 72 72 72 72 72 72 73 74 74 76 78 78 78 78 78 78 79 80 81 81 80 79 79 79 79 79 80 78 77 77 76 77 77 78 77
64 65 65 65 64 64 65 64 64 65 66 67 67 68 68 69 69 70 71 72 72 72 72 73 73 73 73 73 72 72 72 72 72 73 73 74 74 74 75 75 75 75 75 75 78 81 81 81 81 79 78 79 78 79 79 79 78 78 78 77 76 77 77
65 66 66 66 66 66 66 66 65 65 66 66 67 67 67 68 69 70 70 71 72 72 73 73 73 72 72 72 72 72 72 72 72 72 72 72 71 71 72 72 72 73 72 72 73 75 76 78 79 80 79 78 78 78 79 79 80 80 76 76 79 77 78
64 65 66 66 66 66 66 66 65 65 65 66 67 67 67 67 68 69 69 69 70 71 72 72 71 71 71 71 72 72 72 72 72 71 71 71 70 70 71 71 71 71 71 71 72 72 73 74 75 78 79 80 79 78 79 80 81 76 70 69 72 79 77
64 65 66 66 67 67 67 66 65 65 66 66 66 66 66 66 67 67 67 68 69 70 71 70 70 70 70 71 71 72 72 71 72 72 72 72 71 71 71 71 71 70 71 71 72 73 74 73 73 72 73 76 77 78 79 80 78 71 69 68 68 72 78
63 64 65 65 65 65 66 67 68 68 68 67 66 66 67 67 66 66 67 67 68 69 69 70 70 69 69 70 71 71 71 71 71 71 71 71 72 71 71 71 71 71 71 72 73 73 72 72 73 73 72 74 73 74 76 77 75 69 67 67 67 66 72
62 63 64 65 65 64 65 67 68 68 68 67 68 69 69 69 69 68 68 67 67 67 67 67 68 68 69 70 70 70 70 70 71 71 71 71 71 71 71 71 71 72 73 73 73 72 72 73 72 72 71 72 73 72 73 73 72 67 65 64 64 64 67
61 62 62 61 63 64 65 66 67 67 68 69 69 68 68 68 70 69 68 68 68 68 67 67 67 67 67 68 69 70 70 70 70 70 70 71 71 71 71 71 71 71 71 71 71 71 71 72 71 72 73 73 73 73 73 77 69 64 65 63 61 62 65
63 64 63 63 62 63 63 64 64 65 66 68 69 69 67 66 67 69 68 69 68 68 67 67 67 67 68 67 68 68 69 70 69 70 70 70 70 70 70 70 70 69 70 70 69 70 70 71 72 72 71 72 73 72 72 75 68 66 65 63 62 62 67
63 62 63 63 64 63 63 62 63 64 65 65 65 65 65 65 65 66 67 67 67 67 67 67 66 66 67 67 67 68 69 69 69 70 70 70 69 69 69 69 69 69 70 68 68 69 69 70 71 71 71 72 72 72 72 73 70 65 62 62 62 64 68
63 63 63 62 63 63 63 62 63 64 64 63 63 63 64 65 64 64 63 64 64 65 65 65 65 66 66 67 68 68 68 69 69 69 70 69 69 69 69 69 69 68 70 68 68 68 69 70 71 71 71 71 72 74 73 73 71 61 59 58 58 64 69
63 63 63 63 63 62 62 62 63 63 63 62 61 61 62 63 63 63 62 62 63 63 62 62 63 64 65 66 67 68 68 68 68 69 69 69 69 70 69 69 70 70 70 68 68 68 69 71 70 71 72 73 73 76 74 73 71 61 58 58 56 62 69
61 61 61 62 62 62 62 63 63 62 60 60 59 61 62 62 62 63 61 60 61 61 61 61 61 61 61 63 65 66 68 68 68 68 68 68 69 69 69 70 70 69 69 69 69 69 69 71 71 70 71 72 73 73 73 73 72 69 58 56 57 57 66
62 62 62 62 63 64 61 60 60 58 59 58 59 60 61 61 61 59 60 60 59 59 60 60 61 61 61 61 63 65 66 67 67 68 68 68 68 68 68 68 68 68 69 69 69 70 69 70 70 69 69 70 71 71 72 73 72 70 59 55 57 57 62
61 62 63 63 64 62 60 60 59 59 59 59 59 60 59 60 60 59 58 58 58 58 60 60 61 62 61 62 62 63 65 66 67 68 68 68 68 66 66 66 67 67 66 66 67 67 67 67 68 67 67 69 69 71 70 72 73 69 63 55 55 55 57
58 59 59 59 59 61 61 58 57 57 57 58 58 58 58 59 59 58 57 56 57 59 60 61 60 61 62 63 62 63 63 63 65 66 68 67 67 66 65 65 65 65 65 64 64 63 64 64 65 65 65 66 67 68 69 69 70 67 68 57 53 53 54
57 58 59 60 60 59 59 57 57 56 56 57 57 57 57 57 58 59 57 56 57 58 60 60 60 60 62 62 61 61 62 63 64 63 64 65 65 65 64 64 64 64 63 63 63 63 62 62 62 62 63 63 64 66 67 66 66 68 67 64 55 53 52
57 57 57 57 58 59 58 56 55 55 55 55 56 56 56 56 57 58 57 57 59 58 58 59 60 61 61 60 59 61 60 60 61 62 62 62 63 63 63 63 63 62 62 62 62 61 61 61 62 61 60 61 62 62 63 64 64 65 67 66 63 56 54
56 56 57 57 56 57 56 56 55 55 54 54 55 56 57 56 56 56 56 57 59 58 57 58 60 62 61 60 60 60 59 59 60 60 60 61 62 62 61 62 62 62 62 61 61 61 60 61 61 61 60 59 59 60 61 63 63 64 65 67 66 63 58
55 55 55 55 55 56 54 55 54 54 54 53 54 55 56 56 57 56 57 57 58 58 58 59 61 60 59 58 59 59 59 60 60 60 60 59 60 61 62 61 59 61 61 60 59 59 60 61 60 59 59 59 59 59 60 61 61 62 63 62 61 61 61
53 53 53 54 55 55 54 53 53 53 53 53 53 55 55 56 56 56 56 57 58 57 59 60 61 58 57 58 59 61 61 61 67 62 58 59 60 59 59 59 60 59 58 58 58 57 57 58 58 58 58 57 58 58 59 60 60 60 57 58 58 58 58
53 53 53 53 54 55 53 53 53 53 53 52 52 54 54 55 55 56 56 56 57 56 58 59 60 59 58 58 58 59 62 60 59 59 58 57 59 58 58 57 59 58 58 58 58 58 58 57 57 59 57 57 56 57 58 59 60 60 53 53 49 50 52
52 52 52 53 54 54 54 54 53 53 53 51 52 54 54 54 55 55 56 56 56 56 56 57 58 56 56 58 58 60 60 59 58 58 58 57 57 58 59 61 55 56 58 58 61 56 51 54 57 56 56 56 59 59 57 58 60 50 43 42 42 42 43
52 51 52 53 52 52 53 53 55 53 53 51 53 54 54 54 54 54 55 55 55 55 54 54 56 55 55 58 58 60 60 58 57 57 56 56 56 57 57 57 57 50 50 54 57 52 48 47 47 48 52 56 56 58 56 53 48 43 42 42 42 42 42
52 52 53 53 53 53 53 53 53 52 52 51 53 52 53 54 54 54 55 55 55 55 54 54 54 53 54 55 56 58 58 55 56 56 56 55 55 56 56 54 55 56 52 50 50 51 48 47 47 46 45 47 49 55 58 53 47 43 43 43 43 43 42